GFSSE_prec_cloud_003.txt.gz
Cloud_Cover
1 0 1 94 74 9 34 99 44 4 0 0 5 54 9 8 31 12 0 0 0 0 0 16 33 42 88 57 34 3 0 0 0 0 0 0 0 16 6 0 0 56 0
5 3 0 4 6 61 6 13 10 5 2 0 0 7 5 0 0 0 0 0 0 0 0 0 0 0 0 3 0 0 0 8 0 0 0 0 0 0 6 53 21 8 0
1 32 0 0 6 25 100 77 5 5 4 1 3 5 4 27 0 3 0 8 0 0 0 0 0 0 0 0 0 0 0 11 0 0 0 0 0 0 0 28 0 0 0
24 32 0 0 0 3 66 100 5 5 76 100 65 18 100 37 100 100 94 8 0 0 0 0 0 0 0 0 0 0 0 0 0 0 0 0 0 0 0 83 38 3 1
100 33 5 0 0 5 35 100 83 100 100 23 5 99 73 100 100 89 41 0 0 0 0 0 0 0 0 0 0 0 0 0 0 0 0 0 0 0 3 100 100 89 39
93 100 63 5 5 7 5 18 100 100 100 5 6 22 12 88 100 99 96 0 0 0 0 0 0 0 0 0 6 6 2 2 0 0 0 1 0 0 0 10 88 96 100
99 99 100 90 5 5 5 95 83 96 100 100 100 100 100 87 72 75 11 0 0 0 0 0 0 0 0 0 2 12 98 74 0 0 0 0 0 0 3 0 41 100 100
100 100 98 97 26 58 83 98 98 53 100 100 100 100 22 7 5 50 7 1 0 0 0 0 0 0 0 1 0 0 5 0 0 0 0 5 5 5 5 0 5 100 100
100 100 100 100 6 10 100 100 99 90 100 100 100 72 10 5 6 1 3 3 0 0 0 0 0 0 0 0 0 0 1 5 0 8 0 3 5 58 5 19 5 87 99
97 100 100 100 100 72 40 86 54 37 100 100 100 68 41 4 3 0 0 0 0 0 0 0 0 0 0 0 0 0 0 0 0 0 6 5 14 6 5 6 4 8 94
100 100 75 96 100 100 100 100 100 100 100 100 100 41 6 0 0 0 0 0 0 3 5 3 5 5 1 15 2 0 0 8 3 10 8 4 33 5 14 5 12 87 100
100 100 100 70 96 97 100 100 99 78 93 100 100 99 5 24 5 5 0 0 0 0 5 5 10 26 0 4 13 6 10 5 5 4 2 3 80 14 5 0 8 92 100
69 36 80 82 92 77 69 71 84 54 75 22 11 5 5 41 6 4 0 0 0 7 94 12 0 0 5 5 5 70 94 100 89 78 75 15 0 9 5 3 4 72 100
100 100 100 100 59 90 72 62 73 43 22 21 5 11 5 4 5 5 6 32 22 10 57 94 11 4 1 5 5 5 5 99 100 100 100 54 28 5 1 4 3 15 66
93 79 100 63 8 49 7 19 44 7 10 5 5 5 24 10 9 23 77 100 38 98 3 0 2 5 3 5 5 5 5 98 71 100 100 100 100 100 85 29 8 7 5
100 100 100 100 74 63 31 72 29 5 48 11 5 5 64 100 52 44 42 47 89 18 0 0 4 5 5 12 5 5 49 38 37 63 98 94 94 100 100 100 100 100 100
100 100 100 100 100 11 42 33 81 63 72 97 99 99 100 100 100 100 96 82 5 4 5 5 5 5 5 5 5 0 0 0 0 0 0 0 4 5 5 5 6 37 100
27 100 100 100 100 100 100 100 100 100 100 100 100 100 100 100 100 79 10 5 5 5 5 8 5 5 5 5 5 5 5 4 0 0 0 0 0 0 0 0 0 1 4
0 31 100 100 96 100 92 100 100 100 100 100 100 100 90 89 90 82 89 68 5 54 59 56 71 22 5 4 5 1 2 0 0 0 0 0 0 0 0 0 0 0 0
0 0 0 39 77 88 100 100 100 100 100 100 100 100 54 9 5 5 14 21 5 5 5 5 1 2 1 0 0 0 0 0 0 0 0 1 0 4 5 5 5 5 5
0 0 1 0 2 20 49 100 100 100 100 100 100 87 99 15 16 3 5 5 2 0 0 4 0 0 0 0 0 0 0 0 5 5 5 1 0 0 0 0 1 0 0
0 0 0 0 32 82 27 53 98 100 100 100 53 49 96 68 2 0 0 0 0 0 0 0 0 0 0 0 0 0 0 0 0 0 0 0 0 0 0 0 0 0 0
0 0 0 1 72 83 37 61 54 100 99 33 40 41 29 2 0 0 0 0 0 0 0 0 0 0 0 0 0 0 0 0 0 0 0 0 0 0 0 0 0 0 0
0 0 0 13 78 64 64 100 99 40 15 5 5 16 8 0 0 0 0 0 0 0 0 0 0 0 0 0 0 0 0 0 0 0 0 5 2 0 3 4 5 5 5
0 0 0 61 55 58 88 71 77 39 0 5 5 5 5 4 0 0 0 0 0 0 0 0 0 0 0 0 0 0 0 0 0 0 0 0 0 4 5 5 5 5 5
0 0 8 41 57 46 11 35 1 0 5 5 5 5 5 5 0 0 0 0 0 0 0 3 0 0 0 0 0 0 0 0 0 0 0 0 0 0 0 1 4 4 4

GFSSE_prec_cloud_006.txt.gz
Cloud_Cover
1 0 4 0 0 3 52 14 2 5 59 56 4 0 78 1 13 11 4 0 5 0 0 0 11 5 100 67 55 19 56 0 0 0 0 0 0 0 38 41 0 0 12
0 0 4 64 62 3 0 0 5 5 84 5 4 95 26 0 8 2 1 5 0 0 0 0 0 0 17 70 100 1 1 2 0 0 0 0 0 0 2 8 100 7 4
3 0 0 15 1 9 20 0 3 23 31 79 5 25 14 25 88 6 0 8 0 0 0 0 0 0 0 0 0 0 0 8 0 0 0 0 0 0 0 0 100 1 0
80 15 5 2 1 12 15 12 0 5 5 77 7 3 100 39 100 100 66 19 0 0 0 0 0 0 0 0 0 0 0 0 1 0 0 0 0 0 0 0 100 57 8
100 56 1 30 0 1 21 6 7 5 5 9 38 19 100 100 99 10 4 0 1 0 0 0 0 0 0 0 0 0 1 0 0 0 0 0 0 0 0 94 100 100 83
100 100 26 2 3 0 4 18 14 5 5 24 6 30 100 100 100 100 81 100 6 0 0 0 0 0 0 0 0 18 3 4 0 0 0 0 0 0 0 0 2 90 100
100 100 100 81 6 5 5 14 5 3 5 5 1 5 88 100 100 100 100 97 0 0 0 0 0 6 2 0 1 3 14 15 0 0 0 5 0 0 1 4 0 68 78
100 100 100 100 100 60 13 5 5 5 28 5 4 12 98 100 100 100 88 5 4 0 1 0 8 1 2 2 3 2 0 0 0 0 2 5 3 0 14 18 10 18 5
100 100 100 100 100 100 100 79 92 43 6 33 85 95 100 100 100 100 99 99 93 6 1 0 2 1 0 0 0 0 0 0 0 5 0 10 0 1 61 100 100 65 9
100 100 100 100 100 100 100 100 100 100 95 6 40 98 100 100 100 100 100 96 51 3 0 0 0 0 0 0 2 0 0 0 0 1 4 11 0 14 23 5 8 26 100
100 100 100 100 99 100 100 100 100 100 100 100 100 100 100 92 97 100 49 13 5 2 0 0 0 0 0 1 0 0 0 4 0 2 11 1 0 0 3 43 7 7 8
100 100 100 100 100 71 100 100 95 100 100 98 100 100 100 55 52 56 5 67 5 5 5 0 0 0 0 5 0 2 0 0 1 5 5 5 5 4 5 0 5 100 67
100 100 100 100 100 55 77 97 100 96 28 74 51 100 100 96 63 77 11 5 2 1 96 26 0 0 0 0 0 0 2 0 2 5 5 5 10 50 69 56 33 9 100
100 100 100 100 100 98 72 80 68 94 88 46 68 86 78 60 14 23 32 30 5 100 8 0 0 0 0 0 2 2 2 1 4 5 0 55 87 10 57 88 89 100 50
80 86 100 100 100 92 95 99 76 22 27 25 10 64 70 9 7 13 100 100 94 40 4 1 1 0 0 0 3 5 5 5 5 5 0 0 0 3 7 30 8 75 69
0 1 23 100 100 100 100 77 87 61 10 12 23 65 64 100 93 98 100 94 64 39 3 4 3 0 5 0 1 5 5 5 6 5 5 5 0 0 0 0 0 0 4
0 0 0 38 94 100 100 98 86 99 77 96 100 96 100 100 100 100 70 89 34 5 5 8 5 5 5 2 0 0 1 0 0 0 0 0 0 0 0 0 0 0 0
0 0 0 0 2 44 43 83 100 100 100 100 100 100 100 100 100 100 82 44 34 5 42 6 0 0 0 3 0 0 0 0 0 0 0 0 0 0 0 0 0 0 0
0 0 1 1 3 4 84 100 100 100 100 100 100 100 100 100 98 90 14 40 13 6 8 0 5 4 0 0 0 0 0 0 0 0 0 0 0 0 0 2 4 17 5
0 0 20 23 36 0 8 100 100 100 100 100 100 100 100 100 99 52 25 11 6 28 3 5 3 0 0 0 0 0 0 0 0 0 0 0 0 5 3 1 1 0 0
0 9 56 51 10 0 50 88 100 100 100 100 100 100 100 100 37 5 58 64 5 4 5 0 0 0 0 0 0 0 0 0 0 0 0 0 0 0 0 0 0 0 0
0 7 47 5 4 24 76 85 100 100 100 100 100 100 98 8 5 61 13 5 2 5 0 0 0 0 0 0 0 0 0 0 0 0 0 0 0 0 0 0 0 0 0
0 14 11 10 38 85 100 100 83 100 96 100 100 97 5 5 5 24 5 5 5 0 0 0 0 0 0 0 0 0 0 2 0 0 0 0 0 0 0 0 0 0 0
0 0 0 0 48 74 100 100 54 0 52 100 65 51 4 1 5 5 5 5 2 0 0 0 0 0 0 0 0 0 0 0 0 0 0 2 0 1 0 5 2 4 4
8 0 0 0 27 95 100 100 100 100 98 67 0 1 0 6 5 5 5 5 5 0 0 0 0 0 0 0 0 0 0 0 0 0 2 0 0 2 0 3 4 2 5
2 0 0 0 14 99 100 100 100 99 96 5 0 0 7 97 78 6 5 8 2 0 0 0 0 0 0 0 0 0 0 0 1 0 0 0 0 0 0 0 0 0 0

GFSSE_prec_cloud_009.txt.gz
Cloud_Cover
5 1 0 0 0 0 0 0 0 1 5 5 5 5 4 72 63 10 0 2 3 0 0 0 0 5 79 66 92 94 56 0 0 0 0 0 0 0 1 87 0 2 17
5 5 2 0 0 0 0 0 0 0 0 5 8 89 6 73 91 12 76 44 7 1 0 0 0 0 55 100 87 4 0 0 0 0 0 0 0 0 0 0 94 15 8
5 5 5 6 10 1 0 0 0 0 0 0 4 99 9 20 5 6 100 9 5 2 0 0 0 0 0 5 0 0 0 0 0 0 0 0 0 0 8 0 65 17 0
72 13 5 56 28 9 7 0 0 0 0 0 0 7 2 96 94 61 86 4 3 0 0 0 0 0 0 0 0 0 0 0 0 0 0 0 0 0 0 16 6 44 25
100 100 45 7 15 28 20 26 0 0 0 0 0 96 98 99 6 17 56 86 27 5 11 9 23 5 0 0 6 6 7 0 0 0 0 0 0 0 0 0 20 4 63
100 100 100 91 69 58 73 18 25 2 0 0 0 22 100 100 32 60 5 8 100 74 60 100 20 5 2 1 1 5 94 96 55 0 0 0 0 0 0 0 0 0 10
100 100 100 100 100 96 68 30 41 15 8 0 0 0 99 99 87 50 0 5 99 100 98 20 11 61 10 2 6 5 0 0 0 0 0 0 0 0 22 33 9 0 36
100 100 100 100 100 100 100 100 100 26 5 2 0 1 2 4 4 0 3 6 8 82 100 100 100 19 5 5 17 15 0 0 0 0 0 0 0 0 65 100 100 67 5
96 100 100 100 100 100 100 100 100 100 92 37 5 5 5 85 95 4 8 85 100 100 100 99 100 5 9 16 15 10 0 0 0 0 0 0 0 0 100 100 93 17 10
100 100 100 100 100 100 100 100 100 100 100 100 36 15 22 24 23 88 100 67 81 99 79 6 9 5 5 0 9 0 0 0 0 0 0 0 0 4 12 7 12 2 48
79 79 100 100 100 100 100 100 100 100 100 100 100 100 100 100 98 100 100 90 14 21 9 5 6 36 5 5 0 0 0 3 0 0 0 0 2 0 3 29 9 8 14
26 85 98 100 98 100 100 100 100 100 100 100 100 100 100 100 43 46 70 74 68 89 78 70 59 10 5 2 5 0 0 1 4 0 2 0 5 2 3 3 15 91 28
4 57 82 100 100 100 96 100 100 100 100 100 100 100 100 100 35 43 64 86 100 99 99 79 14 22 5 4 0 0 0 0 0 0 0 0 0 5 5 6 52 12 43
53 83 68 100 100 100 82 77 93 100 64 68 6 52 70 100 100 51 71 73 60 88 46 5 5 5 5 5 2 0 0 0 0 0 1 1 0 2 0 7 0 2 5
4 77 100 100 100 100 100 69 59 72 70 48 5 5 67 79 91 87 100 97 76 40 5 5 5 5 5 5 5 0 0 0 0 0 3 4 0 0 0 0 0 0 0
0 1 9 66 100 100 91 100 99 90 85 60 77 5 12 94 100 99 100 100 46 56 7 5 9 5 8 6 5 0 0 0 0 0 0 0 0 0 0 0 0 0 0
0 0 0 0 56 67 54 38 20 16 58 24 31 95 99 100 100 100 72 41 98 59 76 5 8 5 5 5 2 5 0 0 0 0 0 0 0 0 0 0 0 0 0
0 0 0 0 15 54 39 33 27 47 94 100 100 100 100 100 100 100 100 100 100 100 74 40 42 5 4 0 5 3 0 0 0 0 0 0 0 0 0 0 0 0 0
1 1 0 0 15 63 45 32 27 100 100 100 100 100 100 100 100 100 100 100 100 100 100 100 56 32 5 5 5 0 0 0 0 0 0 0 0 0 0 0 0 0 0
0 0 0 11 64 48 25 46 100 100 100 100 100 100 100 100 100 100 100 100 100 100 100 64 44 43 60 5 0 0 0 0 0 0 0 0 0 0 0 0 0 0 0
0 0 8 100 61 18 48 46 85 100 100 100 100 100 100 100 99 100 100 100 100 100 95 53 62 88 5 0 0 0 0 0 0 0 0 0 0 0 0 0 0 0 0
0 2 100 89 26 4 6 0 1 72 100 100 100 100 100 100 73 66 100 100 100 99 85 5 5 2 0 0 0 0 0 0 0 0 0 0 0 0 0 0 0 0 0
0 13 100 48 24 28 39 1 4 100 100 100 100 100 100 85 75 62 76 97 65 95 68 5 5 5 5 0 0 0 0 0 0 0 0 0 0 0 1 0 0 0 0
0 10 100 51 27 60 74 5 11 83 46 99 100 100 92 5 34 61 92 5 66 68 5 5 16 5 5 0 0 0 0 0 0 3 0 0 0 2 0 0 0 0 0
0 0 43 60 64 65 82 66 17 100 97 93 100 100 0 4 5 5 5 9 85 30 5 5 5 5 0 0 0 0 0 0 0 0 0 1 5 5 5 5 5 5 0
3 4 0 49 98 100 96 100 83 100 100 100 100 36 0 0 4 1 5 79 67 25 5 25 5 0 0 0 0 0 0 0 0 0 0 0 0 0 3 4 1 4 4

GFSSE_prec_cloud_012.txt.gz
Cloud_Cover
5 6 2 0 0 0 0 0 0 0 0 0 0 1 2 15 22 0 3 0 0 0 2 6 2 40 20 66 91 74 7 0 0 0 0 0 0 0 0 3 0 19 2
5 5 0 2 1 0 0 3 0 0 0 0 0 63 0 27 95 100 20 0 2 2 13 5 0 0 94 96 91 88 8 0 0 0 0 0 0 0 0 0 0 28 0
9 5 8 4 0 1 5 0 0 0 0 0 49 0 0 0 0 0 0 3 5 5 5 5 3 1 6 81 0 0 0 0 0 0 0 0 0 0 0 0 0 0 0
81 66 8 44 51 3 1 5 1 1 0 1 38 13 0 0 5 0 0 0 0 5 17 7 5 15 12 6 5 5 1 0 0 0 0 0 0 0 0 0 0 3 0
6 20 13 87 100 4 28 13 5 6 2 0 5 0 1 0 0 0 2 0 0 0 5 4 62 98 32 5 2 1 45 6 2 3 0 0 0 0 0 0 1 4 40
98 70 10 99 6 5 5 25 16 6 5 5 5 1 20 61 1 0 0 5 5 0 0 1 0 5 5 5 9 100 100 44 0 4 0 2 1 0 0 0 0 0 1
85 99 88 96 79 76 13 99 73 66 40 5 5 5 18 30 47 0 4 2 5 3 5 3 5 23 43 100 95 6 6 2 0 7 15 16 27 0 10 94 42 5 5
59 41 100 100 100 100 100 100 100 100 100 60 22 5 4 3 3 5 1 1 4 4 54 3 89 100 61 99 86 97 8 4 41 59 39 34 14 0 19 87 51 26 14
6 4 8 79 100 100 100 100 100 100 100 100 71 18 5 5 5 48 77 78 47 95 20 96 100 98 96 43 12 5 5 5 5 14 1 2 0 0 25 100 17 74 70
5 0 5 60 94 100 100 100 100 100 100 100 100 100 100 56 44 12 5 6 94 100 100 100 100 100 100 7 38 74 5 16 5 2 0 0 0 0 0 7 15 5 6
1 0 56 98 78 85 100 100 100 100 100 100 100 100 100 100 100 93 84 100 100 48 52 99 82 84 57 69 65 28 77 8 5 1 0 0 0 0 0 0 0 0 0
0 0 6 72 76 78 88 97 100 100 100 100 100 100 100 96 99 100 100 100 100 100 100 8 5 51 7 32 34 45 6 5 4 4 0 0 0 0 1 0 0 0 0
0 0 5 78 68 94 86 99 90 100 100 100 100 100 100 100 100 100 100 100 100 100 100 99 100 14 46 42 27 8 5 5 1 5 0 0 0 0 0 3 0 0 0
0 0 0 44 100 63 100 98 99 60 99 100 100 100 100 100 100 100 100 61 26 56 99 100 98 80 60 25 23 5 5 2 0 5 0 0 0 0 4 5 5 2 3
0 0 1 6 94 76 98 76 92 91 100 76 50 58 58 78 45 62 8 5 5 98 94 76 61 67 17 35 7 5 5 4 5 4 0 0 0 0 3 0 0 0 0
0 0 2 6 29 97 100 94 56 76 39 82 59 5 6 31 42 7 40 94 72 26 78 70 58 70 5 14 86 6 7 5 5 2 5 5 0 0 0 0 0 0 0
0 0 0 5 5 100 100 95 56 43 51 99 68 62 50 5 12 91 100 100 38 8 26 81 84 72 57 71 100 69 40 13 27 5 5 5 0 0 0 0 0 0 0
0 0 0 0 4 32 88 100 78 55 64 74 64 39 41 68 100 100 100 8 61 100 100 100 100 100 100 100 100 100 81 98 31 5 5 2 0 0 0 0 0 0 0
0 0 0 0 0 0 14 100 94 82 56 66 100 100 100 100 100 100 92 25 31 100 100 100 100 100 100 100 100 100 100 20 49 5 4 0 0 0 0 0 0 0 0
0 0 0 0 0 0 89 100 100 79 28 96 100 100 100 100 100 5 5 5 41 72 100 100 100 100 100 100 100 99 29 89 5 0 0 0 0 0 0 0 0 0 0
0 0 0 0 0 0 100 86 40 68 68 100 100 100 100 100 100 5 5 100 86 5 20 33 62 100 100 45 13 25 5 2 0 0 0 0 0 0 0 0 0 0 0
0 0 0 0 0 0 49 82 53 98 80 99 27 100 100 100 100 24 10 78 79 66 53 62 99 100 100 56 5 5 5 5 0 0 0 0 0 0 0 0 0 0 0
0 0 0 0 0 4 96 70 50 32 43 90 94 100 100 100 100 6 78 97 100 82 85 84 46 92 100 80 5 5 16 5 0 0 0 0 0 0 0 0 0 0 0
0 0 0 0 0 31 56 0 0 0 20 76 100 100 100 100 95 4 97 100 100 46 100 100 7 90 82 13 5 5 5 2 0 0 0 0 0 0 0 0 0 1 0
0 0 0 0 3 13 0 0 3 5 0 100 100 100 100 100 15 0 2 5 5 55 5 5 60 86 59 5 5 5 4 0 0 0 0 0 0 0 1 5 5 5 0
0 0 0 0 22 0 24 81 23 24 13 93 100 100 100 87 0 0 0 0 0 4 5 5 9 5 5 5 2 0 0 0 0 0 0 0 0 4 5 5 4 3 0

GFSSE_prec_cloud_015.txt.gz
Cloud_Cover
28 10 5 5 3 5 4 1 0 0 0 0 0 1 6 10 9 0 0 0 0 0 0 0 15 34 49 100 100 100 89 5 0 0 0 0 0 0 0 8 0 43 72
4 19 5 5 5 1 8 0 0 0 0 0 0 0 10 7 7 2 1 0 0 0 0 0 0 0 23 100 100 100 88 0 0 0 3 0 0 0 0 0 0 48 4
5 15 5 4 5 0 14 0 0 0 0 0 8 0 3 0 0 0 0 0 0 0 0 0 3 24 4 18 12 34 6 4 5 3 0 0 1 0 0 0 0 0 0
5 11 7 3 1 2 13 0 0 0 0 1 0 0 0 0 0 0 0 0 0 0 0 0 0 0 0 3 4 54 100 3 4 5 51 57 5 3 0 0 3 0 1
40 61 7 5 5 4 15 0 2 0 0 0 0 0 0 0 0 0 0 0 0 0 0 1 0 0 0 4 0 0 27 8 2 24 28 16 6 10 0 0 0 0 18
5 8 20 40 100 5 5 5 15 5 4 0 0 1 5 5 0 5 0 0 0 0 0 0 0 1 0 0 3 0 19 9 63 58 21 23 9 0 0 3 0 0 0
16 16 11 27 16 6 96 16 23 30 5 5 3 2 10 5 93 22 5 5 4 0 0 0 8 1 6 3 4 62 96 32 62 63 19 25 79 2 1 100 0 2 0
14 6 15 12 97 100 100 100 77 100 70 90 21 30 49 45 34 81 75 88 51 4 0 4 6 18 70 74 22 63 100 100 100 23 38 37 10 5 4 56 0 3 7
29 17 27 31 34 14 60 100 100 100 100 100 100 100 94 100 93 49 74 32 8 5 5 60 100 18 7 62 100 100 100 100 85 23 38 9 5 5 2 88 1 14 18
5 5 5 26 59 52 28 61 100 100 100 100 100 100 100 100 97 100 100 100 100 97 71 99 82 46 100 17 36 93 54 5 5 9 5 25 5 5 0 4 0 0 0
5 5 5 8 7 90 83 20 6 45 100 100 100 100 100 96 100 100 100 100 100 100 100 99 7 100 100 95 100 73 5 5 5 5 5 5 5 4 0 0 0 1 0
0 0 0 4 19 92 42 25 16 11 58 100 100 99 100 100 100 100 100 100 100 100 100 100 100 100 100 100 100 100 97 74 80 6 5 13 5 5 4 0 0 0 7
0 0 2 7 10 52 88 98 53 52 54 17 95 90 100 100 100 100 100 100 100 100 100 100 100 100 100 95 37 72 71 95 84 23 54 60 5 5 31 10 0 21 2
0 0 2 6 26 50 83 95 87 10 7 29 40 44 64 90 85 100 100 100 100 100 100 100 100 100 34 6 23 6 79 81 14 47 39 8 13 5 5 5 3 0 0
0 0 0 0 76 45 100 82 58 51 46 64 55 54 95 81 56 66 100 100 100 100 100 95 66 94 39 71 69 37 19 94 63 11 41 100 25 8 5 7 5 4 0
0 0 0 0 4 97 100 98 68 59 32 59 82 96 7 31 82 68 37 48 5 15 12 47 49 56 60 44 76 51 25 14 20 62 100 100 47 90 5 98 6 5 0
0 0 0 0 0 2 100 90 98 58 36 69 100 93 37 96 97 7 9 5 5 5 4 3 5 6 6 6 40 10 92 29 99 100 100 100 100 91 6 87 5 5 0
0 0 0 0 0 6 100 88 8 100 100 100 100 100 100 44 5 1 6 30 5 14 7 5 5 5 44 100 92 98 99 100 100 100 100 100 100 60 78 18 5 0 0
0 0 0 0 0 0 41 94 99 100 100 100 97 100 57 5 8 12 88 12 5 5 5 5 5 16 78 94 100 100 100 100 100 100 98 100 52 40 67 5 0 0 0
0 0 0 0 0 0 0 20 98 100 100 100 82 62 100 72 59 97 17 5 4 5 5 20 70 7 5 5 13 60 73 84 53 34 13 8 27 25 5 0 0 0 0
0 0 0 0 0 0 0 3 24 100 100 100 18 81 100 80 100 100 5 1 3 5 32 99 100 93 34 5 5 5 5 7 5 5 26 10 5 0 0 0 0 0 0
0 0 0 0 0 0 0 44 30 100 99 67 23 2 100 98 100 100 30 0 0 5 68 93 99 88 70 62 43 5 10 42 59 5 0 0 0 0 0 0 0 0 0
0 0 0 0 0 0 1 77 97 100 97 100 59 1 14 91 100 100 87 0 0 0 20 29 64 61 28 92 73 12 5 5 11 12 5 5 0 0 0 0 0 0 0
58 2 0 0 0 0 6 48 94 3 42 81 10 2 59 99 100 100 88 0 0 0 5 21 63 64 5 5 17 4 5 5 5 38 6 0 0 0 0 0 0 0 0
5 4 1 0 0 0 0 25 76 0 18 47 19 64 100 100 100 100 55 0 0 0 0 0 1 1 4 4 0 3 5 5 4 0 0 0 0 0 0 0 0 0 0
5 5 5 2 0 0 12 50 0 0 0 2 23 92 100 100 100 100 5 5 0 0 0 4 5 5 5 5 3 5 5 4 0 0 0 0 0 0 0 0 0 0 0

GFSSE_prec_cloud_018.txt.gz
Cloud_Cover
42 26 1 5 11 5 5 5 1 0 0 0 4 9 16 7 0 0 0 0 0 0 0 0 11 65 100 96 100 100 96 20 0 0 0 0 0 0 0 0 34 15 92
4 50 5 1 5 5 28 5 4 0 0 0 0 1 16 10 5 1 0 0 0 0 0 0 1 3 85 100 100 99 7 0 0 1 0 4 0 0 0 2 0 44 31
0 6 5 5 0 5 6 5 5 5 2 4 34 4 7 59 24 0 0 0 0 0 0 0 0 0 0 1 0 0 0 0 5 4 3 5 0 0 0 5 6 0 0
5 0 4 0 0 1 1 0 0 0 3 0 0 0 0 0 0 0 0 0 0 0 0 0 0 0 0 0 0 0 0 0 0 0 0 0 0 1 14 18 5 5 0
5 5 5 2 0 2 0 0 0 0 0 4 0 0 0 0 0 0 0 0 0 5 2 0 0 0 0 0 0 0 0 0 0 0 24 13 7 5 8 5 5 0 0
1 5 5 5 3 0 0 4 7 5 4 2 5 5 2 0 1 4 0 0 2 3 5 4 4 5 0 0 0 0 0 0 0 3 97 100 100 100 74 64 5 1 2
3 5 5 5 5 5 0 3 5 42 28 5 6 19 5 5 52 17 2 2 2 16 13 5 5 5 5 4 18 0 0 3 12 68 100 100 100 95 79 100 4 6 20
5 34 5 5 5 5 4 0 5 21 94 99 100 83 32 5 55 31 26 8 27 10 29 14 12 18 35 12 3 2 98 17 15 100 95 17 28 6 11 58 8 7 13
3 8 5 5 5 6 5 1 2 0 71 100 100 100 100 92 62 92 97 87 97 86 100 100 93 63 34 6 16 46 46 62 100 100 99 24 5 5 5 72 5 5 5
1 4 5 0 1 6 0 1 5 5 0 2 40 100 100 100 100 100 100 100 100 100 100 100 100 100 100 100 83 91 97 100 100 100 100 100 37 96 100 60 5 5 8
0 2 0 3 5 38 0 0 5 5 3 3 0 8 100 75 100 100 100 100 100 100 97 100 100 100 100 100 100 100 100 100 100 100 100 100 89 58 72 5 9 6 54
0 0 7 5 0 44 96 0 5 5 5 5 5 5 5 46 92 100 100 100 100 100 100 100 99 100 100 100 100 100 100 100 100 100 100 54 36 26 22 97 29 34 6
0 0 0 42 50 20 100 87 1 5 21 5 42 5 0 4 14 55 49 99 61 70 100 100 100 100 100 100 100 100 100 100 100 99 7 8 5 65 98 57 20 6 5
0 0 0 26 100 99 100 100 5 5 5 5 5 10 11 5 1 5 5 8 39 63 87 100 100 100 100 100 100 100 100 100 18 64 13 8 33 5 27 9 90 57 59
0 0 0 0 20 99 100 100 58 8 18 17 5 5 73 5 5 5 12 27 34 10 30 15 91 69 100 100 100 100 99 38 5 70 41 25 20 30 36 100 100 100 100
0 0 0 0 0 0 92 100 69 67 78 5 45 39 8 5 9 5 6 3 3 66 29 31 15 4 13 97 90 14 67 9 5 15 6 5 78 24 100 100 100 100 100
0 0 0 0 0 0 25 100 100 13 74 73 100 100 81 25 98 6 5 5 5 0 0 1 2 5 5 5 5 0 3 5 46 56 98 98 99 100 100 100 100 100 100
0 0 0 0 0 0 16 98 100 56 99 93 98 72 100 99 83 0 5 5 5 1 2 1 0 0 0 5 5 5 5 5 25 62 86 100 100 100 100 100 100 100 97
0 0 0 0 0 0 0 28 98 37 36 63 75 58 100 100 28 0 2 5 5 5 5 5 0 0 5 5 54 92 7 7 5 5 6 77 66 100 70 22 31 8 56
2 0 0 0 0 0 0 0 45 0 100 100 73 96 92 68 21 0 4 17 3 4 5 5 0 0 5 5 38 97 99 90 55 5 54 90 100 30 5 5 5 5 16
5 4 0 0 0 0 0 0 0 0 92 100 100 100 51 9 10 0 39 39 0 0 0 0 0 0 5 51 66 40 95 81 78 44 5 5 27 19 5 5 1 0 0
100 100 20 4 0 0 0 0 0 0 19 100 100 100 91 21 5 6 77 61 5 1 0 0 0 0 4 5 5 6 62 38 5 8 5 5 5 3 5 5 3 0 0
67 100 100 13 3 4 0 0 20 24 22 78 100 100 63 11 5 14 97 98 45 5 4 0 0 0 1 5 5 8 5 5 5 23 18 1 0 4 4 0 0 0 0
9 64 100 100 55 5 0 3 1 2 0 12 69 100 76 51 16 11 100 98 16 5 5 5 0 0 0 1 4 0 0 0 0 3 3 5 5 5 0 0 0 0 0
1 5 48 94 97 100 38 24 16 0 6 13 100 100 100 93 100 43 100 100 51 5 5 5 52 5 2 0 0 0 5 2 0 0 4 1 0 0 0 0 0 0 0
0 0 5 11 33 5 5 11 10 2 70 61 98 100 100 100 100 60 37 94 76 5 20 5 41 59 5 5 5 5 5 5 0 0 0 0 0 0 0 0 0 0 0

GFSSE_prec_cloud_021.txt.gz
Cloud_Cover
47 11 5 24 5 5 5 7 5 5 5 5 4 15 18 10 13 3 0 0 0 0 0 0 53 94 27 80 100 94 0 0 0 0 0 0 0 0 0 0 42 0 59
13 13 9 5 5 5 7 5 5 5 5 5 6 1 13 15 2 0 0 0 0 0 0 0 30 11 91 100 71 1 0 0 0 0 0 0 0 0 0 0 0 0 6
20 14 2 4 5 0 1 0 3 5 5 5 1 8 12 56 0 0 0 0 0 0 0 4 0 0 0 0 0 0 0 0 0 0 0 0 0 0 0 0 0 0 0
5 6 1 0 0 0 0 0 0 2 2 0 0 10 2 14 0 0 0 0 0 0 0 0 0 0 0 0 0 0 0 0 0 0 0 0 0 0 0 2 23 66 100
5 5 1 2 0 0 0 0 0 0 0 0 0 0 0 0 2 5 1 0 0 0 0 0 0 0 1 4 2 0 2 0 0 0 0 13 0 0 4 6 100 66 92
0 5 0 5 3 4 0 0 0 0 0 0 0 0 0 0 4 2 5 5 5 5 5 1 0 0 0 5 5 5 4 0 5 45 98 100 5 61 70 100 100 57 43
0 1 1 5 5 5 5 1 0 0 0 0 4 5 5 5 2 5 5 5 8 23 6 57 64 2 5 5 5 5 5 5 5 9 40 58 61 16 100 87 95 55 5
0 5 3 5 5 5 5 4 0 0 0 0 0 0 1 5 19 14 11 38 9 27 82 16 12 11 54 40 36 80 61 91 10 31 4 11 5 25 100 89 41 23 14
4 4 12 5 5 5 5 0 0 0 0 0 0 1 0 4 21 61 98 100 100 100 100 89 88 100 84 100 100 96 96 100 81 47 88 77 9 100 100 100 100 99 90
0 0 0 5 0 5 0 3 0 0 0 5 0 0 0 0 4 87 90 100 100 100 100 100 100 100 100 100 100 12 43 95 100 92 83 91 100 100 100 100 100 100 100
1 1 0 0 3 0 6 0 0 0 5 1 5 4 0 0 0 0 33 43 99 95 100 100 100 100 87 100 100 100 92 100 100 74 92 99 100 100 100 99 100 96 37
0 0 0 0 0 0 1 2 0 0 0 5 5 5 5 2 0 0 0 5 5 70 99 93 100 97 99 100 100 100 100 100 100 99 78 98 100 100 88 100 99 74 67
1 0 0 0 0 2 4 0 0 0 0 5 5 5 5 5 5 0 18 1 2 5 16 96 75 93 100 100 84 100 98 100 100 100 76 100 100 100 100 99 41 9 24
0 0 0 0 0 0 3 2 0 0 0 2 5 5 5 5 5 5 11 2 1 0 5 5 5 48 75 60 18 56 46 61 99 100 100 100 100 100 64 19 32 5 45
0 0 0 0 0 0 0 82 59 0 0 2 5 5 5 5 5 5 5 5 0 0 0 2 5 5 5 5 6 5 5 4 5 5 3 17 62 5 18 15 21 28 79
0 0 0 0 0 0 0 11 12 0 0 0 0 1 5 5 5 12 5 81 5 1 0 0 1 3 4 0 2 4 4 2 3 4 4 3 4 5 5 47 100 74 99
0 0 0 0 0 0 0 2 77 18 9 8 4 43 5 1 5 5 5 5 1 3 5 2 0 0 0 0 0 0 0 1 0 5 5 2 3 5 36 91 100 100 100
0 0 0 0 0 0 0 0 69 100 40 9 100 100 98 4 4 6 5 5 5 0 2 4 0 1 2 0 0 0 4 5 5 33 5 5 5 5 49 100 100 80 75
0 0 0 0 0 0 0 0 11 100 90 34 98 100 100 41 68 18 5 4 0 0 0 0 0 5 5 0 0 0 5 5 5 54 6 24 51 98 50 9 59 99 76
0 0 0 0 2 0 0 0 0 100 22 48 99 100 21 22 93 12 3 0 0 0 0 0 0 0 0 0 0 0 1 5 5 5 20 68 85 34 73 92 97 38 87
3 0 0 0 0 5 16 5 0 12 66 100 100 100 79 47 59 47 0 0 0 0 0 0 0 0 0 0 0 0 0 5 5 40 5 48 38 62 74 99 99 20 10
7 5 5 5 1 0 14 85 4 5 2 91 100 100 100 100 72 31 0 0 4 1 2 1 2 4 1 0 0 0 0 1 5 5 4 3 0 1 1 45 73 31 5
5 5 5 4 5 5 5 12 80 89 19 80 92 99 100 97 100 62 0 0 5 39 0 0 2 5 5 4 4 0 0 0 0 3 4 4 1 1 5 24 27 5 5
5 54 29 15 5 0 5 5 6 38 21 5 4 5 72 100 100 100 20 10 79 99 8 0 4 5 5 5 5 5 5 3 0 0 0 0 5 0 0 0 0 0 0
5 6 81 25 5 3 0 5 5 10 99 75 6 5 22 100 100 100 40 20 32 100 94 2 5 5 5 56 92 50 18 9 10 5 5 5 3 0 0 0 0 0 0
4 2 0 5 3 3 2 5 5 5 27 78 13 36 7 90 100 100 100 71 98 99 91 47 5 5 5 5 11 45 45 6 15 31 30 47 24 3 0 0 0 0 0

GFSSE_prec_cloud_024.txt.gz
Cloud_Cover
39 4 5 15 5 19 31 16 5 12 8 6 12 7 48 12 7 0 1 0 0 0 0 16 48 25 66 86 35 4 0 0 1 0 0 0 0 0 0 0 26 0 2
9 5 5 36 8 5 5 5 5 5 5 8 8 16 9 59 13 0 0 0 0 0 0 95 95 99 64 22 0 0 0 0 0 0 0 0 0 0 0 0 0 0 0
20 3 6 5 4 14 5 5 5 5 3 4 6 5 6 5 9 0 0 0 0 0 0 26 17 24 2 0 0 0 0 0 0 0 0 0 0 0 0 0 0 0 0
5 5 5 16 3 2 5 5 4 2 0 0 5 4 34 1 0 0 0 0 0 0 0 5 2 0 0 0 0 0 0 0 0 2 0 0 0 0 0 0 0 4 0
12 5 5 16 2 0 2 4 1 0 0 0 8 2 12 1 0 0 0 0 0 2 5 3 0 0 0 0 0 0 0 0 0 0 0 0 0 0 0 0 0 1 4
15 1 5 5 5 0 1 5 0 0 0 0 0 0 0 0 0 0 0 0 0 2 0 1 5 5 5 1 0 0 0 0 0 3 20 17 0 94 0 0 0 4 9
2 0 1 1 5 5 5 4 0 0 0 0 0 0 0 0 0 0 0 0 1 10 11 8 0 4 5 18 13 5 5 3 5 5 6 30 5 18 2 7 6 42 19
5 1 5 5 4 5 5 5 3 0 0 0 0 0 0 0 11 4 0 0 0 0 7 7 13 62 37 5 6 76 91 65 82 60 75 79 98 98 100 64 42 83 14
5 5 25 12 5 5 5 4 3 0 0 0 0 0 0 0 1 14 0 6 0 4 6 12 63 56 74 95 100 100 100 100 94 94 100 39 100 90 62 25 83 21 96
5 5 20 27 5 5 5 5 0 0 0 0 0 0 5 0 0 0 0 0 0 7 4 0 5 5 5 71 98 100 100 100 54 36 5 4 39 69 96 100 100 99 100
35 33 54 47 22 5 5 4 0 0 0 0 5 4 1 4 0 0 0 0 0 11 2 4 5 50 60 94 60 91 100 100 46 49 55 90 100 93 28 100 92 57 47
30 65 63 45 40 14 4 2 2 3 0 0 2 5 0 5 5 1 0 0 0 0 0 0 1 41 5 27 47 66 17 99 75 84 99 19 84 94 100 92 100 78 89
40 9 33 38 27 11 17 13 19 19 8 2 0 5 5 5 6 15 16 10 6 0 0 0 0 8 10 34 51 20 5 15 8 12 95 96 80 94 100 100 38 52 10
5 5 4 4 19 5 5 18 57 3 6 5 0 1 5 5 8 15 28 15 12 0 0 0 5 10 39 95 63 72 97 100 77 8 21 5 6 56 11 4 0 0 0
5 5 5 2 1 4 4 5 11 5 2 0 0 0 5 2 5 5 11 12 6 5 4 0 0 3 4 5 5 5 23 51 67 53 27 5 5 4 2 0 0 1 4
5 4 2 0 0 0 0 0 0 5 1 0 0 0 0 0 0 5 36 5 5 5 3 0 0 3 0 3 3 5 2 5 1 0 0 1 0 0 2 5 0 0 5
0 0 1 0 5 5 0 0 0 0 0 0 0 0 0 0 4 0 3 5 5 5 5 4 0 0 0 0 0 0 0 0 0 0 0 4 5 5 5 5 5 5 5
5 11 8 41 11 3 5 0 0 0 0 0 0 0 0 0 0 2 3 5 5 5 3 0 0 0 0 0 0 0 0 0 0 0 5 5 60 22 5 5 25 100 36
2 5 29 5 53 10 4 2 5 1 0 0 0 0 0 20 0 3 5 4 4 2 0 0 0 0 0 0 0 0 0 0 0 0 5 5 30 5 5 5 25 5 5
0 0 0 4 5 4 5 9 8 75 54 5 6 15 94 98 66 38 36 33 21 0 0 0 0 0 0 0 0 0 0 0 0 0 0 5 6 21 96 82 33 24 5
5 0 0 0 4 0 2 17 5 5 5 22 42 98 100 100 100 99 94 90 24 0 0 0 0 0 0 0 0 5 0 0 0 0 0 0 5 25 51 5 5 5 2
5 1 0 4 5 5 1 0 4 70 91 29 44 78 100 100 100 100 46 98 6 0 0 0 0 0 0 0 0 0 5 4 6 4 1 0 0 2 5 5 5 5 5
100 97 38 5 5 5 5 11 52 6 99 100 100 89 100 100 100 100 100 81 30 0 0 3 0 0 0 0 0 0 5 44 72 62 12 5 4 4 4 3 5 5 5
100 86 5 4 4 5 5 34 5 13 8 14 6 16 8 83 100 100 100 100 53 19 14 89 16 0 0 0 0 0 0 2 5 5 24 59 89 17 26 30 6 3 3
65 79 100 100 93 42 5 5 53 65 40 17 5 5 5 5 38 97 100 100 100 51 19 73 89 1 0 0 0 0 5 5 5 4 1 4 37 98 100 100 100 100 90
5 5 5 6 26 31 5 12 5 22 84 47 5 12 19 13 5 31 99 100 100 100 60 92 100 74 40 0 0 0 4 5 3 0 5 4 26 17 11 22 53 66 95

GFSSE_prec_cloud_027.txt.gz
Cloud_Cover
47 13 27 45 78 96 100 25 35 14 10 58 94 100 33 5 5 5 5 5 5 5 2 21 13 90 48 3 6 0 0 0 0 0 0 0 0 0 0 0 0 0 0
5 29 26 100 100 100 50 8 6 5 5 10 8 32 46 43 5 5 5 5 4 2 25 99 69 78 98 27 0 0 0 0 0 0 0 0 0 0 0 0 0 0 0
8 13 5 99 100 53 23 16 11 7 2 9 8 9 13 51 6 5 5 1 0 0 94 100 100 82 0 0 0 0 0 0 0 0 0 0 0 0 0 0 0 0 0
5 5 5 100 100 73 19 3 9 4 2 10 12 7 11 2 5 0 1 3 4 3 100 92 48 13 0 0 0 0 0 0 0 0 0 0 0 0 0 0 0 1 0
26 5 5 21 77 9 0 1 5 4 0 15 6 10 17 0 0 0 0 0 0 1 0 0 0 0 0 0 0 0 0 0 0 0 0 0 0 0 0 0 0 0 0
86 7 4 5 5 3 0 5 4 61 6 33 8 18 1 0 0 0 0 0 0 1 0 0 0 0 0 0 0 0 0 0 0 0 5 4 0 1 2 8 76 95 16
22 5 5 2 4 5 0 5 5 0 0 12 0 10 10 0 0 0 0 0 0 2 6 5 0 2 4 0 0 1 4 3 1 2 3 5 5 18 5 7 6 16 100
21 6 4 4 2 5 5 5 5 0 12 1 0 0 0 0 0 0 0 0 0 9 0 6 17 16 9 1 0 0 5 5 5 5 68 5 14 31 46 12 24 5 16
12 18 9 4 5 5 5 5 5 5 0 0 0 0 0 0 0 1 0 0 0 12 0 0 8 1 0 0 0 0 0 3 2 4 32 44 9 5 7 16 15 8 17
19 22 13 6 7 5 5 5 5 5 0 0 0 5 4 0 0 0 0 1 0 0 5 0 2 0 0 0 2 3 5 5 24 39 5 42 69 15 100 98 10 44 40
63 36 57 54 36 29 37 6 36 5 3 0 0 0 5 2 0 0 0 0 0 0 0 0 0 0 0 0 4 0 5 5 0 1 0 17 5 33 52 53 28 100 92
100 74 100 100 56 27 5 5 5 5 5 5 3 0 2 5 2 0 2 2 0 0 0 0 0 0 0 0 0 0 4 6 5 2 7 14 5 45 73 95 100 79 82
87 100 100 100 77 26 26 18 32 48 12 8 1 0 0 12 16 15 23 14 6 1 0 0 0 0 0 0 0 0 5 5 5 5 5 5 81 87 100 100 28 8 78
56 62 100 100 100 45 6 32 8 12 34 24 13 1 1 24 36 31 35 38 24 6 0 5 1 0 0 0 2 5 16 5 5 5 4 5 2 5 5 5 4 4 5
71 58 49 85 86 65 32 48 15 8 94 76 15 5 5 0 31 29 24 25 66 39 5 2 0 0 0 0 0 0 0 0 3 5 4 5 4 4 10 0 0 0 1
3 14 14 49 57 48 45 53 31 4 7 4 4 0 0 0 2 20 23 20 26 5 6 5 2 2 0 0 0 0 0 0 0 0 0 0 0 0 0 0 0 0 5
5 5 6 34 46 38 32 43 5 0 0 0 2 0 0 0 0 4 9 15 5 5 5 5 3 5 0 0 0 0 0 0 0 0 0 0 0 0 3 5 5 5 5
5 33 16 5 34 38 25 38 5 6 5 2 0 0 0 0 0 2 0 4 67 4 3 5 0 4 0 0 0 0 0 0 0 0 0 0 0 0 5 22 73 71 97
5 28 43 12 18 14 11 11 20 20 7 5 2 0 0 1 0 0 3 4 2 4 4 4 0 0 0 0 0 0 0 0 0 0 0 0 0 0 2 5 41 6 91
5 5 5 8 5 5 2 24 12 4 60 14 5 5 5 5 5 5 24 5 5 5 16 3 0 0 0 0 0 0 0 0 0 1 4 0 0 0 0 0 1 4 5
53 5 5 5 5 15 40 94 93 26 1 5 3 22 6 7 94 100 100 100 100 100 99 1 0 4 0 0 0 0 0 0 0 0 2 5 29 5 5 0 0 0 0
100 35 11 5 24 91 44 20 5 5 5 4 3 41 100 97 92 95 100 100 99 100 91 5 6 5 5 0 0 0 0 0 0 0 0 3 19 65 100 100 78 24 10
100 100 100 56 21 14 28 25 74 77 61 76 25 43 100 10 45 100 100 100 96 74 65 25 5 8 4 3 0 0 0 0 0 0 0 0 0 0 8 12 72 100 100
100 100 100 100 100 94 78 99 100 78 19 5 5 6 51 41 79 94 100 100 100 100 100 54 24 6 5 2 0 0 0 0 0 0 0 0 0 0 0 2 5 5 5
60 48 50 88 95 98 43 83 72 23 5 22 26 5 6 78 55 47 100 100 100 100 86 100 100 7 5 5 0 0 0 0 0 0 0 4 3 5 5 5 0 0 0
96 86 54 71 66 25 5 12 25 5 7 29 46 17 45 42 52 91 95 94 100 100 100 96 100 92 28 67 5 5 1 0 0 2 5 5 5 5 5 5 4 0 4

GFSSE_prec_cloud_030.txt.gz
Cloud_Cover
5 13 100 96 35 32 58 11 8 16 5 44 100 100 58 23 22 5 5 5 5 5 14 4 99 5 36 94 4 0 0 0 0 0 0 0 0 0 3 0 0 0 0
5 9 62 89 100 100 100 18 5 5 5 6 44 100 95 7 7 9 5 5 5 5 45 78 48 96 75 3 0 0 0 0 0 0 0 0 0 0 0 0 0 0 0
5 5 22 93 86 100 72 93 19 0 41 38 14 72 28 5 5 5 5 5 5 5 100 100 100 58 0 0 0 0 0 0 0 0 0 0 0 0 0 0 0 0 0
2 5 59 100 100 100 48 2 3 3 69 8 13 15 9 5 5 5 4 3 5 88 100 97 73 6 0 0 0 0 0 0 0 0 0 0 0 2 0 0 0 0 0
5 5 5 100 100 100 9 2 0 0 23 26 12 13 7 0 0 0 0 0 1 13 17 2 0 0 0 0 0 0 0 0 0 0 0 0 0 17 0 0 0 4 4
10 5 19 100 100 78 70 5 5 2 2 87 12 13 0 0 0 0 0 0 0 3 0 0 0 0 0 0 0 0 0 0 0 0 0 0 0 7 5 2 1 34 6
29 5 20 30 56 5 53 30 5 45 4 20 22 21 20 18 0 0 0 0 4 0 0 0 0 2 5 16 6 0 0 0 0 0 0 0 0 9 1 13 0 5 14
21 6 4 6 5 5 5 5 4 41 61 10 8 14 15 0 0 0 0 0 15 10 0 6 4 3 7 0 0 0 0 0 0 0 0 0 0 1 0 4 4 13 8
21 22 5 5 5 5 5 5 5 5 5 1 0 0 5 1 1 0 0 0 0 0 0 0 26 1 0 0 0 0 0 0 0 0 3 0 2 4 5 1 6 17 59
39 26 13 11 5 4 4 5 5 5 5 0 0 0 5 4 1 0 0 0 0 0 4 36 0 0 0 0 0 0 0 0 0 0 0 0 1 2 0 14 54 100 50
91 69 45 35 23 8 5 5 38 18 64 5 3 0 5 4 39 0 1 0 1 1 0 0 0 0 0 0 0 0 0 0 0 0 0 0 5 45 98 47 92 88 74
100 100 83 84 48 26 36 38 99 80 51 5 5 5 0 2 5 5 5 5 5 10 0 0 0 0 0 0 0 0 0 0 0 0 0 0 4 60 71 67 63 94 38
100 100 100 100 97 42 37 34 40 100 80 11 32 40 0 25 19 15 19 16 6 5 5 0 0 0 0 0 0 0 0 0 3 2 0 5 53 98 79 81 29 1 5
100 100 100 100 100 82 50 33 19 17 23 82 100 97 10 39 34 31 35 26 24 13 22 5 5 0 0 0 0 0 0 0 0 0 0 0 0 2 0 0 0 0 0
100 100 100 100 100 100 51 63 26 8 9 63 64 74 94 34 44 37 33 30 26 7 5 14 5 5 0 0 0 0 0 0 0 0 0 0 0 0 0 0 0 0 0
43 73 100 100 100 100 100 100 47 4 10 15 20 7 9 4 30 40 38 34 44 7 1 5 5 5 2 3 3 0 0 0 0 0 0 0 0 0 0 0 0 0 1
90 8 21 61 100 100 100 100 66 21 6 5 5 10 5 0 1 22 29 32 26 5 5 5 5 5 5 0 0 0 0 0 0 0 0 0 0 0 0 0 0 0 4
71 26 8 20 89 100 100 98 91 24 5 5 5 5 5 4 5 6 19 19 2 5 4 5 5 5 3 0 0 0 0 0 0 0 0 0 0 0 0 0 0 0 0
100 100 75 8 21 73 100 74 74 38 35 7 9 19 5 5 5 34 9 6 2 2 5 6 5 0 0 0 0 0 0 0 0 0 0 0 0 0 0 0 0 0 0
100 100 100 96 23 33 60 97 100 79 39 9 6 38 8 5 36 5 5 1 1 4 1 0 6 5 5 5 4 4 3 2 0 0 0 0 0 0 0 0 4 5 7
100 100 100 100 100 100 100 100 100 100 96 44 60 75 53 12 5 5 5 5 27 16 18 100 99 8 5 5 5 5 4 4 5 1 0 0 0 0 0 0 0 0 5
100 100 100 100 98 100 100 100 84 82 98 44 49 52 5 5 20 5 5 12 100 100 100 100 100 5 5 5 5 5 0 3 5 0 0 0 0 0 0 0 0 0 0
100 100 100 100 100 100 100 100 100 100 79 96 74 100 21 5 41 5 5 48 67 100 71 99 100 48 5 9 5 5 5 5 5 0 0 0 0 0 0 0 0 0 0
100 100 100 100 100 100 100 100 100 100 100 98 100 47 49 26 28 13 13 88 61 99 98 100 100 98 27 64 14 5 5 41 5 5 4 4 2 0 0 0 0 0 0
8 75 93 100 100 100 98 49 53 84 100 100 100 100 99 94 100 92 76 84 99 100 100 100 100 100 100 96 65 14 5 64 85 5 5 5 5 5 0 0 0 0 0
22 91 100 100 100 100 95 82 78 66 90 94 100 100 70 27 97 100 95 60 53 96 100 100 100 100 100 100 100 98 70 66 41 5 5 33 30 5 5 5 5 5 4

GFSSE_prec_cloud_033.txt.gz
Cloud_Cover
0 8 38 100 94 78 50 5 2 2 1 56 84 94 59 48 5 5 5 3 0 0 1 41 29 37 94 94 1 0 3 5 0 0 0 0 1 7 0 0 0 0 0
0 2 100 100 98 2 78 5 59 5 52 72 96 100 100 26 4 0 0 0 0 2 5 92 44 29 0 0 0 0 0 0 0 0 0 0 0 0 0 0 0 0 3
0 3 96 100 100 100 68 55 73 4 10 41 37 36 48 11 1 0 0 0 0 32 97 99 100 0 0 0 0 0 0 0 0 0 0 0 0 0 0 0 0 0 0
0 4 0 100 100 91 97 17 12 11 71 45 2 9 32 0 0 0 0 0 0 1 100 100 33 9 0 0 0 0 0 0 0 0 0 0 1 3 0 0 0 0 0
3 0 0 100 100 88 4 81 2 1 38 65 10 5 15 0 0 0 0 4 15 56 16 12 2 0 0 0 0 4 0 0 0 0 0 0 2 18 1 0 7 0 0
10 5 3 100 100 100 5 5 5 5 36 100 24 0 0 0 0 0 0 0 0 0 0 0 0 0 0 1 6 0 0 0 0 0 0 0 1 3 0 0 20 5 1
12 3 13 100 100 48 5 5 5 5 52 100 55 4 0 0 0 2 4 2 3 0 0 0 1 0 8 18 0 0 0 0 0 0 0 0 0 4 8 1 1 13 92
20 15 70 99 34 6 5 3 2 0 0 96 11 8 16 6 0 0 0 9 3 3 1 2 3 8 0 0 0 0 0 0 0 0 0 0 0 0 0 0 5 19 38
37 31 19 20 5 5 5 4 3 79 47 61 47 5 5 5 1 2 4 12 8 10 4 5 22 0 0 0 0 0 0 0 0 0 0 0 0 0 0 1 20 50 100
51 20 8 9 9 8 5 12 5 5 22 5 0 0 0 0 2 1 0 0 0 2 1 16 0 0 0 0 0 0 0 0 0 0 0 0 0 0 14 17 66 97 88
90 62 47 35 18 5 5 5 5 5 7 92 5 1 30 4 5 5 3 0 1 8 39 0 0 0 0 0 0 0 0 0 0 0 0 0 2 55 96 91 83 38 93
100 100 100 99 72 66 40 39 5 76 49 84 55 4 5 4 5 4 5 5 3 6 5 3 0 0 0 0 0 0 0 0 0 0 0 9 94 6 8 2 6 0 0
100 100 100 100 100 100 99 67 27 72 91 99 85 8 19 5 5 31 17 32 5 9 5 5 5 5 0 0 0 0 0 0 0 0 0 34 58 94 0 0 0 0 0
100 100 100 100 100 100 59 8 5 97 98 77 100 66 63 83 27 51 46 42 25 11 5 5 5 5 5 5 0 0 0 0 0 0 0 0 0 0 0 0 0 0 0
100 100 100 100 100 100 100 65 23 37 76 87 84 71 13 41 52 61 58 48 39 9 5 5 4 5 5 5 0 0 0 0 0 0 0 0 0 0 0 0 0 0 0
11 50 100 100 100 100 100 100 60 13 17 62 6 23 5 5 53 56 58 50 36 5 5 5 3 5 5 5 5 0 0 0 0 0 0 0 0 0 0 0 0 0 0
5 2 4 52 100 100 100 100 100 48 3 2 0 2 4 5 48 46 56 55 18 0 2 5 5 5 5 5 5 0 0 0 0 0 0 0 0 0 0 0 0 0 0
5 5 0 34 94 100 100 100 100 100 31 32 18 2 5 5 5 5 45 39 9 5 4 5 5 4 5 5 0 0 0 0 0 0 0 0 0 0 0 0 0 0 0
8 5 5 5 24 86 100 100 100 100 82 31 97 50 38 10 8 19 23 22 6 0 0 2 4 4 5 4 2 0 0 1 0 0 0 0 0 0 0 0 0 0 0
84 75 55 21 13 28 91 100 100 100 100 95 47 84 95 69 41 74 74 95 8 3 3 5 5 4 5 5 0 1 5 5 0 2 5 0 0 0 0 0 0 0 0
100 100 100 100 100 100 86 100 100 100 100 100 92 18 79 100 92 67 5 13 5 5 5 5 5 36 71 5 5 5 5 5 3 0 5 0 5 0 0 0 0 0 0
87 97 100 100 100 100 100 100 100 100 100 100 100 84 45 25 30 36 49 76 77 68 46 61 19 94 100 12 5 5 5 5 5 5 5 5 1 0 4 5 0 5 0
100 100 100 100 100 100 100 100 100 100 100 100 100 100 100 87 52 19 18 85 98 81 98 99 100 100 100 99 43 56 100 72 13 6 5 5 5 4 5 5 5 5 5
99 100 100 100 100 100 100 100 100 100 100 100 100 100 100 100 97 99 95 99 100 100 100 100 100 100 100 100 100 100 100 100 100 94 54 50 9 5 5 5 5 5 23
98 99 100 100 100 100 100 100 100 100 100 100 100 100 100 100 100 100 80 99 100 100 100 100 100 100 100 100 100 100 100 100 100 100 81 99 100 71 38 6 7 5 8
5 5 9 92 83 47 40 72 61 81 95 100 100 100 100 100 100 100 100 100 100 85 100 100 100 100 100 100 100 100 100 100 100 100 100 100 100 69 44 47 5 5 5

GFSSE_prec_cloud_036.txt.gz
Cloud_Cover
5 4 5 50 1 5 5 4 0 1 4 61 1 28 16 96 32 27 10 5 5 5 12 58 1 38 8 0 0 1 0 0 0 0 0 2 5 0 0 0 0 0 0
0 0 0 55 99 97 0 4 3 0 12 4 90 98 98 33 2 5 0 1 1 0 4 88 34 5 0 0 0 0 0 0 0 0 0 0 0 0 0 0 0 0 0
0 0 0 86 84 17 0 99 5 0 0 84 12 78 92 23 0 0 0 0 22 30 92 63 22 0 0 0 0 0 0 0 0 0 0 0 0 0 0 0 0 0 0
0 3 5 80 37 3 8 82 0 28 72 90 50 0 4 2 0 0 0 2 30 66 99 100 3 0 0 0 0 0 0 0 0 0 0 0 0 0 0 0 0 0 0
0 0 4 99 100 100 85 17 0 74 100 64 2 6 0 0 0 0 2 2 24 26 78 43 0 2 0 0 2 0 0 0 0 0 0 16 77 5 0 41 26 11 0
0 0 2 100 100 100 100 96 46 97 100 100 7 2 0 3 0 4 15 0 0 0 0 0 0 0 0 4 10 0 0 0 0 0 0 5 99 1 4 0 14 32 48
5 1 4 100 100 91 91 5 81 52 49 99 0 0 0 1 5 5 5 5 3 1 2 5 5 5 6 4 0 0 0 0 1 0 11 3 27 5 0 0 20 35 82
27 5 5 100 100 93 0 5 0 1 41 98 79 0 0 0 0 0 0 3 4 4 5 6 6 4 3 0 0 0 0 0 1 3 1 0 0 0 0 0 23 18 46
39 69 35 93 77 64 9 5 4 0 1 100 100 4 0 0 0 0 0 1 2 1 1 25 8 0 0 0 0 0 0 0 0 0 0 0 0 0 0 30 23 9 87
18 5 5 7 29 5 5 5 5 87 2 89 100 56 8 4 3 1 0 0 0 4 2 20 5 0 0 0 0 0 0 0 0 0 0 0 0 1 88 98 46 98 40
41 68 55 10 20 5 5 8 5 10 12 66 5 23 70 0 0 0 0 0 0 0 11 0 0 0 0 0 0 0 0 0 0 0 0 2 48 66 96 63 65 80 4
100 72 7 5 5 5 5 5 5 5 5 5 6 20 11 2 5 5 0 0 0 0 5 5 5 3 2 0 0 0 0 0 0 0 0 26 3 61 30 6 11 0 0
100 100 91 23 27 47 49 83 64 100 100 100 100 94 88 18 15 20 5 1 3 21 23 3 5 5 5 5 1 0 0 0 0 0 0 82 38 34 0 0 0 0 0
100 100 100 100 44 77 96 100 97 51 63 99 77 100 94 40 99 59 74 67 11 3 4 5 1 5 5 5 5 3 0 0 0 0 10 0 0 0 0 0 0 0 0
79 100 100 100 74 91 71 60 87 65 73 91 62 78 25 12 46 41 100 100 99 13 0 5 2 4 0 2 0 0 5 0 0 0 0 0 0 0 0 0 0 0 0
99 58 94 100 100 100 100 95 22 30 6 3 78 22 84 5 5 14 74 100 100 37 0 0 5 5 5 4 0 5 0 0 0 0 0 0 0 0 0 0 0 0 0
72 93 88 56 50 97 96 100 99 41 13 3 2 29 57 23 5 6 41 100 100 73 10 2 0 1 5 5 4 5 3 0 0 0 0 0 0 0 0 0 0 0 0
6 52 80 92 58 39 100 100 100 100 49 36 18 5 6 6 5 5 14 97 78 63 7 5 5 5 5 5 5 5 5 2 0 0 3 0 0 0 0 0 0 0 0
5 5 5 4 3 5 26 100 100 100 100 27 36 15 5 25 5 5 10 39 99 72 5 6 5 6 58 43 5 5 5 5 5 3 1 0 0 0 0 0 0 0 0
22 5 3 3 4 5 4 100 100 100 100 100 61 58 31 35 39 18 65 36 31 51 6 31 70 52 29 72 55 6 5 7 5 5 5 5 5 4 0 0 0 0 0
5 78 100 16 5 5 5 97 100 100 100 100 100 55 67 81 99 100 41 5 5 27 21 47 97 97 98 100 100 27 25 95 100 100 29 15 5 5 5 5 4 4 0
100 100 100 100 100 100 90 21 7 70 100 100 100 100 100 100 99 47 98 83 48 76 57 86 95 72 98 90 100 100 96 89 100 100 100 98 56 66 78 69 84 8 4
76 100 100 100 100 100 100 100 97 60 100 100 100 100 94 60 94 100 96 99 80 66 90 98 100 99 56 84 100 100 100 100 100 100 100 100 100 100 100 100 100 78 17
15 82 100 100 100 100 100 100 100 100 100 98 50 62 74 100 97 96 98 100 100 100 100 100 100 88 56 100 100 100 100 100 100 100 100 100 100 100 100 100 100 100 89
48 8 85 100 100 100 100 100 100 100 100 100 100 100 100 99 100 100 100 100 100 100 100 100 100 100 100 100 100 100 100 100 100 100 100 100 100 100 100 100 100 100 100
6 23 47 98 100 100 98 70 62 79 74 85 100 100 100 100 100 100 100 100 82 100 100 100 100 100 100 100 100 100 100 100 100 100 100 100 100 100 100 100 100 100 100

GFSSE_prec_cloud_039.txt.gz
Cloud_Cover
0 3 0 0 22 95 2 4 0 5 5 5 5 3 21 75 2 0 5 6 31 64 46 15 24 20 5 0 0 0 0 7 0 50 50 0 1 0 0 0 0 6 0
0 0 0 0 0 2 0 0 23 0 3 2 78 22 7 58 0 0 1 2 4 5 21 20 5 5 0 0 0 0 0 0 0 0 0 0 0 0 0 0 0 0 0
0 0 0 27 28 6 0 42 0 0 2 100 54 81 15 7 0 0 0 8 7 8 30 37 0 0 0 0 0 0 0 0 0 0 0 0 0 0 0 0 0 0 0
0 0 0 2 74 0 0 44 0 6 74 92 66 1 0 0 0 0 0 18 72 52 98 85 0 0 0 0 0 0 0 0 0 0 4 14 16 0 3 13 0 0 0
4 1 0 79 0 0 0 4 32 100 100 97 54 0 0 0 0 0 0 36 27 92 100 32 0 0 0 1 0 0 1 4 2 3 20 26 73 0 13 3 6 7 0
4 4 2 2 12 20 100 15 81 100 100 100 9 0 0 0 0 0 0 0 0 0 0 0 0 0 0 7 0 0 0 2 5 20 36 8 60 9 0 0 22 7 72
0 0 8 96 100 100 100 87 74 56 100 100 1 0 0 0 1 0 0 0 0 0 0 0 0 0 3 0 0 5 5 5 13 20 29 53 1 4 0 7 29 82 96
0 7 20 100 100 89 100 66 14 28 88 100 78 0 0 0 0 0 0 0 0 0 0 2 13 0 0 4 2 5 5 5 30 20 4 2 0 0 0 2 15 30 99
29 5 10 52 100 100 6 11 5 5 9 100 100 12 0 0 0 0 1 0 0 4 8 20 0 0 0 0 1 3 0 1 0 0 3 0 0 0 2 18 15 0 23
79 99 91 92 97 96 62 11 5 5 5 100 100 21 1 0 0 0 0 0 0 0 2 1 0 0 0 0 0 0 1 4 0 3 5 1 0 2 48 24 23 73 15
22 13 10 14 5 5 5 8 5 16 5 52 100 100 7 0 0 0 0 1 2 1 17 0 0 1 4 0 4 4 0 0 0 0 0 0 27 72 73 76 70 60 12
17 31 31 6 5 18 22 40 5 5 24 23 100 36 10 5 5 42 27 5 3 4 9 13 5 3 3 5 0 0 0 0 0 0 0 0 22 59 15 12 0 0 0
100 48 58 88 53 6 5 6 5 5 5 11 10 14 44 95 100 72 25 35 25 47 26 15 4 2 2 5 3 0 0 0 0 0 0 0 18 5 0 0 0 0 0
85 100 100 51 18 10 2 5 5 15 42 70 99 100 84 47 66 53 23 7 5 5 19 0 0 0 0 2 5 3 0 0 0 0 0 10 8 0 0 0 0 0 0
8 85 100 93 22 24 12 60 80 99 100 100 97 98 88 29 51 76 59 61 20 21 4 1 0 3 5 4 4 2 0 0 0 1 1 27 0 0 0 0 0 0 0
83 87 86 100 88 60 97 96 83 84 88 73 70 48 40 11 15 24 59 100 100 10 24 5 2 0 5 4 5 5 3 3 4 0 0 0 0 0 0 0 0 0 0
100 100 100 76 98 92 99 99 72 61 46 33 30 5 44 9 12 21 62 70 100 100 25 7 5 3 0 1 4 5 5 5 5 5 5 5 2 2 2 0 0 0 0
95 97 100 100 100 100 100 77 100 61 56 25 23 45 14 1 5 5 13 5 87 100 86 38 5 5 5 5 29 24 5 47 42 5 5 5 5 5 4 0 0 0 0
99 100 100 100 100 100 96 70 100 100 91 13 51 26 31 34 5 5 5 5 9 77 100 23 5 5 58 42 30 53 23 49 11 65 68 20 57 51 73 94 5 3 3
4 10 36 38 93 35 5 15 52 100 100 100 16 25 29 14 15 24 27 5 65 29 91 41 5 5 13 7 25 74 65 97 100 91 66 96 100 100 100 79 89 5 4
3 5 5 5 5 48 5 1 5 5 75 100 100 5 85 78 58 40 31 12 11 81 100 98 78 53 90 39 40 25 85 100 100 68 98 98 100 100 100 100 87 100 77
26 25 41 94 6 5 5 72 50 25 52 100 100 100 13 5 33 67 100 98 100 100 92 89 50 80 91 66 15 32 9 34 90 22 47 100 100 100 100 100 100 100 100
100 100 100 96 55 7 8 22 12 5 1 5 42 100 100 66 38 97 84 68 78 93 73 35 73 58 18 44 56 43 76 80 100 99 88 100 100 100 100 100 100 100 100
100 100 100 100 99 61 24 5 5 5 5 60 86 46 13 26 10 80 100 100 100 99 100 100 100 100 100 100 99 100 100 100 100 100 100 100 100 100 100 100 100 100 100
91 86 89 100 100 100 72 100 82 62 96 100 97 91 76 51 35 54 100 100 100 100 100 100 100 100 100 100 100 100 100 100 100 100 100 100 100 100 100 100 100 100 100
100 100 100 98 95 70 56 98 100 93 100 100 100 99 75 35 53 90 100 100 100 100 100 75 74 93 100 100 100 100 100 100 100 100 100 100 100 100 100 100 100 100 100

GFSSE_prec_cloud_042.txt.gz
Cloud_Cover
0 0 2 3 1 0 0 0 0 0 0 62 25 1 19 68 5 5 5 0 0 1 2 4 5 5 5 3 4 1 0 92 0 90 60 6 0 0 0 0 0 0 0
0 0 0 0 0 0 0 0 0 0 43 2 54 5 1 28 0 0 0 0 0 5 15 0 0 0 0 0 0 0 0 0 0 0 0 0 0 0 0 0 0 0 0
0 0 0 0 0 0 0 0 0 71 52 100 58 79 0 0 0 0 2 4 0 92 88 4 0 0 0 0 0 0 0 0 0 0 0 1 0 1 0 0 0 0 0
0 0 0 4 0 0 0 0 0 64 68 100 47 18 0 0 0 0 24 92 32 34 56 0 0 0 0 0 0 0 0 0 0 11 100 94 0 14 48 3 0 0 0
0 0 0 22 0 0 0 0 1 58 89 100 20 0 0 0 0 0 78 83 74 100 59 0 0 0 0 0 0 0 0 0 7 16 1 45 32 3 1 3 22 2 6
0 0 0 59 0 32 2 0 31 93 97 100 52 0 0 0 0 2 25 14 0 0 0 0 0 0 0 0 0 0 0 0 0 100 99 4 0 0 0 25 89 82 100
2 5 5 4 24 66 38 0 23 100 97 100 0 0 0 0 0 10 2 0 0 0 0 0 0 0 0 0 0 0 0 0 0 99 2 4 0 0 0 6 12 88 97
3 5 5 12 87 82 100 91 53 66 100 99 79 0 0 10 0 0 0 1 0 0 0 3 1 0 0 0 0 0 0 1 51 0 0 0 0 0 7 5 15 22 32
5 4 11 95 100 99 100 100 100 4 39 100 91 3 5 5 4 5 5 0 0 0 5 4 0 0 0 0 0 0 1 0 0 4 0 0 0 0 10 20 19 13 0
0 12 95 87 48 9 2 6 37 100 100 100 100 60 56 9 5 5 0 2 4 0 3 0 5 3 5 5 0 5 5 0 1 0 0 0 0 12 81 47 18 2 0
0 1 92 100 93 95 100 94 29 12 56 48 100 56 5 5 5 4 1 4 4 0 5 5 29 5 5 5 5 2 4 0 0 0 0 0 11 93 89 74 10 29 2
0 0 2 10 8 5 5 5 5 3 5 5 26 14 7 5 5 2 3 5 5 5 5 5 5 5 8 6 5 4 0 0 0 0 0 0 33 35 16 2 0 0 0
20 37 14 5 5 5 11 9 6 53 37 25 5 6 5 5 1 4 5 5 7 6 5 5 41 6 1 5 4 3 0 0 0 2 0 3 13 20 0 0 0 0 0
60 62 39 38 30 18 5 5 5 5 6 73 16 5 5 4 5 5 5 5 7 6 5 5 15 10 5 0 0 0 0 0 0 0 0 0 6 0 0 0 0 0 0
38 75 54 100 100 51 78 52 51 54 27 5 5 5 5 7 29 62 39 70 42 58 42 9 8 5 1 0 0 0 0 4 1 2 2 5 5 4 5 2 5 2 4
5 20 37 91 22 34 45 91 49 45 36 5 6 73 93 98 76 36 20 46 13 5 5 5 0 2 0 0 0 0 0 0 1 5 5 5 5 5 5 5 5 5 3
18 42 34 8 37 100 100 100 88 52 77 83 100 100 40 63 26 45 7 36 5 67 5 20 5 5 5 5 5 4 5 5 5 5 5 5 5 5 5 5 5 5 5
100 100 100 100 100 100 100 100 100 100 100 100 100 100 87 73 7 5 8 4 1 5 16 24 18 5 5 17 74 82 58 11 86 43 50 85 6 5 25 100 100 73 99
100 100 100 100 100 100 88 99 94 91 100 100 100 100 85 6 5 5 5 6 2 5 7 90 100 7 50 56 100 91 83 45 5 67 79 96 91 99 93 83 93 71 100
100 100 100 100 100 100 90 100 100 100 99 81 60 7 80 37 53 2 0 0 0 0 5 7 96 80 100 99 72 100 100 99 94 100 51 12 6 6 26 5 42 100 100
100 100 100 100 100 95 66 41 66 6 5 5 1 1 5 74 86 5 3 5 2 0 5 5 27 67 58 52 81 100 97 98 100 100 100 77 10 6 71 92 70 100 100
100 100 100 95 63 85 53 7 9 12 77 5 5 5 16 4 25 8 2 5 5 5 28 75 91 99 85 18 5 11 30 72 93 26 56 62 100 100 100 100 100 100 100
60 13 5 5 32 5 35 97 84 85 98 100 8 5 5 1 0 0 38 22 17 5 17 21 40 96 96 97 94 62 74 100 100 100 100 100 100 100 100 100 100 100 100
100 84 97 87 72 91 66 57 23 87 55 13 88 9 5 1 1 3 0 30 99 79 95 84 50 100 100 100 80 99 100 99 100 100 100 100 100 100 100 100 100 100 100
100 100 100 100 95 100 100 100 82 11 5 5 5 5 96 89 27 34 6 8 100 100 98 6 7 25 12 16 65 63 90 100 100 100 100 100 100 100 100 100 100 100 100
100 100 100 100 100 100 99 28 24 91 16 5 5 5 5 52 85 100 100 46 82 100 100 100 100 78 100 98 96 81 100 100 69 97 100 80 100 100 100 100 100 100 100

GFSSE_prec_cloud_045.txt.gz
Cloud_Cover
21 0 0 3 3 5 5 5 4 2 0 7 8 1 5 2 0 0 0 0 13 7 2 0 2 0 0 0 0 0 1 30 32 2 0 0 0 5 0 0 0 0 1
5 5 3 0 1 2 5 1 0 0 0 2 32 83 0 0 0 0 0 0 0 20 0 0 0 0 0 0 0 0 0 0 0 0 0 0 0 0 0 0 0 0 0
0 0 3 2 0 0 0 0 0 0 0 0 83 0 0 0 0 0 11 1 74 20 0 0 0 0 0 0 0 0 0 0 0 0 0 0 10 17 0 0 0 0 0
0 0 0 0 0 0 0 0 0 1 51 84 15 0 0 0 0 55 70 3 36 19 0 0 0 0 0 0 0 0 0 0 1 3 0 0 0 17 65 4 14 0 0
0 0 0 0 0 0 0 0 0 84 46 8 1 0 0 0 2 82 69 90 98 14 0 0 0 0 0 0 0 0 0 0 0 13 1 0 0 4 5 40 49 12 2
0 0 24 52 0 0 0 0 65 66 100 11 0 0 0 0 2 93 74 30 16 13 0 0 0 0 0 0 0 0 0 0 1 0 0 0 0 0 26 70 98 86 100
0 0 0 21 0 6 21 0 100 100 91 97 0 0 0 5 5 20 26 0 1 1 1 0 0 0 0 0 0 0 0 0 0 0 0 1 2 3 3 21 14 70 58
0 0 0 0 1 100 88 15 95 78 81 58 0 0 0 1 1 0 2 4 5 5 3 0 0 0 0 0 0 0 0 0 3 4 4 5 4 0 17 13 0 0 1
0 0 0 0 21 100 100 100 97 87 17 61 5 5 5 5 5 5 2 3 2 1 3 0 0 0 0 0 0 4 4 5 5 5 0 5 0 5 26 99 95 16 8
5 3 0 0 86 98 89 84 41 10 5 0 2 24 98 97 79 5 5 4 5 5 10 5 0 2 2 5 5 0 5 5 5 5 5 0 0 100 75 43 35 1 2
1 5 5 5 5 5 13 83 100 100 100 96 37 92 5 5 5 5 5 5 2 0 0 0 1 5 5 5 5 5 1 4 5 5 2 0 4 92 100 34 23 0 0
5 5 5 2 4 5 18 98 100 100 100 60 44 32 5 5 3 3 5 5 5 2 0 1 5 4 5 5 5 5 5 5 0 3 0 0 0 18 35 5 0 0 1
5 5 5 5 1 0 0 2 11 90 88 64 29 18 28 5 5 5 10 5 6 5 1 5 5 5 5 5 6 5 0 0 0 0 0 0 3 90 4 5 5 5 5
15 23 6 5 7 8 5 5 5 5 5 19 22 5 5 5 5 5 5 9 22 20 6 5 5 5 5 7 5 0 0 0 0 1 5 1 0 2 0 5 5 3 5
32 70 100 83 20 12 6 8 9 34 16 5 5 5 5 5 5 5 5 6 5 16 21 5 34 73 12 1 0 0 0 0 2 5 5 5 17 84 37 3 6 49 5
100 89 38 98 100 90 48 72 59 42 69 45 20 5 5 5 26 78 93 96 95 53 82 84 39 8 5 5 5 4 5 5 5 10 17 75 57 100 100 15 12 14 55
88 100 100 100 88 100 100 100 96 49 8 5 10 68 50 76 100 100 100 100 100 57 16 8 5 5 5 62 69 85 24 5 5 28 100 100 32 91 98 99 66 99 100
55 69 78 100 100 100 33 19 88 100 100 100 76 100 100 100 100 100 100 100 89 62 8 3 2 3 5 70 73 46 46 5 7 99 100 100 100 100 100 100 79 83 84
100 100 99 100 100 100 100 99 100 100 100 100 100 100 100 100 100 100 95 38 5 0 2 7 2 5 10 56 21 5 5 8 12 27 99 100 100 81 13 8 70 96 98
100 100 100 100 100 97 100 100 100 100 100 100 100 100 100 96 98 8 5 5 72 21 5 0 1 5 5 35 10 5 5 4 5 5 5 87 75 94 48 18 76 55 41
100 100 100 100 100 100 91 63 100 100 100 100 100 100 100 100 34 95 100 99 13 5 5 5 5 5 8 57 100 35 5 10 57 100 37 5 94 100 100 100 100 100 100
100 100 100 100 100 100 100 100 100 100 100 100 100 100 100 66 97 56 73 93 6 0 1 0 2 6 24 62 74 53 35 72 100 100 100 100 100 100 100 100 100 100 100
100 100 100 100 100 100 100 100 100 100 100 100 87 11 17 5 5 5 5 3 17 46 26 4 5 65 100 100 100 89 64 27 53 100 100 79 29 11 53 100 100 100 100
99 100 100 100 100 100 100 100 100 100 98 18 61 91 100 47 5 0 0 3 5 0 7 34 60 78 70 97 44 81 52 12 5 5 44 80 65 96 100 100 94 99 100
100 100 100 100 100 100 100 100 99 38 5 6 96 88 97 55 5 0 0 0 12 5 5 5 15 100 50 18 80 100 100 57 63 51 50 94 100 99 99 100 99 83 98
100 100 100 100 100 100 100 81 44 25 100 98 9 5 5 6 6 5 2 5 4 9 20 85 100 100 100 96 74 81 97 74 76 78 72 97 100 100 100 100 96 96 62

GFSSE_prec_cloud_048.txt.gz
Cloud_Cover
49 11 0 0 0 4 5 5 5 5 5 11 81 16 5 5 0 0 0 13 8 6 0 0 1 0 8 2 0 0 0 0 0 0 0 0 0 0 0 0 0 0 0
30 6 0 0 0 0 5 5 5 5 5 3 19 15 10 0 0 0 0 22 18 0 0 0 0 0 0 0 0 0 0 0 0 0 0 0 0 0 0 0 0 0 0
8 0 0 0 0 4 2 5 5 5 3 0 1 0 0 0 0 3 1 6 99 4 0 0 0 0 0 0 0 0 0 0 0 0 0 0 50 0 0 0 0 0 0
0 5 13 2 5 39 5 3 5 0 0 0 0 0 0 0 12 12 3 54 21 0 0 0 0 0 0 0 0 0 0 0 0 0 0 0 0 62 6 23 0 1 2
0 0 15 4 14 5 3 5 0 0 0 0 0 0 0 0 2 14 14 100 98 0 0 0 0 0 0 0 0 0 0 0 0 0 0 0 0 15 48 7 34 6 40
0 0 0 0 5 5 0 0 0 0 0 0 0 0 0 34 51 54 68 100 34 0 0 0 5 5 5 5 4 0 0 0 0 0 0 0 0 22 36 70 24 76 74
0 0 0 0 1 0 0 0 0 0 0 0 0 0 0 2 94 100 25 8 2 0 1 2 4 3 4 1 0 0 0 0 0 0 0 0 3 7 81 95 24 47 22
0 0 14 3 0 44 0 11 21 0 0 0 0 1 2 2 21 97 18 1 0 0 0 2 0 0 0 0 0 0 0 0 0 0 0 5 5 0 6 33 0 0 14
0 0 0 0 45 100 81 18 92 2 1 0 8 11 5 6 6 5 8 5 5 5 5 5 4 5 3 0 0 0 0 0 0 0 5 5 5 2 15 100 95 6 0
5 4 0 0 1 49 69 98 86 21 0 4 5 14 46 9 2 4 4 0 0 4 0 0 5 5 5 1 0 0 0 0 1 5 5 3 0 48 43 85 99 21 12
5 4 1 3 0 0 4 43 56 5 5 5 5 11 5 36 20 5 5 5 5 8 5 5 5 4 0 0 0 0 4 5 5 5 0 0 16 61 29 77 67 0 2
5 5 5 5 5 5 4 0 5 5 5 5 5 73 98 62 5 5 5 5 5 21 5 5 3 3 2 4 4 5 5 11 3 0 1 0 71 26 40 0 22 1 5
5 5 5 5 5 5 5 9 9 5 29 12 36 97 72 28 9 5 5 5 12 5 5 5 5 3 5 5 9 5 29 5 5 8 4 2 8 8 6 5 5 5 5
9 8 42 39 9 7 5 5 5 5 16 29 6 2 3 5 5 5 21 17 20 30 12 5 5 8 13 48 27 5 5 5 5 7 0 0 0 7 14 5 35 25 15
2 5 5 5 5 5 5 5 5 5 5 10 22 22 24 60 47 5 12 19 22 32 24 33 56 72 100 8 5 5 34 6 5 15 8 3 1 1 38 73 100 66 7
0 4 3 7 6 5 12 13 45 65 31 44 52 63 49 65 13 5 10 22 50 81 100 100 93 100 26 32 59 33 78 75 6 8 6 5 4 5 17 100 100 100 71
5 5 5 5 5 66 84 100 100 100 99 100 100 100 70 75 100 99 83 100 100 100 100 100 100 68 5 92 73 100 90 80 75 13 39 5 5 8 74 71 60 56 99
83 100 100 81 31 8 5 10 11 49 62 37 73 54 100 94 100 100 100 100 100 100 100 100 71 47 7 5 8 74 42 24 15 8 5 5 5 5 5 5 5 87 100
52 84 100 100 100 100 100 100 100 100 100 89 98 98 100 87 77 100 100 100 100 100 100 75 12 5 5 5 3 4 3 4 5 5 35 55 89 59 7 5 5 5 65
9 9 72 100 100 100 100 100 72 100 100 100 100 100 100 100 76 100 100 100 100 100 100 52 14 5 6 5 3 11 25 7 6 74 86 99 85 100 100 100 100 93 98
100 77 35 5 34 95 100 100 98 65 96 100 100 100 100 100 100 100 100 100 100 70 33 5 5 5 5 5 82 100 99 12 100 100 94 100 100 100 100 100 100 100 100
100 100 100 100 100 100 100 100 100 100 100 100 100 100 100 100 100 100 100 100 87 13 19 25 5 5 5 2 24 77 100 26 51 5 5 5 22 8 11 12 19 7 51
100 100 100 100 100 100 100 100 100 100 100 100 100 100 100 100 100 100 100 100 100 45 5 5 2 5 0 1 5 57 12 19 45 53 54 54 16 55 100 100 100 100 100
100 100 100 100 100 100 100 100 100 100 100 100 100 100 100 93 35 20 8 11 7 5 5 4 4 0 21 27 10 75 97 65 50 70 89 93 86 78 100 100 100 100 100
100 87 99 100 100 100 100 100 100 100 100 100 100 100 100 100 82 67 36 5 27 31 5 2 2 18 15 34 85 100 100 68 99 58 76 45 48 78 72 88 100 100 100
100 99 98 77 99 85 83 77 85 88 86 71 42 74 94 100 98 100 99 34 8 17 28 16 5 9 18 94 99 99 99 82 97 100 83 54 93 100 100 100 100 100 100

GFSSE_prec_cloud_051.txt.gz
Cloud_Cover
45 13 0 0 0 0 0 1 1 5 4 48 86 38 5 13 69 5 10 6 9 0 0 5 10 90 3 67 2 1 0 0 0 0 0 0 0 0 0 0 0 0 21
33 27 0 0 9 0 0 0 0 2 5 23 20 18 5 0 1 0 9 88 0 0 0 0 8 9 0 0 0 0 0 0 0 0 0 0 0 0 0 0 0 0 97
52 6 0 0 0 0 0 2 5 5 15 9 11 5 0 0 0 0 16 60 4 0 0 0 0 0 0 0 0 0 0 0 0 0 0 42 0 0 0 0 0 1 0
21 6 6 0 5 5 5 5 3 44 12 5 5 4 0 0 1 0 12 15 0 0 0 0 0 0 0 0 0 0 0 0 0 0 0 0 4 10 22 1 3 14 5
25 27 10 3 4 5 5 5 14 2 4 18 5 0 0 0 2 2 58 26 0 0 0 0 0 0 0 0 0 0 0 0 0 0 0 0 0 19 8 21 8 7 30
32 13 4 5 5 5 5 8 6 5 2 2 3 0 0 66 15 82 42 50 0 0 0 0 0 0 0 0 0 0 0 0 0 0 0 0 0 22 17 21 32 94 91
28 8 1 8 99 36 5 5 5 5 0 5 0 0 6 62 68 97 97 85 0 0 0 0 0 0 0 0 0 0 1 0 0 0 0 0 12 66 96 72 32 40 31
3 3 0 4 15 6 5 5 5 5 4 0 0 0 0 73 91 100 28 17 0 0 0 4 2 0 0 0 0 0 0 0 0 0 0 0 1 13 7 28 2 0 1
0 0 2 0 0 0 0 5 14 6 3 0 0 0 0 6 69 100 53 29 15 4 4 6 2 0 0 0 0 0 0 0 0 0 0 1 5 7 26 97 100 19 7
5 0 0 0 19 92 3 24 100 0 0 0 0 0 0 0 0 36 5 5 16 6 5 2 2 0 0 0 2 0 0 0 0 0 0 5 6 62 49 46 100 20 11
4 1 0 0 0 16 0 55 100 3 0 0 0 0 0 0 1 5 14 14 5 5 5 5 5 5 3 2 1 2 0 5 5 5 1 1 3 97 49 90 87 11 4
5 5 3 4 2 1 4 11 73 4 0 0 0 0 0 0 5 5 5 32 93 34 43 5 5 5 5 0 1 5 6 16 8 5 0 3 45 100 85 5 1 5 3
5 5 5 5 5 5 5 6 16 30 28 11 3 0 0 1 5 5 24 51 20 6 5 4 5 5 5 5 5 5 17 5 5 3 1 5 12 42 4 5 5 5 5
5 5 5 5 5 5 5 12 11 21 38 31 5 5 5 14 9 11 18 12 26 30 27 5 4 5 5 5 5 24 41 7 5 12 5 5 5 16 92 14 0 5 5
5 5 5 15 44 6 5 5 5 14 23 26 15 5 5 5 5 5 7 16 25 25 32 20 14 64 36 32 48 41 100 100 84 62 70 7 5 5 4 2 5 7 5
5 5 5 19 59 7 5 5 5 5 5 24 27 5 5 5 9 6 8 12 22 32 27 33 83 100 99 98 50 48 54 31 56 94 13 80 5 5 5 5 5 18 26
61 8 5 6 46 18 15 5 5 5 15 23 9 7 5 12 35 6 8 17 91 100 100 79 89 100 89 88 5 7 5 24 5 51 40 10 32 5 5 5 6 20 54
11 53 5 13 8 5 5 32 38 46 38 8 5 5 45 97 94 21 97 97 81 86 83 99 100 100 95 5 5 5 5 5 54 7 17 68 5 4 5 5 5 12 46
14 5 5 5 5 5 5 5 5 14 45 71 86 72 50 100 92 100 100 100 100 100 100 100 100 94 10 5 5 5 8 5 5 4 1 2 2 6 88 93 25 5 19
100 78 31 11 5 5 5 5 5 70 88 80 64 84 100 100 100 100 100 100 99 97 100 100 100 62 24 5 5 5 50 79 42 5 5 5 5 77 100 100 98 100 100
100 100 39 10 27 5 5 5 5 52 87 100 100 100 98 39 16 37 89 100 100 100 100 100 77 39 9 5 13 5 5 5 22 1 3 5 38 45 56 72 100 100 100
100 100 100 100 85 83 75 76 61 18 36 40 83 100 100 89 98 100 100 100 100 100 100 76 25 5 12 23 30 43 64 11 5 7 5 6 10 27 98 100 100 100 100
100 100 100 100 89 100 100 100 100 100 100 100 100 100 100 100 100 100 100 100 100 100 100 100 82 46 24 76 8 86 100 70 24 62 35 26 43 86 100 69 81 95 100
100 100 100 100 100 96 99 100 100 100 100 100 100 100 100 100 100 100 100 100 100 100 100 99 78 60 69 62 45 32 88 100 100 87 19 96 99 45 5 10 15 20 46
84 100 100 100 100 100 100 100 100 100 100 100 100 94 100 67 39 5 18 38 41 45 47 82 96 92 30 46 98 100 98 100 100 99 100 34 10 32 30 40 18 61 100
49 23 79 100 100 100 100 100 100 100 100 100 100 100 100 100 59 62 71 20 79 86 69 42 48 15 35 47 74 100 100 100 100 100 100 100 100 95 100 90 14 29 67

GFSSE_prec_cloud_057.txt.gz
Cloud_Cover
5 2 0 0 1 0 0 60 98 84 100 16 5 5 14 82 99 39 64 100 60 63 100 100 83 97 37 0 0 0 0 0 0 2 0 0 0 0 0 0 1 11 14
4 12 0 0 1 0 0 1 0 2 6 10 10 0 0 15 90 60 9 5 5 2 16 100 100 54 14 0 0 0 0 0 5 0 0 0 0 0 0 0 5 27 3
7 18 0 0 0 0 0 0 0 0 0 7 14 0 0 7 11 5 3 6 5 5 10 7 45 17 6 8 0 0 0 0 0 0 0 0 16 0 0 3 6 5 11
18 28 11 0 0 0 0 0 0 0 1 0 0 0 0 8 19 20 13 0 5 0 4 0 0 7 4 0 0 0 0 0 0 0 1 7 22 8 2 38 16 9 1
29 22 3 0 0 0 0 0 5 3 0 0 0 0 2 5 18 56 12 5 5 5 0 0 0 0 0 0 0 0 0 0 0 0 36 27 21 33 12 14 5 7 5
37 5 0 0 0 0 0 0 2 0 2 2 5 5 7 5 45 6 34 5 5 5 0 0 0 0 0 0 0 0 0 0 0 0 5 3 50 12 79 31 19 27 44
79 5 2 0 0 0 0 0 0 0 5 5 7 5 32 5 100 99 30 5 5 0 0 0 0 0 0 0 0 0 0 0 1 0 0 10 11 26 43 67 58 5 5
80 57 28 46 0 0 0 3 0 0 9 23 89 79 100 99 100 100 13 5 5 0 3 0 0 0 0 0 0 0 0 0 5 5 0 0 0 1 5 11 16 7 3
93 61 39 24 0 2 0 31 0 4 15 33 90 71 8 85 75 100 91 8 5 0 0 0 0 0 0 0 0 0 1 0 0 0 0 0 0 16 5 1 5 5 3
63 37 30 26 4 20 24 7 58 12 31 78 100 74 42 42 66 97 88 5 5 0 0 0 0 0 0 0 0 0 0 0 0 0 0 0 2 95 9 5 5 5 5
75 46 43 30 16 1 12 10 100 100 5 23 66 92 76 54 29 6 5 5 0 0 0 0 0 0 0 0 0 0 1 0 0 1 2 0 5 62 91 5 5 5 5
76 63 60 12 28 1 2 68 100 100 8 5 6 14 17 6 22 5 5 5 0 0 0 0 0 0 5 5 5 5 3 4 5 5 8 5 5 20 63 5 4 5 5
97 86 93 25 11 5 0 16 100 100 4 4 5 5 4 5 5 5 0 0 0 1 25 0 1 5 5 5 5 5 5 5 5 5 5 12 5 60 51 5 5 5 5
100 92 91 31 91 32 9 0 0 0 0 0 0 0 0 0 0 0 0 0 0 0 8 9 4 5 5 5 5 7 5 9 5 5 8 5 7 33 59 5 5 5 5
100 100 100 100 64 80 5 0 0 0 0 0 0 0 0 0 0 0 0 4 4 1 3 4 5 5 5 5 5 12 41 12 13 5 21 6 83 5 5 5 23 5 5
100 100 80 98 34 86 48 5 4 0 1 21 12 0 0 1 1 5 0 4 5 5 5 5 5 5 5 5 36 60 20 61 69 48 22 23 5 5 5 5 6 28 49
100 100 100 100 100 88 84 12 5 5 0 0 12 26 5 5 5 5 5 5 5 5 5 4 5 5 5 5 5 64 76 98 76 84 16 5 12 6 5 5 30 7 76
100 100 100 100 99 82 100 85 13 6 5 1 0 5 16 11 11 5 5 5 5 5 5 5 5 30 9 6 11 92 94 63 100 84 5 8 28 5 9 51 5 5 5
100 100 100 100 100 57 6 88 80 46 34 48 21 10 5 14 7 5 5 5 5 13 8 11 6 5 6 25 92 100 50 97 97 15 20 18 10 17 80 5 5 5 5
100 100 100 100 100 98 99 91 99 99 88 74 58 38 60 57 23 7 5 5 20 40 52 62 23 40 81 30 73 100 100 49 48 81 65 66 78 96 6 5 5 5 5
100 100 100 100 60 70 93 100 100 100 100 100 100 100 89 50 24 34 96 75 59 92 21 5 13 5 37 84 93 92 100 99 100 13 98 100 100 20 6 5 5 5 5
100 100 100 98 77 42 67 100 100 100 100 100 71 82 80 67 89 100 100 100 100 51 30 58 73 41 96 100 67 83 99 99 37 100 100 100 90 62 14 5 5 5 5
100 100 100 100 98 69 74 100 100 100 100 100 100 100 100 100 100 100 100 100 100 99 100 97 82 100 100 100 98 72 93 90 100 100 100 100 97 77 31 10 8 5 5
100 100 100 100 100 100 100 100 100 100 100 100 100 100 100 100 100 100 92 85 100 100 100 100 100 100 100 100 100 100 100 100 100 100 96 100 100 86 91 95 64 82 89
100 100 100 100 100 100 84 99 100 100 100 100 100 100 100 92 56 63 60 100 100 100 100 100 100 100 100 100 100 100 100 100 84 100 100 100 99 100 36 100 6 42 92
100 100 100 100 100 100 100 53 99 100 100 100 100 100 100 96 100 100 100 100 100 100 100 100 100 100 100 100 100 100 97 100 85 100 100 100 99 96 94 5 12 15 26

GFSSE_prec_cloud_060.txt.gz
Cloud_Cover
0 12 0 0 0 0 0 79 68 100 100 10 18 1 4 5 7 55 62 15 7 79 67 18 82 51 5 0 0 0 0 0 0 0 0 0 0 0 0 28 5 4 18
5 15 0 0 0 4 0 0 2 33 5 23 23 0 5 19 15 5 1 1 5 23 100 100 100 73 6 0 0 0 0 3 0 0 0 0 0 0 0 0 0 9 10
5 5 2 1 1 0 0 0 0 0 0 20 0 0 7 15 5 7 0 0 5 91 88 100 100 96 2 0 0 0 0 0 0 0 0 45 1 2 29 10 4 13 5
5 5 6 5 0 0 0 0 0 0 2 0 0 0 3 22 17 33 2 5 5 1 7 27 92 3 0 0 0 0 0 0 0 0 90 100 43 7 23 9 8 5 45
5 5 5 27 9 0 0 0 2 0 0 0 0 0 0 21 47 31 1 5 5 5 5 5 3 0 0 0 0 0 0 0 1 0 67 49 63 68 88 25 10 17 21
5 5 5 12 5 3 0 0 0 0 0 0 0 0 2 29 56 5 5 5 5 5 4 5 5 0 0 0 0 0 0 0 0 0 0 18 99 12 8 6 5 5 10
8 5 17 2 10 2 0 0 0 0 0 0 0 44 5 30 75 37 5 5 5 5 5 5 5 0 0 0 0 0 0 4 0 0 0 0 12 0 5 5 21 8 5
10 51 96 10 53 0 0 0 0 0 0 0 1 98 40 95 100 93 56 11 31 22 5 5 5 0 0 0 0 0 0 5 4 5 0 0 0 6 5 2 5 5 4
15 60 100 36 0 4 0 20 0 0 0 0 0 5 37 98 99 98 64 13 46 10 32 5 5 0 0 0 0 0 3 5 5 5 3 1 4 20 4 5 5 5 5
70 96 100 94 60 32 23 77 1 0 0 0 0 5 5 59 94 32 80 21 5 32 8 5 3 0 0 0 0 2 5 5 5 5 5 2 3 79 3 5 5 5 20
86 99 93 100 100 98 100 88 99 87 0 0 0 2 5 54 36 6 28 33 41 5 5 5 0 0 0 0 0 1 2 5 5 5 3 3 5 8 67 5 5 5 5
99 80 82 95 100 100 69 55 98 100 61 31 0 1 5 37 33 22 6 5 5 5 5 5 0 0 0 0 0 0 5 5 5 5 0 5 5 6 100 7 5 5 5
100 71 38 58 91 96 88 92 100 100 94 48 14 0 4 5 22 11 35 16 5 8 4 2 0 0 0 0 0 0 0 5 4 3 5 5 5 5 94 93 15 27 5
100 97 100 55 66 39 76 66 88 61 20 30 30 7 0 2 5 38 12 5 5 0 0 0 0 0 0 0 0 0 0 0 2 5 5 5 5 5 25 24 36 5 5
100 100 90 65 54 61 55 70 68 47 25 9 31 26 0 0 0 1 4 2 2 1 0 0 1 0 4 5 3 3 5 4 5 5 5 5 5 5 54 78 30 9 43
100 100 75 100 76 67 69 100 47 15 22 20 3 1 0 0 0 0 2 5 5 5 5 5 5 5 5 4 5 5 5 5 5 5 32 5 26 8 9 5 16 55 92
100 100 100 100 75 92 92 99 100 44 18 5 11 5 0 0 0 0 4 5 5 8 11 12 6 5 5 5 5 5 5 5 7 75 100 98 98 98 10 11 90 100 79
100 100 100 100 100 100 87 97 100 100 22 5 36 44 17 6 4 6 5 5 9 16 8 8 11 15 7 13 11 24 22 50 91 100 100 100 100 60 98 42 99 93 20
100 100 100 100 100 100 100 100 100 100 95 23 5 73 100 93 61 7 17 7 36 36 38 18 26 22 31 52 49 16 23 30 55 100 93 100 94 100 72 74 16 5 5
100 100 100 100 100 100 100 100 100 100 99 44 34 41 92 100 94 52 28 22 38 54 26 36 26 64 65 46 54 46 46 49 60 20 41 99 100 97 51 5 5 5 5
12 63 100 100 100 100 100 100 100 100 100 89 98 82 93 100 100 100 35 58 64 71 60 57 100 74 52 67 84 100 100 92 96 73 100 100 86 69 5 5 5 5 5
96 45 97 100 100 100 100 100 100 100 100 97 96 100 100 100 100 100 84 61 74 75 51 65 99 95 100 92 100 100 100 100 100 100 100 98 37 5 14 5 5 5 5
100 100 100 100 100 100 100 100 100 88 70 92 99 96 100 100 100 100 100 100 99 100 100 100 100 100 100 100 100 100 100 100 100 100 100 100 98 60 64 52 15 31 70
100 100 100 86 100 100 100 100 98 99 100 96 97 99 100 100 100 100 100 100 100 100 100 100 100 100 100 100 100 100 100 100 100 100 100 100 100 100 100 88 100 76 97
100 100 100 100 100 100 100 100 100 100 100 100 100 100 100 100 100 100 100 100 100 100 100 100 100 100 100 100 100 100 100 100 100 100 100 100 100 100 100 100 100 12 99
100 100 100 100 100 87 85 100 100 100 100 100 100 100 100 100 100 100 100 100 100 100 100 100 100 100 100 100 100 100 100 100 100 100 100 89 100 100 96 11 5 5 9

GFSSE_prec_cloud_063.txt.gz
Cloud_Cover
4 10 0 0 0 0 0 0 17 27 82 34 0 0 4 8 17 5 5 5 5 10 12 45 23 11 4 0 0 0 0 0 0 0 0 0 0 0 0 0 42 10 9
6 5 1 2 0 0 0 0 0 0 0 0 0 6 38 24 5 0 2 5 5 24 91 87 95 8 0 0 0 0 0 0 0 0 0 0 0 17 0 0 0 8 5
5 12 5 0 0 0 0 0 0 0 0 2 0 10 0 0 4 0 1 1 100 100 85 99 98 81 0 0 0 0 0 0 0 4 54 16 0 22 6 0 0 5 5
5 6 41 0 0 0 0 0 0 2 0 0 0 13 32 5 42 0 0 0 1 5 99 100 83 5 2 5 0 0 0 0 0 99 100 72 58 79 36 13 3 13 27
5 5 10 0 0 0 0 0 12 0 0 0 0 0 33 17 51 0 0 0 5 7 13 16 5 5 5 5 5 0 0 0 0 17 100 76 87 68 63 0 95 20 41
5 5 5 5 0 5 0 0 0 0 0 0 0 0 10 20 13 0 3 5 5 6 5 5 11 5 5 5 5 0 0 0 0 16 28 33 71 13 5 5 5 5 5
5 20 2 5 12 5 3 0 0 0 0 0 0 0 1 44 13 0 5 5 8 5 5 5 5 5 5 5 5 0 0 0 0 0 0 3 10 5 5 5 5 5 6
5 51 11 7 5 5 2 0 0 0 0 0 0 1 98 91 83 5 5 5 50 12 5 8 5 5 5 5 3 0 0 0 0 0 0 0 1 5 5 5 5 5 5
5 30 76 21 25 5 19 0 0 0 0 0 0 4 56 100 86 5 5 5 5 5 14 6 5 5 5 5 5 0 0 0 0 0 0 0 0 5 5 5 5 13 5
73 85 100 97 38 16 18 58 0 0 0 0 0 0 0 0 0 5 5 26 6 5 5 5 5 5 5 5 2 0 0 0 0 0 0 0 0 5 2 5 5 10 5
98 95 100 98 100 82 99 100 60 1 0 0 0 0 20 1 0 6 7 6 11 5 5 26 5 5 5 5 5 0 0 0 0 0 0 0 5 5 27 5 5 6 5
100 100 100 100 100 100 97 23 92 45 22 9 0 0 0 0 0 6 5 5 8 5 5 5 5 6 5 5 5 4 0 0 0 0 0 4 5 5 20 99 7 5 5
100 91 100 100 100 100 100 54 36 100 96 64 25 1 0 0 0 0 5 5 5 5 6 8 56 11 5 0 0 0 0 0 0 0 0 3 4 5 29 8 5 5 5
100 100 89 100 100 100 100 100 19 100 46 32 13 19 0 0 0 0 0 2 4 5 14 41 6 5 0 0 0 5 5 0 0 0 5 5 5 5 11 32 68 77 32
100 100 100 100 100 100 100 100 100 38 30 33 17 12 17 5 5 0 0 0 0 2 5 4 1 2 1 4 5 5 5 0 2 5 5 5 5 8 60 100 100 100 100
100 100 100 97 100 100 100 100 100 84 25 14 57 7 5 6 5 5 4 0 0 0 0 0 0 16 16 14 5 5 5 5 3 5 5 5 8 5 85 100 100 56 100
100 100 100 100 100 100 100 100 100 81 83 56 24 60 61 82 42 6 5 5 5 4 0 0 5 5 6 6 8 41 32 16 5 10 5 5 5 5 5 5 11 96 55
100 100 100 100 100 100 100 100 100 100 100 81 61 19 100 100 67 22 63 61 26 29 24 19 24 28 31 23 20 21 22 14 13 26 5 62 72 8 5 28 98 37 45
100 100 100 100 100 100 100 100 100 100 100 100 100 98 100 91 100 99 74 59 88 48 35 33 33 22 16 63 100 74 46 24 70 100 88 31 67 70 96 54 54 99 100
100 100 100 100 100 100 100 100 100 100 100 100 100 100 99 67 94 100 94 36 100 100 100 100 100 100 100 100 100 97 72 75 100 96 98 95 100 100 96 83 99 98 62
100 100 100 100 100 100 100 100 100 100 100 100 100 100 100 96 98 94 100 100 100 100 100 100 100 100 100 67 96 70 100 100 100 100 100 100 100 96 100 100 100 61 5
100 100 100 100 100 100 100 100 100 100 100 100 100 100 100 100 100 100 99 100 100 100 100 100 100 100 100 100 100 100 100 100 100 100 100 100 98 86 90 59 38 5 5
100 100 100 100 100 100 100 100 100 100 100 100 100 100 100 100 100 100 100 100 100 100 100 100 100 100 100 100 100 100 99 100 100 100 100 100 92 55 24 5 5 46 72
100 100 100 100 100 100 100 100 100 100 100 100 100 100 100 100 99 60 96 100 100 100 100 100 100 100 100 100 100 100 100 100 100 100 100 100 100 93 7 5 8 99 100
100 100 100 100 100 100 100 100 100 100 100 100 100 100 100 100 100 100 100 100 100 100 100 100 100 100 100 100 100 100 100 100 100 100 100 100 100 100 96 5 33 37 60
100 100 100 100 100 100 100 100 100 100 100 100 100 100 100 100 100 100 100 100 100 100 100 100 100 100 100 100 100 100 100 100 100 100 100 100 100 100 97 100 74 5 95

GFSSE_prec_cloud_069.txt.gz
Cloud_Cover
33 12 3 3 0 0 0 0 1 0 2 5 23 8 0 0 0 4 0 0 63 99 7 70 58 0 0 0 0 0 0 0 0 0 0 2 1 0 1 0 0 0 5
23 22 4 2 0 0 0 0 0 0 0 0 90 14 0 0 0 0 0 11 20 67 100 86 0 0 0 0 0 0 0 0 0 0 0 0 0 0 0 0 0 35 16
13 5 5 5 4 3 0 0 0 0 0 23 8 0 0 0 6 2 2 2 51 4 0 9 0 0 0 1 2 0 79 17 5 9 5 2 84 20 9 42 20 95 100
44 9 12 24 19 5 0 0 0 4 1 0 0 4 5 5 5 99 99 100 61 0 8 0 0 0 5 5 5 3 31 8 5 5 5 5 100 99 24 4 14 10 25
11 5 5 31 100 5 5 6 0 0 0 2 0 0 1 1 5 1 3 100 89 94 60 5 5 5 5 5 5 5 5 5 5 5 5 5 5 20 33 0 0 0 3
25 11 5 28 100 5 5 5 0 0 0 18 0 3 0 0 0 0 0 0 28 78 0 0 5 5 5 5 5 5 5 5 5 5 5 5 2 0 0 0 0 0 0
5 5 5 6 93 94 5 5 5 0 0 15 25 19 0 0 0 0 0 0 3 0 0 0 5 5 7 35 41 8 5 5 5 5 5 5 0 0 0 0 0 0 0
25 63 30 6 5 86 69 5 1 0 0 0 8 1 0 0 0 0 0 0 2 2 0 0 5 5 29 5 5 7 5 5 5 5 5 5 5 0 0 0 0 0 0
5 29 47 10 81 5 5 5 2 4 0 0 0 0 0 0 0 0 0 0 0 0 0 0 4 5 5 5 5 5 5 5 5 5 3 1 0 0 0 0 0 0 0
100 38 28 48 37 21 39 5 5 1 2 0 0 2 0 0 0 0 0 0 0 0 0 0 0 5 5 5 5 5 5 5 5 1 0 0 0 0 0 0 0 0 0
99 100 59 24 59 82 40 30 5 5 5 0 1 1 0 0 0 0 0 0 0 0 0 0 0 5 4 5 4 3 4 5 5 5 4 0 0 0 2 0 0 0 0
100 98 100 78 57 89 100 99 5 5 5 4 4 4 0 0 0 0 0 1 0 0 0 0 0 0 0 0 0 0 0 0 0 0 0 0 0 0 0 0 0 0 0
100 100 100 89 92 70 88 100 6 5 5 5 5 13 11 5 0 1 14 4 4 0 0 0 0 0 0 3 0 0 1 0 2 0 0 0 0 0 0 5 0 0 5
100 99 100 100 100 91 99 97 99 47 5 5 5 5 5 5 13 5 12 5 4 5 5 5 2 0 5 1 0 5 5 5 5 4 1 1 3 0 0 0 4 3 5
100 100 87 99 100 84 78 99 71 52 100 97 100 95 50 6 11 13 8 5 5 5 5 5 3 2 1 5 5 5 5 5 5 7 5 5 5 20 14 5 9 34 14
100 100 100 100 100 98 91 100 98 54 50 10 30 55 93 96 90 57 13 17 10 5 5 5 5 5 5 5 49 33 45 39 46 95 97 100 100 64 12 14 53 11 73
100 100 100 100 100 100 100 100 100 100 73 41 48 93 83 94 100 100 99 100 51 9 6 5 5 6 16 57 69 66 89 15 24 36 100 96 65 100 100 58 5 5 46
100 100 100 95 100 100 100 100 71 100 100 100 100 76 100 100 100 100 100 100 100 100 32 7 42 98 60 22 19 6 23 67 100 100 98 100 100 99 34 100 100 18 29
100 100 100 98 100 100 100 100 96 100 100 100 100 100 100 100 100 100 100 100 100 100 88 30 56 65 100 99 100 100 100 100 100 100 100 100 81 58 100 100 100 100 100
100 100 100 100 100 100 100 84 97 100 100 98 100 100 100 100 100 100 100 100 100 91 100 100 100 100 100 100 100 100 90 93 100 100 100 100 85 46 93 64 96 100 100
100 100 100 100 100 100 100 99 89 64 100 100 100 100 100 100 100 100 100 100 100 100 100 100 100 100 100 100 100 100 91 84 100 100 100 100 98 100 59 70 74 100 100
100 100 100 100 100 100 100 100 100 100 99 100 100 100 100 100 100 100 100 100 100 100 100 100 100 100 100 100 99 94 98 100 100 100 100 100 100 99 100 91 100 100 100
100 100 100 100 100 100 100 100 100 100 100 100 100 100 100 100 100 100 100 100 100 100 100 100 100 100 100 99 98 100 100 100 100 100 100 100 100 100 100 100 100 99 100
100 100 100 100 100 100 100 100 100 100 100 100 100 100 100 100 100 100 100 100 100 100 100 100 100 100 91 94 100 100 100 100 100 100 100 100 100 100 100 100 100 92 100
100 100 100 100 100 100 100 100 100 100 100 100 100 100 100 100 100 100 100 100 100 100 100 100 100 99 99 91 100 100 100 100 100 86 98 100 100 100 100 100 87 100 100
100 100 100 99 98 100 100 100 100 100 100 100 100 100 100 100 100 100 100 98 100 100 100 100 100 100 100 100 100 100 100 78 100 100 100 100 100 100 100 100 100 100 100

GFSSE_prec_cloud_072.txt.gz
Cloud_Cover
30 7 5 5 0 0 0 2 12 2 0 67 9 5 5 11 23 36 22 35 49 55 3 1 0 0 0 2 0 0 2 9 6 0 3 0 2 0 1 0 61 16 10
48 25 5 1 0 1 0 0 1 0 11 27 4 0 0 2 27 4 22 12 100 72 0 0 0 0 2 4 0 0 0 4 0 0 2 5 5 11 1 2 22 31 23
70 100 100 8 5 3 4 0 0 0 12 3 1 0 2 5 1 20 38 11 93 21 0 0 0 0 0 0 5 5 5 5 5 5 6 99 6 7 21 8 0 100 100
32 100 100 50 50 5 5 3 1 13 0 0 6 0 0 5 4 5 32 47 12 0 0 0 0 1 5 5 5 5 5 5 5 5 5 5 6 18 5 26 87 21 69
25 16 100 20 5 10 5 5 0 27 0 0 0 0 1 9 10 88 100 95 0 0 0 0 0 2 5 5 5 17 5 5 5 5 5 5 5 8 5 2 0 0 45
14 5 5 6 5 5 6 5 20 23 5 9 0 4 0 5 0 61 34 0 0 0 0 0 0 0 0 5 5 5 16 5 5 5 5 5 5 5 0 0 0 0 0
49 29 5 91 5 5 5 52 40 29 28 15 15 5 0 0 0 2 6 1 44 0 0 0 0 0 0 1 5 5 5 5 5 5 5 5 4 0 0 0 0 0 0
48 34 26 26 71 28 32 11 54 14 97 12 2 0 0 0 0 0 2 53 2 3 4 0 0 0 0 0 5 5 5 5 5 5 5 5 0 0 0 0 0 0 0
100 79 9 19 88 100 29 34 12 78 6 55 5 0 0 0 0 0 0 0 0 1 0 0 0 0 0 0 1 5 5 5 1 0 0 0 0 0 0 0 0 0 0
100 100 100 95 26 59 31 68 14 36 6 45 5 4 0 0 0 0 0 0 0 0 0 0 0 0 0 0 0 0 2 4 1 0 0 0 0 0 0 2 0 0 0
100 100 100 100 100 84 41 7 65 19 40 5 56 5 1 1 0 0 0 0 0 0 0 0 0 0 0 0 0 3 2 4 5 5 5 5 5 5 5 5 1 3 5
100 100 100 100 100 100 50 30 47 70 70 5 11 5 5 4 0 0 1 0 0 0 0 5 5 1 2 0 3 4 3 4 5 5 5 5 5 5 5 30 7 5 5
100 100 100 100 100 100 92 88 99 100 100 93 5 5 5 5 5 11 18 9 5 5 2 5 5 5 5 5 5 5 5 5 5 5 5 5 5 5 10 34 9 5 5
100 100 100 100 100 100 100 100 100 100 78 87 6 5 11 7 12 20 28 16 15 16 33 45 11 12 22 36 20 5 5 5 5 5 6 15 24 5 96 76 16 6 6
100 100 100 100 100 100 100 100 100 100 94 43 37 11 95 69 32 91 37 7 6 6 10 22 56 64 6 6 5 12 11 44 42 5 8 5 5 86 74 98 78 36 47
100 100 100 100 100 100 100 97 90 100 100 100 84 54 99 99 100 100 97 62 24 5 15 82 69 14 38 47 57 73 43 62 45 40 15 11 49 27 100 100 98 6 59
100 100 100 100 100 100 100 98 100 100 100 100 100 100 60 78 100 63 79 92 93 96 100 100 100 100 31 5 13 23 35 53 50 23 39 95 44 100 100 100 99 92 100
100 100 100 100 100 100 100 98 100 100 100 100 100 100 100 72 97 100 95 100 100 100 100 100 100 100 100 92 57 98 98 92 100 98 100 100 100 100 100 100 100 100 6
100 100 100 100 100 100 100 98 100 100 100 100 100 100 97 99 93 100 100 100 100 100 100 100 100 100 100 100 100 100 100 100 100 100 100 100 100 98 99 100 100 100 87
100 100 100 100 100 100 100 100 100 100 91 100 100 100 100 100 100 100 100 100 100 100 100 100 100 100 100 100 100 100 100 100 100 100 66 91 100 100 100 100 100 100 100
100 100 100 100 100 100 100 100 100 100 100 100 100 100 100 100 100 100 100 100 100 100 100 100 100 100 100 100 100 100 99 100 100 78 80 94 91 100 100 100 100 100 100
100 100 100 100 100 100 100 100 100 100 100 100 100 100 100 100 100 100 100 100 100 100 100 100 100 100 100 100 100 99 100 83 70 46 95 87 9 16 56 100 100 100 100
100 100 100 100 100 100 100 100 100 100 100 100 70 93 100 100 100 100 100 100 100 100 100 100 100 100 100 100 100 100 98 99 100 100 100 100 100 85 93 74 100 100 100
100 100 100 100 100 100 100 100 100 100 100 100 98 86 100 100 100 100 100 100 100 100 100 100 100 100 100 100 100 100 100 97 100 100 100 100 100 100 100 100 100 100 100
100 100 100 100 100 100 100 96 100 100 100 100 100 100 100 100 100 100 100 100 100 100 100 100 100 100 100 100 100 100 100 92 100 100 100 100 100 100 100 100 100 100 100
91 100 100 100 100 100 100 100 100 100 100 100 100 100 100 100 100 100 100 100 100 100 100 100 100 84 73 76 100 100 100 100 100 100 100 100 100 100 100 100 100 100 100

GFSSE_prec_cloud_075.txt.gz
Cloud_Cover
63 8 14 4 5 5 73 33 6 0 32 0 0 45 16 17 12 28 8 18 100 32 4 0 0 0 40 20 38 24 6 5 8 2 10 5 4 6 11 5 5 0 0
52 11 7 5 5 5 12 1 7 0 22 6 0 2 20 27 83 19 20 100 51 23 0 0 0 18 87 70 6 5 5 5 3 5 5 14 11 17 4 0 6 43 2
42 6 5 76 35 72 68 5 5 26 4 0 0 0 17 19 65 20 29 76 0 0 0 0 42 27 0 28 4 5 6 11 5 5 5 5 5 72 93 15 84 100 99
40 20 3 36 100 100 100 63 5 37 1 0 0 0 0 11 18 97 20 58 0 0 0 1 0 0 0 0 1 5 5 5 5 5 5 5 5 6 0 10 22 2 69
37 24 2 5 35 93 100 81 20 30 5 4 0 7 0 14 40 66 25 5 0 0 0 0 0 0 0 0 0 1 2 5 5 5 5 5 1 5 1 0 0 0 37
34 5 5 5 45 91 100 12 20 29 8 14 0 12 57 4 14 74 48 0 6 4 0 0 0 0 0 0 0 0 0 1 5 5 5 5 0 0 0 0 0 0 0
56 12 5 5 8 14 91 86 69 6 9 6 5 5 0 47 100 47 3 0 6 0 0 0 0 0 0 0 0 0 0 3 5 4 5 2 0 0 0 0 0 0 1
29 5 5 5 5 5 16 28 19 7 5 6 7 8 5 6 92 99 10 7 8 3 0 0 0 0 0 0 0 0 0 0 0 0 0 0 0 10 3 4 5 2 1
100 84 72 6 89 24 92 40 100 28 34 5 25 48 8 4 12 33 100 26 17 3 0 0 0 0 0 0 0 0 0 0 0 0 3 3 4 5 5 5 0 0 2
100 100 100 100 100 92 100 22 80 81 59 35 5 46 18 8 5 5 5 0 5 0 0 0 0 0 0 0 0 0 0 0 0 0 5 5 5 5 4 4 4 0 4
100 100 100 100 100 100 100 100 97 69 43 23 5 5 5 5 5 5 5 4 3 0 0 0 0 0 0 0 0 5 5 5 5 5 5 5 2 4 5 5 0 1 2
100 100 100 100 100 100 100 100 100 99 68 98 87 58 11 5 5 5 5 5 5 3 2 0 0 0 0 0 5 5 5 13 70 21 17 10 5 5 5 6 3 33 18
100 100 100 100 100 100 100 97 94 100 90 54 46 21 39 14 48 8 10 61 29 5 5 5 5 5 5 5 8 5 5 47 42 47 6 5 5 5 5 5 5 100 5
100 100 100 100 100 100 100 100 100 100 100 96 100 78 33 93 98 48 29 17 16 9 5 5 5 5 45 64 17 67 61 64 56 61 91 59 5 5 7 6 38 100 100
100 100 100 100 100 100 100 99 100 100 100 100 100 100 80 97 100 55 45 74 23 15 35 5 8 28 10 60 98 88 97 86 33 15 39 41 5 92 39 52 100 100 100
100 100 100 100 100 100 100 100 99 100 100 100 67 100 100 100 98 89 100 98 100 90 51 18 56 51 72 100 100 100 100 100 100 88 23 98 100 100 100 100 100 100 76
100 100 100 100 100 100 100 100 99 100 100 99 100 100 100 100 100 100 100 81 100 74 75 30 84 99 100 100 100 100 100 100 100 100 100 100 100 100 100 100 65 100 100
100 100 100 100 100 100 100 100 100 100 74 93 100 100 59 61 100 100 100 100 98 84 55 73 81 100 100 100 100 100 100 100 100 100 100 98 100 100 100 100 99 100 67
100 100 100 100 100 100 100 100 100 100 100 93 86 100 100 100 100 100 100 99 100 82 99 100 100 100 100 100 100 100 100 99 100 87 59 93 50 64 88 78 89 64 97
100 100 100 100 100 100 100 100 100 100 100 100 95 96 100 100 100 100 100 100 100 100 100 100 100 100 100 100 100 100 100 100 80 98 100 100 100 81 55 86 71 100 100
100 100 100 100 100 100 100 100 100 100 74 100 100 100 100 100 100 100 100 100 100 100 100 100 100 100 100 100 100 100 100 100 100 100 100 100 69 74 100 100 100 100 100
100 100 100 100 100 100 100 100 100 100 100 100 100 100 100 100 100 100 100 100 100 100 100 100 100 100 100 100 100 100 100 100 91 97 85 97 100 95 93 100 77 92 100
100 90 100 100 100 100 100 100 100 100 100 100 98 99 100 100 100 100 100 100 100 100 100 100 100 100 100 100 94 92 100 100 100 100 100 100 98 51 97 90 93 100 100
100 100 100 97 100 100 100 100 100 100 100 100 100 100 100 100 100 100 100 100 100 100 100 100 100 100 98 32 41 8 20 67 100 100 100 100 100 100 100 100 100 100 100
100 100 100 73 100 100 100 100 100 100 100 100 100 100 100 100 100 100 100 100 100 100 100 100 100 86 83 97 99 100 92 95 100 100 100 100 100 100 100 100 100 100 100
100 100 100 100 100 100 99 93 100 100 100 100 100 100 100 100 100 100 100 100 100 100 100 100 100 100 60 90 56 20 22 95 43 36 92 100 100 100 100 100 100 100 100

GFSSE_prec_cloud_078.txt.gz
Cloud_Cover
58 4 5 5 1 13 46 45 4 0 4 12 0 0 0 11 13 16 7 1 24 30 0 0 0 11 100 100 85 80 42 22 10 5 5 5 28 36 9 0 0 0 0
100 31 5 5 0 20 100 6 5 2 0 0 11 8 14 5 9 11 33 100 14 1 0 0 91 100 100 77 97 60 3 5 5 47 9 13 5 0 2 0 11 2 0
85 5 5 5 5 2 11 5 5 21 15 4 18 25 36 35 9 47 14 39 4 1 0 71 100 99 4 0 3 6 0 2 5 13 5 5 5 71 4 0 45 100 100
41 12 5 5 5 6 6 5 26 23 34 5 5 22 6 24 26 50 89 1 5 2 55 100 67 4 0 0 0 1 0 0 0 0 0 5 2 0 0 0 0 0 70
35 9 5 5 5 3 2 6 66 100 100 45 5 5 5 5 100 46 94 3 5 7 21 15 0 0 0 0 0 0 0 0 0 0 0 0 0 0 0 0 0 0 1
75 29 5 5 5 5 4 7 39 59 100 56 5 5 19 78 44 41 32 2 5 17 23 5 0 0 0 0 0 0 0 0 0 0 0 0 0 0 0 0 0 0 0
62 14 5 5 10 7 5 12 5 5 95 23 6 5 7 96 100 100 9 8 5 2 21 0 0 0 0 0 0 0 0 0 0 0 0 0 0 0 0 0 0 0 0
56 11 5 23 5 52 5 8 5 5 62 60 5 89 36 23 30 40 5 4 0 0 0 0 0 0 0 0 0 0 0 0 0 0 0 0 2 12 0 0 0 0 0
88 67 21 43 7 50 22 21 10 5 5 5 5 16 24 98 7 5 5 4 5 5 0 0 0 0 0 0 0 0 0 0 0 0 2 2 1 9 4 1 0 0 0
100 100 51 48 88 83 81 17 93 35 6 5 5 7 16 33 29 5 5 5 20 3 3 5 1 0 0 0 0 0 0 0 2 5 5 5 11 5 4 5 5 1 5
100 100 100 100 100 100 100 100 100 100 100 92 19 53 99 5 5 5 5 5 5 5 5 5 5 3 0 0 0 2 0 1 5 5 5 5 5 5 5 5 1 6 7
100 100 100 100 100 100 100 100 100 100 100 100 99 13 7 5 5 5 5 10 5 5 5 9 5 4 0 5 4 0 5 5 5 5 8 5 24 5 5 5 5 96 98
100 100 100 100 100 100 100 100 100 99 100 100 67 31 25 18 26 52 22 18 5 5 5 5 5 5 5 5 4 5 24 23 98 100 98 100 88 58 5 5 100 100 100
100 100 100 100 100 100 100 100 100 100 100 100 100 66 95 98 70 24 47 13 10 13 5 6 18 9 7 6 5 5 61 87 74 60 100 100 100 60 7 78 100 100 94
100 100 100 100 100 100 100 100 100 100 100 100 100 100 100 100 98 100 88 26 21 42 10 77 100 97 75 42 46 44 70 93 51 80 74 100 100 100 100 100 100 90 97
100 100 100 100 100 100 100 100 100 100 100 100 83 68 100 76 76 100 100 88 84 20 5 5 21 30 100 99 92 99 94 100 100 100 100 100 79 48 100 100 100 82 19
100 100 100 100 100 100 100 100 100 100 59 99 54 31 90 100 100 100 100 99 83 58 98 98 100 99 100 84 81 78 99 100 100 100 100 9 24 100 100 100 100 100 100
100 100 100 100 100 100 100 100 100 100 100 100 99 100 81 80 51 100 100 100 94 100 90 100 100 100 93 91 100 100 100 100 100 100 100 100 98 51 99 100 100 100 97
100 100 100 100 100 100 100 100 100 100 100 100 97 94 50 80 98 100 95 90 98 97 99 100 100 100 100 100 100 100 100 100 100 100 100 98 52 98 84 92 94 58 70
100 100 100 100 100 100 100 99 100 100 100 100 100 85 100 100 95 95 100 100 100 99 100 100 100 100 100 100 100 100 100 100 100 100 94 100 100 97 100 100 45 80 69
100 100 100 100 100 100 100 100 100 100 100 100 100 100 86 82 99 100 100 100 100 100 100 100 100 93 99 100 100 100 100 43 25 100 98 97 100 87 26 98 65 35 92
100 100 100 100 100 100 100 100 100 100 100 100 100 100 100 100 100 100 100 100 100 100 100 100 100 100 100 100 100 91 98 97 96 86 34 69 59 28 6 37 68 53 98
100 100 100 100 100 100 100 100 100 100 100 100 100 100 100 97 100 100 100 100 100 100 100 100 100 100 100 100 100 88 58 71 90 92 59 10 66 6 88 82 99 100 92
100 100 100 100 100 100 100 100 100 100 100 100 100 100 100 100 100 97 100 100 100 100 100 100 100 100 100 84 73 88 100 100 100 100 100 98 86 62 82 53 98 100 100
100 100 100 100 100 100 100 100 100 100 100 100 100 100 100 100 100 100 100 100 100 100 100 100 100 100 100 100 49 67 9 5 70 100 82 99 80 90 100 100 100 100 100
100 100 100 100 100 100 100 100 100 100 100 100 100 100 100 100 100 100 100 100 100 100 100 100 100 100 100 100 97 88 70 41 77 27 82 100 100 100 100 94 91 100 100

GFSSE_prec_cloud_081.txt.gz
Cloud_Cover
21 6 58 20 8 5 6 4 4 5 5 5 2 2 0 0 14 3 31 100 100 60 0 0 78 98 100 97 76 93 40 4 4 5 11 10 24 2 3 0 0 0 0
50 45 73 47 6 4 9 1 2 5 5 5 5 0 0 3 49 45 23 0 6 0 0 12 100 100 100 100 55 1 0 16 0 0 2 1 0 3 0 4 3 0 0
39 80 7 64 10 5 1 2 1 5 5 8 5 5 2 15 15 67 76 3 0 0 0 100 100 74 26 9 8 0 0 0 0 0 0 0 0 0 0 0 0 1 0
30 55 28 15 100 10 10 8 6 0 5 12 13 12 11 8 2 61 4 0 0 19 100 100 55 7 3 4 8 0 0 0 0 0 0 0 0 0 0 0 0 0 0
54 41 37 29 21 18 5 8 31 0 1 5 41 76 24 5 23 98 2 0 2 97 100 84 4 10 1 2 3 0 0 0 0 0 0 0 0 0 0 0 0 0 0
41 63 9 19 5 5 5 29 24 5 0 5 93 100 100 28 38 78 2 5 5 100 89 1 0 14 0 0 2 0 0 0 0 0 0 0 0 0 0 0 0 0 0
45 17 51 5 37 5 5 6 5 5 5 3 5 6 9 22 36 100 4 4 14 47 2 0 0 0 0 0 0 0 0 0 0 0 0 0 0 0 0 0 0 0 0
27 24 6 5 9 5 8 5 5 5 5 5 5 42 47 100 100 99 6 5 19 58 9 4 1 0 0 0 0 0 0 0 0 0 0 2 1 4 1 0 0 0 0
84 26 38 23 5 5 5 8 5 5 5 5 66 23 100 100 59 20 9 10 13 36 10 3 2 1 4 0 0 0 0 0 0 0 5 5 5 3 2 4 4 5 0
100 100 99 37 100 100 45 31 5 5 5 5 44 100 100 100 34 13 77 22 8 5 5 3 2 0 2 0 0 0 0 0 0 0 0 3 5 5 4 5 2 9 2
98 100 100 100 100 100 99 100 40 5 51 79 66 99 100 100 35 8 15 19 5 5 4 5 5 0 0 0 4 0 0 1 3 5 5 89 51 65 98 100 98 7 5
100 100 100 100 100 100 100 100 93 97 100 100 100 100 100 99 72 28 8 5 5 5 5 5 5 4 5 2 0 0 4 5 5 5 26 8 5 5 6 73 100 21 21
100 100 100 100 100 100 100 100 100 100 100 100 99 100 100 100 92 100 22 14 21 17 5 5 5 0 5 5 5 5 5 5 5 5 10 100 25 7 70 100 56 8 43
99 100 100 100 100 100 100 100 100 100 100 71 100 82 99 100 100 100 89 85 100 10 68 91 5 10 5 7 55 84 92 27 21 35 85 16 92 100 100 90 5 76 90
100 100 100 100 100 100 100 100 100 100 100 100 97 100 100 100 100 100 100 100 100 100 94 63 74 28 5 7 5 17 6 41 50 71 14 73 19 100 69 15 77 98 82
100 100 100 100 100 100 100 100 100 100 100 100 100 100 100 100 100 100 98 100 100 100 100 100 100 34 63 25 84 94 100 100 35 86 88 26 73 100 100 98 100 94 86
100 100 100 100 100 100 100 100 97 100 100 100 100 100 100 100 16 5 66 80 100 100 94 80 96 98 63 93 100 100 100 100 66 73 95 91 100 100 100 89 54 60 62
100 100 100 100 100 100 100 100 100 100 100 100 100 100 100 88 90 83 65 48 89 100 100 98 56 6 93 100 100 73 100 100 100 43 15 5 6 93 100 50 82 82 69
100 100 100 100 100 100 100 100 100 100 100 100 98 100 100 99 64 100 91 57 57 100 100 100 96 76 100 100 100 100 100 100 97 68 6 5 6 91 79 87 88 97 100
100 100 100 100 100 100 100 100 100 100 100 100 99 100 100 97 87 96 72 90 100 100 96 45 69 100 99 100 100 100 68 12 5 5 5 14 73 35 42 24 31 26 4
100 100 100 100 100 100 100 100 100 100 100 100 100 98 100 100 100 100 66 74 100 100 100 100 99 100 94 98 100 72 52 6 5 5 31 31 100 83 90 17 6 2 0
100 100 100 100 100 100 100 100 100 100 100 100 100 100 100 100 96 100 100 93 100 99 100 100 99 81 100 100 71 98 46 4 1 5 5 53 98 71 5 18 4 1 0
100 100 100 100 100 100 100 100 100 100 100 100 100 100 100 100 100 100 100 100 100 100 100 97 82 100 100 100 100 97 7 7 14 20 54 62 12 5 5 0 0 4 7
100 100 100 100 100 100 100 100 100 100 100 100 100 100 100 100 100 100 100 100 100 100 100 100 100 100 100 93 32 7 6 90 67 100 93 20 66 79 5 4 38 99 87
100 100 100 100 100 100 100 100 100 100 100 100 100 100 100 100 100 100 100 100 100 100 100 100 100 100 100 100 100 27 23 30 89 100 92 100 45 14 99 92 70 96 98
100 100 100 100 100 100 100 100 100 100 100 100 100 100 100 100 100 100 100 100 100 100 100 100 100 100 100 100 97 100 100 97 64 35 84 100 92 96 100 100 100 100 90

GFSSE_prec_cloud_084.txt.gz
Cloud_Cover
79 72 52 30 8 5 1 0 0 0 2 4 5 5 0 0 2 13 27 63 87 38 0 6 43 0 15 33 59 16 10 95 41 3 0 7 0 0 0 0 0 0 10
50 99 43 92 50 5 26 5 5 2 0 1 1 5 5 2 30 90 56 100 98 3 2 35 34 12 95 51 12 48 96 29 0 0 0 0 0 0 0 0 0 19 9
52 100 55 21 31 10 6 49 10 5 1 0 0 5 14 5 28 90 19 3 6 3 78 100 91 100 100 84 1 11 4 0 0 0 0 0 0 0 0 0 0 0 0
100 100 100 29 43 97 5 70 21 5 34 0 2 0 31 4 48 81 1 0 0 100 100 100 93 75 38 0 0 0 0 0 0 0 0 0 0 0 0 0 0 0 0
100 98 100 98 100 95 19 90 67 5 5 0 0 5 1 2 84 84 4 4 50 100 100 57 4 2 7 4 0 0 0 0 0 0 0 0 0 0 0 0 0 0 0
88 99 85 96 31 96 86 16 99 7 5 4 0 2 5 82 100 100 5 30 97 99 62 5 3 0 0 0 0 0 0 0 0 0 0 0 0 0 0 0 0 0 0
43 79 31 95 5 5 69 28 15 94 8 5 5 4 53 41 100 20 6 71 100 36 15 12 7 2 0 0 0 0 0 3 0 0 0 0 0 7 0 0 0 0 2
67 59 64 6 13 5 12 11 17 83 48 5 5 38 81 52 100 100 74 36 99 67 9 5 5 8 8 0 0 0 0 0 5 1 0 0 0 4 1 5 4 3 5
100 99 100 44 5 5 5 15 61 65 91 5 5 93 45 77 100 100 100 98 100 97 8 5 5 4 2 1 0 0 0 5 5 0 0 0 0 35 100 53 100 100 98
100 100 100 100 40 37 26 5 18 100 28 9 36 100 100 100 100 100 100 99 100 17 5 5 5 5 5 4 2 0 0 0 0 0 0 5 5 51 28 5 5 5 100
100 100 93 100 100 100 100 98 98 64 86 88 83 84 100 90 35 17 5 64 25 7 6 11 5 5 5 5 4 5 5 5 5 5 5 5 5 9 85 5 5 68 97
100 100 100 100 100 100 100 100 100 100 70 100 98 70 95 23 48 63 77 81 40 83 21 5 5 5 5 4 4 0 1 5 5 5 5 5 5 15 5 5 89 100 97
100 100 100 100 100 100 100 100 100 100 100 100 100 85 95 100 100 100 100 100 100 100 42 5 5 5 5 5 2 5 10 5 28 7 49 5 5 5 5 34 100 40 91
100 100 100 100 100 100 100 100 100 100 100 100 100 100 100 100 100 99 100 34 74 100 23 14 10 8 48 21 5 5 5 71 95 30 5 16 56 5 33 24 99 100 90
100 100 100 100 100 100 100 100 100 100 100 100 100 100 100 100 100 100 14 99 100 99 100 100 100 84 37 10 35 14 5 5 12 79 100 100 81 54 73 100 94 100 78
100 100 100 100 100 100 100 100 100 100 100 100 84 100 100 100 99 100 96 91 100 78 99 73 53 91 100 100 99 5 5 5 54 100 100 6 5 64 94 99 92 26 43
100 100 100 100 100 100 100 100 100 100 94 100 100 100 100 100 100 89 99 100 75 77 100 100 100 100 100 100 100 78 12 98 86 14 97 60 99 30 94 80 28 6 5
100 100 100 100 100 100 100 100 100 100 100 100 100 100 100 100 100 100 100 94 81 69 97 99 100 100 100 100 100 48 50 6 8 96 27 6 5 5 32 74 87 66 46
100 100 100 100 100 100 100 100 100 100 100 100 100 100 100 100 100 100 100 89 100 80 5 47 100 100 100 63 98 100 100 42 100 34 7 5 3 5 7 63 15 36 12
100 100 100 100 100 100 100 100 100 100 100 100 100 100 100 100 100 100 100 99 100 73 90 46 90 100 91 98 97 99 96 98 4 9 43 79 5 64 25 42 5 6 5
100 100 100 100 100 100 100 100 100 100 100 100 100 100 100 100 100 100 100 99 100 100 90 64 100 70 6 8 5 95 91 71 5 4 79 5 5 90 99 5 5 5 5
100 100 100 100 100 100 100 100 100 100 100 100 100 100 100 100 100 100 100 100 100 100 100 100 96 96 56 51 20 44 74 6 27 6 1 0 6 29 5 5 4 21 4
100 100 100 100 100 100 100 100 100 100 100 100 100 100 100 100 100 100 100 100 100 100 100 100 66 82 69 68 97 18 76 8 4 4 2 0 3 5 5 5 5 5 5
100 100 100 100 100 100 100 100 100 100 100 100 100 100 100 100 100 100 100 100 100 100 100 100 100 100 95 100 100 96 27 9 5 5 19 8 5 5 10 70 27 5 5
100 100 100 100 100 100 100 100 100 100 100 100 100 100 100 100 100 100 100 100 100 100 100 100 100 100 100 100 100 100 100 87 100 100 100 100 100 58 65 19 5 5 12
100 100 100 100 100 100 100 100 100 100 100 100 100 100 100 100 100 100 100 100 100 100 100 100 100 100 100 100 100 100 100 100 100 100 98 97 100 95 82 61 70 23 21

GFSSE_prec_cloud_087.txt.gz
Cloud_Cover
67 25 100 100 97 5 5 5 2 3 5 4 5 0 0 0 0 6 30 92 100 22 0 14 19 43 75 28 96 6 7 24 24 5 0 0 0 0 0 0 17 29 3
33 48 51 100 96 66 15 5 5 0 4 5 5 0 5 4 6 20 50 36 54 30 1 3 9 8 42 98 38 99 19 0 0 0 0 0 0 4 0 0 0 14 2
20 71 35 98 100 44 5 6 8 5 3 5 5 4 0 1 4 51 17 97 97 1 12 0 0 100 57 59 100 71 9 0 0 0 0 0 0 0 0 0 0 10 18
74 89 88 13 100 100 94 66 41 8 9 5 5 5 0 5 83 72 99 44 1 88 62 19 98 100 40 6 13 0 0 0 0 0 0 0 0 0 0 0 0 0 0
69 100 87 4 98 100 100 87 38 14 60 35 5 5 5 3 56 100 56 8 60 87 100 83 24 19 17 1 0 0 0 0 0 0 0 0 0 0 0 0 0 0 0
100 100 91 0 1 94 100 100 44 44 5 16 5 5 5 5 100 100 87 100 100 100 92 0 5 5 2 1 0 0 0 0 0 0 0 0 0 0 0 0 0 4 5
100 99 84 4 0 0 82 100 98 66 34 7 42 5 5 5 100 8 62 100 100 46 5 4 20 10 5 4 1 0 0 0 0 0 5 5 0 0 0 1 6 4 6
100 100 72 5 5 0 5 94 8 5 14 32 9 5 5 32 100 6 95 100 100 14 12 23 5 4 0 0 5 0 0 0 0 0 5 0 0 0 0 5 88 5 5
100 100 100 18 8 4 1 26 72 5 5 5 47 63 17 65 98 100 96 98 84 100 92 10 11 17 4 0 0 0 0 0 0 0 0 0 0 0 0 4 5 8 5
84 100 95 65 24 18 26 5 100 58 5 5 11 86 99 100 100 100 100 100 100 46 5 5 3 5 1 3 0 0 0 0 0 0 0 0 0 5 5 3 5 5 33
91 100 95 100 79 88 16 44 6 98 61 5 86 100 100 96 96 79 31 100 100 31 5 5 5 1 4 4 4 0 0 0 0 4 3 0 4 0 1 4 5 12 61
74 100 100 100 100 100 100 82 97 97 100 66 69 100 100 100 54 55 10 80 88 94 99 100 100 100 6 1 0 1 0 1 0 0 2 12 7 5 5 5 5 94 98
62 100 100 100 100 100 100 100 100 98 78 98 99 99 100 100 97 58 62 60 100 100 100 100 100 96 52 5 1 5 5 5 0 5 3 76 100 42 5 98 100 100 100
90 99 100 100 100 100 100 100 100 100 100 100 100 100 100 100 100 100 98 100 100 100 93 97 32 97 100 20 55 100 99 7 5 5 5 5 64 5 73 95 82 34 79
5 76 100 100 100 100 100 99 100 100 100 100 100 100 100 100 100 100 100 100 100 100 52 40 94 100 100 100 100 100 88 98 100 5 5 98 100 9 5 5 20 65 19
58 100 100 100 100 100 100 100 100 100 100 100 100 100 100 100 100 100 100 100 100 100 100 82 100 100 100 97 100 100 99 74 10 33 47 100 67 6 5 5 97 99 97
100 100 100 100 100 100 100 100 100 100 100 100 100 100 100 100 100 100 100 100 100 100 100 100 100 100 86 88 55 96 10 23 45 36 74 54 24 33 6 5 51 27 5
100 100 100 100 100 100 100 100 100 100 100 100 100 100 100 100 100 100 100 100 100 100 100 100 100 99 92 24 34 77 22 80 100 98 88 65 96 86 5 5 5 5 4
96 100 100 100 100 100 100 100 100 100 100 100 100 100 100 97 87 100 100 100 100 100 100 100 48 61 81 15 66 100 90 84 100 100 100 82 83 54 5 5 5 4 0
100 100 100 100 100 100 100 100 100 100 100 100 100 100 100 94 100 100 100 100 100 100 100 89 70 78 52 74 39 74 100 100 100 100 100 98 14 12 47 26 5 5 2
100 100 100 100 100 100 100 100 100 100 100 100 100 100 100 100 100 100 100 100 100 100 100 99 65 99 100 93 100 100 68 20 16 25 37 5 3 5 5 5 58 5 80
100 100 100 100 100 100 100 100 100 100 100 100 100 100 100 100 100 100 100 100 100 100 100 100 100 96 98 100 100 100 100 50 64 12 5 5 0 0 5 8 6 5 5
100 100 100 100 100 100 100 100 100 100 100 100 100 100 100 100 100 100 100 100 100 100 100 100 100 100 100 100 100 94 78 79 88 5 22 5 4 0 4 5 2 5 5
100 100 100 100 100 100 100 100 100 100 100 100 100 100 100 100 100 100 100 100 100 100 100 100 100 100 100 100 100 100 73 100 87 60 7 5 5 4 8 52 8 63 42
100 100 100 100 100 100 100 100 100 100 100 100 100 100 100 100 100 100 100 100 100 100 100 100 100 100 100 100 100 100 100 100 100 100 26 29 87 57 58 18 63 7 5
100 100 100 100 100 100 100 100 100 100 100 100 100 100 100 100 100 100 100 100 100 100 100 100 100 100 100 100 100 100 100 100 100 100 100 79 32 82 91 80 52 36 64

GFSSE_prec_cloud_090.txt.gz
Cloud_Cover
1 1 5 98 100 94 30 9 5 5 0 0 0 0 0 4 3 15 20 2 12 11 4 10 3 25 55 86 96 60 99 60 0 0 0 0 0 4 8 44 0 1 0
5 0 0 7 100 100 95 23 17 5 2 0 1 5 5 24 6 18 18 5 40 52 28 19 18 39 95 100 100 10 0 0 0 0 0 0 0 0 0 0 0 24 95
74 1 0 0 1 28 100 76 5 55 5 2 0 5 5 5 10 16 61 10 97 51 9 21 13 81 100 100 100 28 0 0 0 0 0 0 0 0 0 0 1 20 99
100 31 0 2 0 2 15 100 35 14 6 5 2 2 5 12 20 8 63 6 67 30 5 7 69 100 100 99 24 0 0 0 0 0 0 0 0 0 0 0 2 11 7
44 5 5 0 0 0 2 21 96 8 5 5 5 1 5 5 63 99 6 9 68 5 36 70 70 71 13 0 0 0 0 0 0 0 0 0 0 0 0 0 0 0 0
7 6 18 5 17 0 0 4 19 64 5 1 5 5 5 36 100 100 6 5 93 94 100 17 8 5 5 1 0 0 0 0 0 0 0 0 0 0 0 0 0 0 5
5 4 88 46 4 3 0 0 4 59 96 18 0 4 4 66 100 96 10 94 100 100 91 7 5 5 3 0 0 0 0 0 0 0 0 0 0 0 0 0 0 0 5
0 1 70 77 5 5 0 0 0 5 32 41 5 0 4 4 100 73 8 97 100 38 32 7 21 5 4 5 0 0 0 0 0 0 0 0 0 0 0 0 2 3 5
12 13 15 48 51 99 94 1 0 5 51 100 93 6 5 44 97 94 100 100 100 51 100 23 86 100 86 1 0 0 0 0 0 0 0 0 0 0 2 5 5 3 5
3 0 13 91 68 70 100 100 12 3 5 2 92 15 5 22 100 100 100 100 100 44 5 5 6 9 1 0 5 4 5 5 0 0 0 0 0 0 4 3 0 2 10
4 1 1 94 100 87 65 100 99 21 6 6 36 100 96 94 100 100 100 100 99 48 38 5 5 37 26 100 92 86 4 2 0 0 0 0 1 2 5 5 5 5 68
14 5 5 100 100 100 100 100 100 45 63 14 14 100 100 64 100 100 100 100 98 33 57 47 18 100 100 100 100 75 58 1 2 2 3 0 5 4 5 5 35 82 100
8 0 5 100 100 100 100 100 100 92 38 99 22 100 100 100 100 60 35 100 100 99 73 56 23 100 92 100 100 100 100 7 3 5 5 5 5 5 5 82 96 100 38
5 0 52 99 100 100 100 100 100 100 100 97 100 78 100 100 100 100 89 77 90 100 100 95 97 100 74 97 71 82 100 99 100 100 100 16 27 5 56 62 39 5 32
5 4 5 70 77 100 100 100 100 100 93 100 100 100 70 100 100 100 100 100 100 100 100 100 100 100 100 87 48 93 96 98 78 100 100 52 17 5 5 5 7 5 37
9 3 3 13 78 97 100 100 100 100 100 100 100 100 100 100 100 100 100 100 100 100 100 100 100 100 100 94 86 100 95 96 92 100 72 38 37 5 84 72 5 48 100
1 84 18 26 99 100 100 100 100 100 100 100 100 100 100 100 100 100 100 100 100 100 100 100 100 100 100 100 100 100 90 90 83 92 89 100 90 76 100 63 18 45 48
1 14 99 52 100 99 96 100 100 100 100 100 100 98 91 100 100 100 100 100 100 100 100 100 100 100 100 100 100 100 100 74 52 99 100 99 100 100 100 100 94 62 18
5 33 83 100 100 100 100 100 100 100 100 100 100 97 97 88 88 100 100 100 100 100 100 100 100 100 100 100 100 100 88 100 91 100 100 100 100 100 100 100 100 28 11
4 70 75 100 100 100 100 100 100 100 100 100 100 100 100 87 100 100 100 100 100 100 100 100 100 100 100 100 100 100 100 70 83 55 100 98 100 52 100 100 100 83 5
5 81 100 100 100 100 100 100 100 100 100 100 100 100 100 100 100 100 100 100 100 100 100 100 100 100 100 100 100 95 97 91 100 98 54 43 100 91 100 100 5 5 5
51 90 100 100 100 100 100 100 100 100 100 100 100 100 100 100 100 100 100 100 100 100 100 100 100 100 100 100 100 99 100 100 85 100 100 100 100 92 34 45 3 4 0
8 100 100 100 100 100 100 100 100 100 100 100 100 100 100 100 100 100 100 100 100 100 100 92 100 100 100 100 100 100 100 100 100 100 100 86 25 25 6 5 4 4 2
38 100 100 100 100 100 100 100 100 100 100 100 100 100 100 100 100 100 100 100 100 100 100 96 100 100 100 100 100 100 100 100 100 100 85 100 22 5 5 5 5 12 5
100 100 100 100 100 100 100 100 100 100 100 100 100 100 100 100 100 100 100 100 100 100 100 100 100 100 100 100 100 100 100 100 100 100 97 100 90 37 62 99 12 18 12
100 100 100 100 100 100 100 100 100 100 100 100 100 100 100 100 100 100 100 100 100 100 100 100 100 100 100 100 100 100 100 100 100 100 100 100 100 99 93 61 57 16 24

GFSSE_prec_cloud_093.txt.gz
Cloud_Cover
13 4 0 66 20 83 98 4 6 0 0 0 0 0 27 6 8 25 0 0 0 7 4 18 6 9 10 31 31 89 3 0 2 0 0 6 23 94 4 0 0 3 1
42 5 0 0 53 7 100 75 2 5 0 0 0 0 88 0 12 22 0 0 4 2 2 16 18 6 95 99 43 2 0 0 0 0 0 0 0 25 8 0 3 68 95
5 26 1 0 0 4 6 96 50 8 4 0 0 0 4 5 11 15 6 0 8 32 17 68 3 100 100 50 0 0 0 0 0 0 0 0 0 12 0 0 5 98 100
4 94 8 0 0 0 0 6 12 5 34 4 0 0 0 5 21 33 5 5 5 9 12 15 13 100 100 8 0 0 0 0 0 0 0 0 0 0 0 0 11 4 18
2 0 24 4 3 0 0 0 0 5 11 5 2 66 0 4 20 96 5 5 2 0 0 5 40 100 55 0 5 0 0 0 0 0 0 0 0 0 0 0 0 0 0
5 5 32 5 5 4 0 2 3 0 5 5 5 0 0 0 1 98 5 5 5 0 0 0 57 6 5 5 5 1 0 0 0 0 0 0 0 0 0 0 0 0 0
9 6 3 5 5 5 4 0 1 0 1 8 42 8 3 0 5 85 0 5 20 63 1 0 5 5 5 5 5 4 2 0 0 0 0 0 0 0 0 0 0 0 0
4 42 3 5 5 5 7 48 2 0 0 5 5 98 95 64 82 98 6 19 96 99 1 0 1 2 54 83 6 14 0 0 0 0 0 0 0 0 0 0 0 4 5
3 15 6 20 5 5 5 54 76 0 0 3 5 51 100 100 100 100 41 100 100 84 5 5 6 3 2 23 79 9 4 0 2 0 0 0 0 0 0 1 0 5 5
15 7 23 7 0 0 56 69 77 5 0 0 5 10 28 100 100 100 100 96 100 12 6 5 5 5 5 8 35 18 28 100 71 6 5 0 0 0 0 5 5 5 5
78 56 16 62 40 4 47 83 64 36 5 5 5 5 100 97 100 100 100 100 100 60 40 8 22 5 56 99 99 100 100 100 100 14 5 5 4 4 5 5 5 5 5
84 100 96 53 39 30 21 71 100 100 21 16 25 7 42 98 100 100 100 93 100 44 8 28 73 6 77 73 100 100 99 100 60 90 39 5 3 3 65 5 5 32 5
100 57 84 91 82 2 5 99 100 100 80 51 88 38 97 77 100 100 100 100 100 97 62 49 27 99 100 73 52 100 96 100 98 96 97 96 31 100 100 66 5 86 5
17 5 22 71 45 26 18 100 100 100 97 80 99 100 100 100 100 100 100 100 100 94 40 61 88 100 100 100 100 100 100 100 69 91 99 60 98 100 95 100 21 12 5
2 1 5 57 5 7 3 100 100 100 100 100 15 66 100 100 100 100 100 100 100 100 98 100 100 100 100 100 100 100 100 100 100 54 83 92 28 75 62 88 98 89 56
3 24 80 44 80 18 20 100 100 100 100 100 100 73 100 100 100 100 100 89 100 100 100 100 100 100 100 100 100 100 100 100 100 37 75 99 60 100 100 85 55 96 97
99 82 85 98 25 8 1 98 100 100 100 100 100 100 74 90 100 100 100 100 100 100 100 100 100 100 100 93 100 100 100 100 63 95 9 84 6 6 100 100 48 100 97
84 100 100 100 99 54 8 90 100 100 100 100 100 100 84 100 100 100 64 100 98 98 100 100 100 100 100 100 100 100 100 100 100 98 70 86 98 57 83 55 99 100 100
4 42 96 66 39 43 100 98 100 100 100 100 100 100 100 100 100 100 100 100 96 100 100 100 100 100 94 100 100 100 100 100 100 100 100 69 96 56 78 100 100 100 100
2 0 4 43 5 5 43 87 74 100 100 100 87 100 100 100 100 100 100 100 100 100 100 100 96 100 100 100 100 100 100 100 100 100 69 89 73 96 95 99 100 40 100
8 7 4 0 2 34 8 100 100 100 100 100 100 100 100 100 87 100 100 100 100 100 100 100 100 100 100 100 100 100 100 100 97 98 82 100 100 100 74 98 33 21 54
7 5 0 0 2 98 24 100 100 100 100 100 100 100 100 100 100 100 100 100 100 100 100 100 100 100 100 100 100 100 100 100 100 84 100 100 99 100 100 100 92 28 5
15 34 27 1 5 66 48 100 100 100 100 100 100 100 100 100 100 100 100 100 100 100 100 100 100 100 100 100 100 100 100 100 100 100 100 100 93 100 100 81 5 46 21
25 65 53 44 95 89 100 100 100 100 100 100 100 100 100 100 100 100 100 100 100 100 100 100 100 100 100 100 100 100 100 100 100 100 100 100 100 98 78 49 55 40 29
94 99 100 75 99 100 100 100 100 100 100 100 100 100 100 100 100 100 100 100 100 100 100 100 100 100 100 100 100 100 100 100 100 100 100 100 100 100 100 79 89 100 46
100 56 100 100 100 100 100 100 100 100 100 100 100 100 100 100 100 100 100 100 100 100 100 100 100 100 100 100 100 100 100 100 100 100 100 100 100 100 100 100 100 96 78

GFSSE_prec_cloud_096.txt.gz
Cloud_Cover
26 2 5 5 0 0 1 0 0 0 0 1 0 23 37 11 12 0 0 0 0 0 48 57 2 4 2 72 56 0 9 32 29 5 8 29 72 93 4 0 0 1 14
5 6 0 5 3 0 5 5 5 5 0 0 1 24 100 2 23 0 0 0 4 2 1 17 86 14 7 45 0 0 0 0 0 0 0 0 0 18 31 94 11 7 2
7 8 1 0 3 2 1 5 5 79 5 0 0 12 99 16 24 0 0 4 15 8 44 56 23 71 12 1 0 0 0 0 0 0 0 0 0 0 8 0 96 100 96
0 0 5 2 3 5 0 3 5 33 74 4 3 0 0 8 14 3 0 7 23 21 44 3 89 99 0 5 3 0 0 0 0 0 0 0 0 0 0 0 3 3 54
4 5 5 5 4 4 0 0 3 11 15 6 5 5 0 4 20 2 0 4 0 1 0 0 83 17 5 5 4 0 0 0 0 0 0 0 0 0 0 0 0 0 0
9 12 4 5 0 0 5 0 0 2 11 5 5 5 5 8 18 100 0 0 4 4 3 2 88 2 2 5 3 2 3 5 0 0 0 0 0 0 0 0 0 0 0
3 1 4 5 5 5 5 5 0 0 0 1 2 3 9 10 5 39 5 0 5 5 5 6 5 0 0 3 5 3 1 0 0 0 0 0 0 0 0 0 0 0 4
1 4 7 3 5 5 5 5 3 48 2 1 0 0 2 5 13 35 7 5 5 5 6 64 6 5 0 5 5 56 68 33 22 1 5 3 5 2 0 0 0 0 4
3 38 38 7 5 5 0 5 5 5 86 5 0 0 0 2 6 100 62 5 94 100 10 11 71 9 5 2 5 5 7 5 5 5 7 19 5 5 0 4 5 5 5
70 49 29 100 35 11 5 5 5 5 5 80 5 0 0 6 13 100 100 100 100 99 13 5 5 28 5 5 5 5 5 25 94 100 100 83 5 5 2 5 5 5 5
99 90 57 93 100 98 91 5 5 5 5 5 65 5 0 40 63 100 100 100 100 100 99 88 5 5 5 52 55 5 5 18 100 86 37 34 24 5 5 5 5 97 47
100 100 53 46 90 77 71 99 92 21 19 27 71 74 5 97 100 100 100 100 100 100 100 100 14 7 27 57 22 5 8 26 85 100 100 82 5 5 5 5 84 100 52
100 100 100 93 40 22 45 29 27 11 30 55 40 86 5 12 100 97 100 100 100 100 100 100 100 10 44 6 20 58 76 98 100 100 100 100 68 26 5 5 52 92 75
90 90 53 73 100 100 95 54 39 28 4 77 100 100 69 60 100 56 100 100 100 100 47 68 100 100 17 10 73 100 100 100 100 100 100 99 77 84 80 27 16 33 88
20 22 58 73 80 84 49 86 66 11 1 100 100 100 82 76 100 100 93 100 100 100 100 52 79 100 86 43 100 100 100 100 100 100 100 77 59 97 5 5 6 66 98
4 6 21 56 71 48 38 61 95 78 4 66 50 100 100 66 96 100 100 100 100 100 100 100 99 73 52 95 100 100 100 100 100 100 100 100 98 74 27 62 98 44 34
0 15 15 1 7 24 100 100 66 29 3 98 100 100 97 71 96 100 100 99 100 100 100 100 100 100 100 100 100 100 100 100 100 55 100 100 94 84 100 6 94 50 17
0 0 8 5 5 72 100 100 92 46 3 13 85 50 100 100 88 100 100 100 100 100 100 100 100 100 100 100 100 100 100 100 100 100 100 100 99 100 100 100 100 98 88
0 3 0 5 41 97 100 100 100 15 8 15 97 100 100 100 100 98 100 100 100 100 100 100 100 100 100 100 100 100 100 100 100 100 100 100 100 99 63 100 88 38 61
0 5 5 16 94 100 98 96 81 11 20 41 83 100 100 96 100 100 100 100 100 100 100 100 100 100 100 100 100 100 100 100 100 100 100 100 91 100 100 100 95 31 72
5 64 99 66 100 83 100 100 93 74 81 100 76 100 100 100 100 89 100 100 100 100 100 100 100 100 100 100 100 100 100 100 100 100 100 100 100 100 38 99 49 5 5
100 100 100 100 82 81 100 90 10 29 70 32 100 100 100 100 100 100 100 100 100 100 100 100 100 100 100 100 100 100 100 100 100 100 100 100 100 100 38 62 24 93 30
100 74 100 100 97 100 100 47 30 68 70 100 100 100 100 100 100 100 100 100 100 100 100 100 100 100 100 100 100 100 100 100 100 100 95 99 100 100 100 100 100 100 100
71 91 100 100 91 100 100 30 43 10 100 100 100 100 100 100 100 100 100 100 100 100 100 100 100 100 100 100 100 100 100 100 100 100 100 100 100 100 100 100 100 100 100
41 45 68 99 100 100 100 66 97 78 83 100 100 100 100 100 100 100 100 100 100 100 100 100 100 100 100 100 100 100 100 100 100 100 100 99 100 100 100 73 100 100 100
56 97 20 68 74 77 100 100 100 99 99 97 79 100 100 100 100 100 100 100 100 100 100 100 100 100 100 100 100 100 100 100 100 100 100 99 100 100 100 100 100 100 100

GFSSE_prec_cloud_099.txt.gz
Cloud_Cover
24 6 0 33 4 0 0 1 0 0 0 7 12 32 6 16 6 5 4 3 0 0 0 1 4 2 31 40 24 100 100 61 6 15 0 0 54 94 8 0 0 16 16
2 1 0 10 42 32 0 0 0 0 0 0 61 100 83 6 0 0 0 1 0 0 0 0 0 15 97 4 0 4 3 1 0 0 0 0 0 35 0 0 8 26 8
17 4 1 0 0 0 0 1 2 0 0 0 0 64 100 10 7 0 0 1 0 11 6 28 67 49 24 0 0 0 0 0 0 0 0 0 1 11 0 100 100 97 81
14 2 0 0 0 4 8 13 0 5 0 1 5 14 51 20 45 1 0 7 7 18 18 5 10 1 0 0 0 0 0 0 0 0 0 0 0 10 0 0 1 18 68
20 4 0 0 0 2 3 14 8 1 5 2 17 14 0 12 27 0 0 0 0 2 0 0 98 0 0 0 2 0 0 0 0 0 0 0 0 0 0 0 0 0 0
6 0 0 1 0 4 0 0 4 1 0 5 5 26 4 4 6 0 0 11 0 3 0 0 0 0 0 0 5 0 0 3 0 0 0 0 0 5 5 5 0 0 0
18 1 6 2 2 2 5 2 4 1 6 0 0 5 66 51 21 45 1 19 0 1 5 5 5 5 1 0 0 0 0 0 8 6 5 2 1 1 1 5 5 5 5
32 20 29 0 4 3 5 11 6 4 1 0 0 2 5 6 57 100 31 60 0 0 1 6 9 25 5 5 2 5 0 0 1 8 2 0 5 4 5 5 5 5 5
46 91 40 12 0 1 5 5 14 5 4 5 5 5 1 1 3 0 49 31 55 2 8 26 32 5 28 25 5 3 0 0 4 5 5 10 18 8 5 5 5 5 76
66 65 100 92 56 100 100 28 5 5 5 5 5 5 4 2 0 0 5 12 100 100 5 5 22 100 49 5 6 11 5 5 5 5 5 47 51 32 12 5 4 5 5
100 70 44 34 43 76 100 90 81 86 38 5 5 5 5 4 2 28 76 7 99 60 90 49 67 96 89 71 5 5 6 5 5 5 5 86 100 100 53 20 32 5 5
100 100 46 38 98 86 62 84 100 99 44 73 45 5 5 5 5 12 74 94 100 50 50 99 98 100 100 100 36 23 5 54 31 5 13 89 100 100 72 100 20 15 5
7 93 100 49 35 54 64 60 100 100 89 78 27 18 6 31 25 48 33 100 100 94 46 59 100 100 100 100 100 39 5 10 19 16 61 100 100 100 100 64 5 20 70
9 9 99 78 63 50 85 87 33 63 63 38 27 20 53 31 95 100 99 100 100 95 100 99 78 100 98 100 92 100 73 24 33 74 95 90 100 100 100 20 12 22 8
0 15 100 82 50 71 100 100 100 93 79 83 23 13 63 96 75 96 100 90 33 100 85 100 100 100 96 66 97 100 100 100 71 78 100 100 100 100 100 89 8 35 9
5 0 37 100 61 86 100 100 100 100 81 10 60 15 66 13 96 86 99 100 87 100 98 98 100 90 89 93 94 38 62 98 100 100 100 100 100 99 81 98 36 15 31
5 5 24 43 94 100 100 93 100 100 22 82 89 39 53 39 87 99 100 100 99 100 100 69 100 100 100 99 100 100 99 100 100 100 100 100 98 100 100 64 99 89 90
5 2 9 5 43 100 100 100 100 100 96 84 99 54 24 40 3 18 100 96 100 99 100 100 100 67 100 100 100 100 100 100 100 100 100 100 100 100 100 100 74 100 55
7 5 8 5 8 13 24 95 71 13 26 100 85 16 14 55 9 5 99 100 100 96 100 100 100 100 100 100 100 100 100 100 100 100 100 100 100 100 97 97 88 92 96
36 41 44 5 5 67 8 54 57 37 85 94 100 51 5 9 6 52 70 89 100 100 100 100 89 100 100 100 100 100 100 100 100 100 100 100 100 100 100 100 100 84 99
95 17 100 100 100 100 100 100 98 96 48 91 100 74 86 8 100 100 100 100 100 100 100 100 100 100 100 100 100 100 100 100 100 100 100 100 100 100 100 100 92 100 85
95 27 96 100 100 100 100 100 94 62 99 22 24 94 92 78 99 91 100 99 99 100 100 100 100 100 100 100 100 100 100 100 100 100 100 100 100 100 100 100 100 96 80
73 94 29 100 100 100 100 100 100 100 100 78 76 74 27 100 100 96 91 100 100 100 100 100 100 100 100 100 100 100 100 100 100 100 100 100 100 100 100 100 100 100 100
100 100 100 100 100 100 100 100 100 100 100 73 99 70 99 100 100 100 100 96 100 100 100 100 100 100 100 100 100 100 100 100 100 100 100 100 100 100 100 100 100 100 67
100 100 99 100 100 100 100 100 100 100 100 100 100 54 100 100 100 100 100 100 100 100 100 100 100 100 100 100 100 100 100 100 100 100 100 100 100 100 100 100 100 98 89
100 100 100 100 100 100 100 100 100 100 100 100 100 94 100 77 96 100 100 100 100 100 100 100 100 100 100 100 100 100 100 100 100 100 100 100 100 100 100 100 100 100 99

GFSSE_prec_cloud_102.txt.gz
Cloud_Cover
13 15 8 92 23 3 1 0 6 0 0 30 100 100 100 31 16 5 26 8 10 5 8 1 1 0 81 64 77 100 91 2 75 6 0 0 52 38 20 62 7 1 80
2 16 5 6 13 58 5 0 6 5 5 2 58 100 100 27 6 60 42 13 5 0 0 10 7 78 80 98 100 96 0 25 0 0 0 0 0 15 7 3 14 29 17
19 6 0 13 0 0 4 0 3 3 5 5 85 100 100 17 3 0 0 4 0 0 4 2 19 77 3 0 0 0 0 11 0 0 0 0 0 0 0 11 44 96 61
24 4 4 0 1 0 0 0 0 0 5 3 5 98 43 12 13 0 0 0 0 0 3 5 74 23 0 0 0 0 0 0 0 0 0 0 0 1 0 9 6 3 0
19 0 1 0 5 0 0 0 4 0 0 0 5 8 5 5 20 1 0 0 53 77 0 0 4 0 2 0 0 0 0 0 0 0 0 0 0 0 0 0 0 1 1
19 0 0 0 0 0 0 0 1 4 9 0 0 0 5 5 63 5 4 0 0 80 0 0 0 0 0 0 0 0 0 0 0 0 0 0 0 0 0 3 5 4 5
37 6 0 0 0 0 0 0 0 0 5 2 0 0 0 5 96 100 6 0 0 0 0 5 5 3 5 1 0 0 0 0 0 0 0 1 1 0 3 5 5 4 5
36 23 5 0 0 0 0 0 5 5 5 5 0 0 2 0 11 76 85 5 5 19 15 7 6 5 5 5 5 4 5 0 0 0 0 0 0 2 5 5 5 4 5
26 22 26 55 50 0 0 0 0 5 5 5 5 0 0 0 0 2 62 96 48 43 77 50 46 5 5 84 100 46 6 5 5 5 0 5 5 5 11 74 5 4 5
95 10 12 28 100 100 100 100 54 70 5 10 6 5 4 1 0 0 3 50 100 59 9 60 30 50 5 51 100 86 20 6 49 6 5 5 5 5 50 77 27 12 63
87 57 22 15 84 99 100 100 100 100 82 98 41 8 5 5 4 0 9 0 54 32 5 11 5 5 10 6 23 100 95 22 5 5 5 5 5 5 87 100 100 100 92
0 8 97 52 60 99 94 100 100 100 100 100 100 61 25 16 5 5 5 16 100 98 51 32 6 5 9 18 57 100 97 94 81 6 29 11 5 19 65 100 100 100 70
0 4 11 99 47 80 63 69 100 100 100 100 100 100 99 16 9 30 38 40 100 50 20 30 97 5 5 61 16 55 99 100 100 98 51 8 5 54 96 100 100 100 66
0 0 0 100 100 100 100 82 40 45 51 99 75 87 84 73 11 41 63 51 63 64 100 88 99 23 22 5 46 12 72 100 100 100 100 100 52 95 88 99 100 100 100
0 0 0 100 100 100 100 91 100 100 100 94 100 31 63 30 60 80 65 67 93 91 40 62 100 50 6 47 50 59 34 84 98 100 100 100 100 100 100 97 51 100 88
0 0 0 15 100 100 100 94 100 100 100 100 98 100 94 56 87 71 82 84 59 99 61 68 17 83 82 81 90 30 38 35 81 90 93 85 93 100 100 100 100 100 100
4 0 0 13 88 100 81 93 97 100 100 100 100 98 88 26 29 55 60 62 45 64 73 51 28 46 12 98 89 100 65 68 83 81 100 96 100 100 100 100 89 52 40
4 6 5 6 92 100 74 85 69 92 99 99 100 98 96 58 13 27 20 35 34 63 65 100 100 87 90 90 95 79 100 100 100 100 100 100 100 100 100 100 96 100 95
99 39 5 30 41 100 79 73 89 100 100 100 52 35 67 39 19 17 39 23 46 42 100 82 100 100 100 99 77 62 100 100 100 100 100 100 100 100 100 100 99 91 100
92 100 31 82 57 40 50 83 100 93 100 99 60 30 8 47 73 58 53 36 35 63 55 100 100 100 100 100 100 91 96 100 100 100 100 100 100 100 100 100 100 100 100
73 100 100 78 97 64 98 100 100 100 99 100 97 40 22 63 39 99 100 89 86 30 41 100 100 100 100 100 100 100 100 100 100 100 100 100 100 100 100 100 100 100 100
1 100 100 92 55 100 100 100 61 51 86 96 100 100 100 19 10 14 22 37 94 88 99 88 100 100 100 100 86 99 99 100 100 100 100 100 100 100 100 100 100 100 100
4 24 71 90 51 100 100 100 100 100 100 100 100 99 81 100 87 88 86 99 55 100 100 100 100 100 100 100 100 100 100 100 100 100 100 100 100 100 100 100 100 100 100
28 59 38 44 60 98 100 100 100 100 100 100 100 100 100 100 100 100 100 100 100 100 100 100 100 100 100 100 100 100 100 100 100 100 100 100 100 100 100 100 100 100 85
100 96 47 99 99 100 100 100 100 100 100 100 100 100 100 100 100 100 100 100 100 100 100 100 100 100 100 88 99 100 100 100 100 100 100 100 100 100 100 99 100 100 100
100 97 82 99 100 100 100 100 100 100 100 100 100 100 100 100 100 100 100 100 100 100 100 100 100 100 100 100 100 100 100 100 100 100 100 100 100 100 100 100 100 100 100

GFSSE_prec_cloud_105.txt.gz
Cloud_Cover
19 49 8 36 38 23 58 26 5 0 1 28 100 100 100 20 42 6 36 28 5 19 10 6 1 0 30 100 100 10 0 17 20 0 0 0 2 0 0 1 2 56 15
4 39 4 5 83 51 59 87 5 5 5 100 100 100 100 100 16 5 13 26 22 60 6 5 2 5 97 100 100 0 16 34 0 0 0 0 0 7 12 0 0 30 12
8 48 6 0 2 4 5 25 42 6 5 1 87 99 100 84 16 3 5 34 100 34 9 8 12 0 45 51 0 0 80 6 0 0 0 2 18 0 0 0 0 0 0
57 60 25 0 0 0 3 0 2 6 5 0 31 100 100 71 13 0 4 1 0 0 9 8 90 0 0 0 0 0 11 0 0 0 0 0 0 3 0 0 0 1 0
64 47 0 2 0 0 0 0 1 0 0 7 0 91 0 20 20 5 4 0 4 17 99 9 0 0 0 0 0 0 0 0 0 0 0 0 0 0 0 0 0 2 5
71 40 0 0 0 0 0 0 0 3 0 0 0 0 2 9 69 5 5 1 5 88 54 4 0 0 0 0 0 0 0 0 0 0 0 0 0 0 0 0 7 13 5
61 31 12 0 2 0 0 0 0 0 0 1 0 0 0 0 0 4 3 3 37 71 79 17 18 5 3 0 0 2 0 0 0 1 0 0 0 1 0 8 9 8 5
22 12 4 0 0 1 0 0 0 0 0 0 0 1 0 0 0 0 0 0 16 99 48 74 19 5 5 10 37 6 11 1 3 5 5 2 5 5 5 5 5 29 86
96 10 5 8 0 0 0 0 0 0 0 0 0 5 0 0 0 0 0 0 0 5 41 6 6 41 42 37 7 9 51 46 46 7 5 5 5 5 5 5 5 97 99
76 99 8 55 93 5 1 4 18 7 0 0 5 5 5 5 2 0 0 0 42 6 3 37 86 7 91 92 46 5 5 11 26 49 58 6 5 5 5 5 5 96 100
0 10 95 70 83 68 65 28 97 99 69 100 96 94 15 25 6 5 0 0 0 4 5 4 49 100 47 6 38 65 15 5 47 48 36 52 12 51 35 5 11 86 100
0 0 0 50 76 26 6 100 97 94 100 100 100 100 100 94 72 50 8 3 0 0 8 71 26 11 97 6 5 14 12 52 13 37 45 70 97 66 5 36 92 68 99
5 0 0 4 100 79 96 36 100 100 100 100 100 100 100 88 99 56 50 36 7 4 52 78 32 25 42 83 5 3 2 6 81 74 93 100 100 100 96 6 98 99 100
75 7 0 1 99 100 100 96 54 93 100 100 96 100 100 95 86 100 94 56 33 12 5 100 17 8 25 100 5 5 5 5 5 37 69 99 100 100 100 98 46 35 85
96 11 13 2 13 100 100 95 100 100 100 98 78 66 100 75 84 51 75 81 58 42 32 55 38 96 87 5 5 5 5 5 10 5 5 45 80 100 100 100 82 100 74
4 5 28 1 0 37 100 100 83 100 100 100 96 82 82 100 100 100 82 55 81 88 98 99 59 86 20 79 5 5 12 5 5 60 75 23 23 98 100 100 100 100 100
0 0 5 5 2 28 100 100 63 97 100 100 100 100 96 90 100 100 81 100 97 30 94 100 100 99 70 100 14 96 52 23 99 80 100 100 68 100 100 100 100 100 100
0 0 0 0 0 8 64 100 97 37 100 100 100 100 100 74 96 96 58 88 95 56 39 67 73 100 96 99 97 100 90 30 27 100 100 100 100 100 100 100 100 100 100
0 0 0 0 2 5 56 100 93 87 70 90 99 100 100 71 65 98 57 44 74 73 52 50 60 46 91 100 100 85 100 64 8 55 100 100 100 100 100 100 100 100 100
0 0 28 3 0 8 100 100 100 95 67 100 100 84 100 100 70 44 89 100 100 100 100 98 89 81 100 91 100 100 89 96 73 28 47 59 94 100 100 100 100 100 100
0 0 4 83 5 70 100 100 100 100 100 84 100 100 99 100 74 44 29 100 100 100 100 100 100 98 54 100 100 100 100 100 100 100 100 93 98 91 100 100 100 100 100
0 0 2 100 5 42 100 100 90 75 37 9 89 100 97 96 72 97 65 100 100 100 67 41 10 39 49 67 100 100 100 100 100 100 100 100 100 100 100 100 100 100 100
0 0 0 100 86 12 100 68 61 86 100 100 99 100 100 100 95 65 67 68 76 49 46 21 46 92 50 57 100 100 100 100 100 100 100 100 100 100 100 100 100 100 100
0 0 2 99 32 93 100 98 100 97 100 100 86 100 100 100 100 100 100 67 65 68 99 67 73 96 100 100 100 100 100 100 100 100 100 100 100 100 100 100 100 100 100
100 92 1 73 100 89 70 98 100 100 100 100 100 93 100 100 27 78 100 100 100 100 100 100 99 98 100 100 100 100 100 100 100 100 100 100 100 100 100 100 100 100 100
100 100 100 99 99 100 99 100 100 100 100 100 100 100 100 100 100 100 100 100 100 100 100 100 100 100 100 100 100 100 100 100 100 100 100 100 100 100 100 100 100 100 100

GFSSE_prec_cloud_108.txt.gz
Cloud_Cover
55 100 92 86 19 4 3 3 1 3 5 71 100 5 83 13 14 5 5 7 5 5 5 8 5 17 28 36 4 1 6 25 0 0 0 0 10 7 3 0 75 49 22
87 100 16 79 51 7 1 5 5 5 5 26 9 4 100 89 15 8 5 5 13 16 43 40 8 5 54 100 7 11 100 15 0 0 0 0 1 6 13 1 12 32 0
98 99 29 55 20 5 5 5 5 5 5 2 1 5 25 100 13 5 5 4 20 17 7 56 66 5 64 93 1 77 49 0 0 0 0 0 18 0 0 0 0 17 2
54 74 97 1 4 24 12 5 5 5 2 4 5 5 3 88 21 5 15 5 9 8 36 4 7 0 0 0 1 100 20 0 0 0 0 0 0 1 2 0 7 4 5
54 65 97 2 2 3 5 5 5 5 0 0 0 2 0 8 9 6 9 1 5 47 34 5 5 3 0 0 0 5 0 0 0 0 0 0 0 1 1 0 0 5 5
92 97 21 0 0 0 4 0 0 0 4 5 5 0 5 4 63 0 0 0 1 49 95 5 34 57 5 0 0 1 0 0 0 0 0 0 1 0 0 0 0 4 5
96 80 37 0 0 0 0 0 0 0 0 0 0 5 5 3 0 0 2 5 5 20 97 11 3 16 55 5 5 5 5 3 1 0 0 0 1 5 5 5 8 7 5
99 92 51 1 0 0 0 0 0 0 0 0 0 0 1 5 0 0 0 5 5 8 8 17 16 33 67 58 6 5 5 5 11 5 4 3 5 5 7 6 5 5 5
99 66 76 46 42 75 8 0 0 0 0 0 0 0 0 3 5 5 0 0 3 1 5 5 8 7 94 100 72 14 18 24 10 5 5 5 5 5 5 5 5 5 12
0 30 76 88 42 99 100 31 4 3 2 0 0 0 0 4 5 4 0 0 0 2 5 5 7 61 5 5 44 84 86 43 28 26 6 7 5 5 5 5 5 5 5
1 5 4 65 66 80 100 100 100 42 1 5 4 7 47 10 5 5 5 4 0 0 4 5 5 4 5 5 9 32 38 82 97 31 43 44 14 41 10 5 5 5 30
5 0 5 36 61 64 71 100 100 100 85 14 95 100 100 100 99 84 64 5 5 0 0 1 5 29 24 5 18 42 90 38 39 30 37 85 57 21 10 63 100 100 68
57 5 0 0 14 95 84 48 100 100 100 99 25 100 100 100 100 100 100 100 100 13 46 17 50 12 71 89 22 86 74 96 55 7 53 95 23 94 100 84 96 100 100
5 4 3 4 2 28 100 94 56 98 100 93 98 78 100 100 100 100 100 100 100 81 99 94 85 31 15 5 5 10 50 100 100 100 88 19 32 67 75 100 100 100 100
4 5 5 1 4 4 60 100 99 48 59 100 100 79 99 100 94 100 100 100 75 92 100 94 98 70 70 31 69 35 7 24 88 100 100 100 89 44 11 30 56 22 27
40 5 4 2 5 4 21 98 100 97 13 8 100 100 100 100 98 92 63 94 88 15 90 76 40 52 69 93 20 6 5 5 5 33 66 100 100 100 90 95 66 47 28
1 0 0 5 0 0 0 8 86 100 65 15 36 100 100 93 100 100 100 41 100 46 60 100 100 100 98 100 72 67 66 57 5 5 5 5 3 100 100 100 98 98 50
0 0 0 0 0 0 0 6 46 100 36 8 97 100 100 100 57 91 100 94 59 100 98 95 100 88 100 80 100 100 59 100 17 5 6 5 6 5 23 100 100 100 100
0 0 0 0 0 0 0 0 69 99 47 5 55 39 100 100 100 99 87 100 100 100 100 100 93 71 100 93 62 88 100 100 93 91 22 5 5 19 8 5 95 100 100
0 0 0 0 0 0 0 2 99 100 100 50 4 5 59 100 100 100 88 99 80 96 100 98 100 98 95 92 70 100 100 70 98 91 27 56 24 74 74 25 4 81 100
0 0 0 0 0 0 0 72 100 100 100 100 97 66 28 83 100 100 100 100 100 100 100 100 75 100 100 100 100 68 87 57 100 100 100 99 81 99 14 95 8 4 4
0 0 0 0 0 29 53 95 100 100 100 93 76 100 100 92 100 100 100 100 100 100 100 100 100 100 100 100 86 48 55 39 92 80 100 100 100 100 100 100 100 100 94
7 0 0 0 0 42 99 96 100 100 98 97 100 99 95 88 100 100 100 100 100 96 88 100 100 82 93 72 55 70 98 96 5 39 46 62 100 99 96 100 100 100 100
40 2 7 30 1 71 100 88 100 99 100 100 97 96 99 76 100 100 100 100 100 100 100 100 93 100 85 50 79 39 94 99 44 99 99 100 95 88 28 92 100 100 100
62 100 70 35 5 3 66 64 80 85 95 99 87 100 100 90 70 82 100 100 100 100 100 100 100 95 99 100 100 100 100 93 100 100 95 99 98 100 100 68 100 89 95
100 100 100 100 100 100 100 93 100 100 99 100 100 100 100 100 100 100 99 94 97 100 100 74 98 100 100 84 88 100 100 100 100 100 99 100 93 100 97 62 100 100 100

GFSSE_prec_cloud_111.txt.gz
Cloud_Cover
62 99 100 55 37 6 1 5 5 5 5 4 99 24 16 10 25 4 4 5 5 5 5 5 5 17 12 6 5 14 7 5 9 0 0 0 10 12 0 7 95 68 12
76 98 100 81 5 5 5 1 3 3 5 6 9 6 26 69 14 5 5 5 5 5 5 1 23 5 64 17 6 70 24 1 0 0 0 0 79 86 34 21 83 23 8
100 83 100 21 3 5 9 6 5 3 3 2 5 5 5 98 19 1 0 0 7 8 47 5 2 6 31 82 7 100 25 0 0 0 1 98 11 0 0 0 0 19 3
80 93 99 0 0 1 2 3 5 5 4 2 5 5 4 2 15 12 3 0 1 5 5 5 5 5 5 6 36 100 8 0 0 0 22 9 1 0 0 1 0 0 5
100 100 90 27 0 0 2 5 15 88 5 5 0 1 5 5 76 18 1 0 0 6 19 2 1 0 0 4 96 98 2 0 0 0 0 0 0 0 0 0 5 2 5
100 100 100 0 0 0 0 0 5 72 75 5 5 0 0 4 5 5 0 3 3 0 6 6 3 0 0 0 7 18 5 1 0 0 0 0 2 0 0 0 0 9 5
68 100 96 0 0 0 0 0 0 4 5 10 87 41 9 5 0 4 5 14 14 9 5 11 5 0 0 1 1 1 5 5 5 4 2 5 5 5 6 2 5 4 5
84 64 100 36 0 0 0 0 0 0 5 5 68 100 98 98 46 4 1 10 99 93 5 47 18 5 4 1 2 4 4 5 5 5 5 5 5 5 5 5 5 5 5
14 74 98 100 74 0 0 0 0 0 2 1 0 1 4 14 26 5 5 5 9 17 5 6 52 100 100 40 5 5 5 90 55 9 5 7 9 5 5 5 5 5 5
3 5 5 96 100 100 86 0 2 20 20 5 1 0 0 0 0 0 0 0 0 17 18 12 5 63 99 100 62 5 5 5 53 85 76 38 95 100 80 5 6 5 5
5 2 3 19 86 88 100 100 5 70 94 87 20 29 27 0 0 1 5 4 0 0 4 5 4 5 5 70 100 100 40 6 5 7 6 98 100 100 28 8 84 99 80
5 5 5 3 2 10 23 100 96 4 4 100 94 71 52 32 12 65 77 76 6 4 0 0 9 5 6 5 66 98 93 99 36 5 18 65 98 100 100 100 98 92 62
5 5 5 5 5 5 22 16 100 52 86 77 100 100 100 97 95 100 100 100 100 94 63 38 52 29 6 10 3 28 5 1 5 96 87 93 100 85 95 100 100 79 98
15 90 89 59 5 5 5 26 44 100 75 17 7 93 100 100 100 100 100 100 100 100 100 100 88 38 59 38 3 5 5 5 5 5 39 100 100 100 100 99 81 29 72
0 2 2 5 5 4 4 31 60 20 57 48 54 37 79 99 100 100 100 100 100 100 100 100 92 100 100 76 77 65 21 5 5 5 3 6 46 89 90 100 100 100 71
0 4 5 5 5 2 0 0 30 46 50 20 57 49 37 54 100 100 100 100 100 100 85 100 100 100 57 91 56 65 62 10 5 5 5 1 0 0 1 16 62 97 100
0 0 0 0 5 9 5 5 1 66 39 81 31 17 96 42 54 100 100 100 100 100 100 100 99 83 76 81 68 94 92 91 5 5 11 5 8 19 11 5 7 25 5
0 0 0 0 0 0 35 97 66 42 71 98 74 16 6 87 59 85 98 100 100 100 100 100 100 100 100 90 98 100 100 100 100 99 58 14 5 5 9 75 5 4 0
0 0 0 0 0 0 0 0 0 8 100 71 55 0 35 43 80 100 78 100 100 95 100 100 100 100 100 100 100 64 74 95 85 72 97 100 93 10 31 5 5 5 0
0 0 0 0 0 0 0 0 0 0 81 100 53 5 24 23 91 100 100 100 100 100 100 99 100 100 100 100 100 100 87 82 21 52 94 53 87 85 43 15 5 14 87
0 0 0 0 0 0 0 0 0 0 100 100 38 37 19 53 43 40 57 100 100 100 100 100 96 99 97 100 100 99 100 58 100 50 64 100 100 96 87 100 46 71 83
0 1 1 0 0 0 0 0 0 55 100 100 100 61 93 55 10 5 39 51 100 100 100 100 100 98 82 100 100 100 100 38 19 4 25 63 8 81 100 100 84 64 100
36 78 20 2 0 0 0 0 0 0 50 100 99 44 48 97 81 5 10 5 51 99 100 100 100 100 100 100 100 100 89 57 5 5 6 32 69 100 86 100 97 100 100
99 100 96 12 1 0 0 0 0 5 19 2 8 74 77 88 96 100 98 36 80 84 100 100 100 100 100 100 100 78 5 41 32 15 31 20 47 84 14 100 91 57 100
100 100 100 18 91 50 82 0 2 79 54 3 46 97 100 100 100 100 100 100 32 100 100 100 100 100 100 100 100 100 100 38 71 98 100 99 85 87 100 100 100 100 89
100 100 100 100 100 61 97 24 78 100 100 100 100 100 100 100 99 100 100 100 100 100 100 100 100 100 100 100 100 100 93 100 100 54 100 100 100 100 100 100 100 100 100

GFSSE_prec_cloud_114.txt.gz
Cloud_Cover
5 79 100 36 4 41 50 87 17 5 5 5 70 63 7 22 8 5 0 0 0 0 0 0 0 12 4 0 2 3 12 0 0 0 0 0 4 2 4 60 7 1 0
84 96 100 54 5 3 24 19 5 7 5 3 15 17 2 28 20 5 4 0 0 0 0 0 0 1 8 5 9 12 6 0 0 0 0 0 0 87 69 55 0 2 0
61 85 100 4 0 0 5 47 7 41 78 5 5 90 25 78 11 5 5 5 2 0 2 0 78 0 15 8 18 99 6 0 0 0 0 0 0 0 0 0 0 2 0
91 82 80 2 23 0 0 3 90 100 58 5 5 57 75 7 9 8 5 5 11 10 1 0 1 0 0 0 84 99 5 0 0 0 0 0 0 2 0 0 0 0 5
100 98 60 6 0 0 0 0 0 63 97 100 70 21 30 100 83 12 6 5 5 21 13 3 0 0 0 0 96 99 0 0 0 0 4 0 0 3 4 5 3 4 1
76 39 99 2 8 0 0 0 0 0 4 100 100 100 100 63 10 25 7 0 3 5 5 5 5 2 0 0 40 56 0 0 0 0 5 4 3 1 5 5 5 5 5
76 93 51 12 0 0 0 0 0 0 0 0 81 100 100 100 97 86 84 76 21 5 5 23 81 27 40 6 5 3 3 0 0 1 5 5 5 5 5 5 5 5 5
0 76 100 75 0 0 0 0 0 0 0 0 0 2 54 100 100 100 100 100 100 81 18 7 87 100 100 94 19 11 11 5 5 4 5 57 68 5 11 5 5 5 5
5 3 96 97 94 3 0 0 0 0 0 0 0 1 5 5 5 13 96 100 100 100 100 97 41 100 100 100 94 92 40 34 52 21 5 52 100 96 70 10 72 84 65
5 5 4 38 100 100 94 28 0 0 0 0 0 0 4 4 0 0 0 4 13 20 28 5 18 100 100 100 100 100 100 100 88 30 72 55 67 80 70 100 100 100 100
57 16 6 3 0 11 88 40 83 2 0 0 0 6 100 12 5 2 0 0 0 0 0 0 0 29 14 89 100 99 100 100 100 100 80 57 11 27 21 13 88 100 100
59 100 80 6 16 20 1 1 45 99 32 0 0 0 3 5 6 5 5 5 4 5 6 4 0 0 0 4 21 15 10 12 34 30 98 100 96 70 55 42 68 100 100
0 0 13 34 54 26 5 0 5 74 99 99 68 67 7 0 33 100 97 20 39 55 96 98 50 32 5 4 5 5 5 5 4 0 0 34 98 100 99 94 96 100 100
0 0 0 0 0 2 4 5 1 9 52 9 5 30 92 98 18 100 73 87 52 100 99 100 68 32 5 14 15 9 5 5 1 5 5 5 0 0 3 97 100 100 100
0 0 3 0 0 0 0 0 6 42 5 63 57 4 83 98 94 5 6 76 99 100 100 100 88 29 30 21 55 96 10 7 6 5 4 5 5 1 2 0 2 12 64
2 2 3 5 5 0 0 0 0 0 0 5 6 2 2 5 7 3 8 63 62 98 100 100 100 100 100 70 100 100 89 97 88 5 4 5 5 5 5 5 2 3 4
5 5 39 84 31 13 5 5 0 0 0 0 8 2 0 10 11 3 6 92 96 100 99 100 100 100 100 100 100 100 100 100 98 16 52 91 62 5 5 5 54 5 7
5 5 0 0 0 1 2 0 3 5 0 0 2 26 5 0 95 59 4 89 36 92 94 100 100 100 100 100 100 100 91 100 100 94 100 100 100 100 40 36 31 5 5
0 0 0 0 0 0 0 0 0 0 0 0 0 31 52 5 17 68 7 2 20 2 58 98 100 100 100 100 100 100 100 100 100 100 100 100 15 18 81 39 81 70 18
0 0 0 0 0 0 0 0 0 0 0 0 0 0 6 19 18 5 5 27 4 3 84 24 100 100 100 100 100 100 100 74 96 100 100 100 100 74 96 52 96 91 88
0 0 0 0 0 0 0 0 0 0 0 0 0 0 9 1 40 53 22 14 16 48 75 100 100 100 100 100 100 100 100 99 100 82 98 58 100 94 97 97 100 15 93
0 0 0 0 0 0 0 0 0 0 0 0 0 0 3 64 57 100 43 12 47 38 98 65 24 100 100 100 100 100 100 100 100 100 82 74 68 38 18 43 19 27 87
6 16 28 67 1 0 0 0 0 0 0 0 0 0 7 16 20 17 98 78 20 5 6 92 24 97 100 100 100 100 100 100 100 95 96 37 41 8 5 12 100 77 62
81 73 99 100 49 5 0 3 0 0 0 0 0 0 0 11 13 100 100 99 5 5 7 7 5 63 99 100 100 99 100 100 100 100 92 68 57 5 40 56 93 98 40
100 98 100 98 87 23 0 4 30 26 11 24 90 72 92 50 89 100 93 96 92 65 48 3 18 100 91 100 100 100 100 100 100 45 99 100 98 95 60 66 100 96 73
94 49 95 49 100 99 100 72 74 89 100 72 100 99 100 100 100 100 100 100 100 96 100 98 100 99 90 64 96 100 100 100 100 98 84 100 100 100 95 100 17 81 100

GFSSE_prec_cloud_117.txt.gz
Cloud_Cover
12 73 100 68 5 5 5 16 83 100 100 96 57 44 17 6 5 7 5 5 1 0 0 0 11 5 0 0 2 8 25 5 4 0 0 0 0 13 37 1 0 0 3
100 100 100 46 5 5 5 5 6 5 23 52 100 67 36 12 9 5 6 5 5 1 0 0 0 11 0 10 4 6 0 5 2 0 0 0 65 89 100 26 0 0 0
78 99 100 5 4 0 5 5 8 4 36 87 31 80 100 100 92 14 50 5 5 5 5 0 3 28 0 0 69 0 0 0 0 0 0 0 1 18 32 0 3 5 4
84 41 100 33 6 0 0 0 0 0 14 80 8 5 68 66 99 100 96 63 27 5 6 5 5 5 0 0 98 0 0 0 0 0 12 0 0 0 0 4 5 5 21
95 93 8 7 0 1 4 0 0 0 5 10 88 54 14 73 5 85 100 84 88 38 5 4 5 6 33 4 96 0 0 0 0 0 0 0 5 1 0 0 4 5 6
58 92 70 0 0 0 6 4 0 0 0 0 1 6 100 100 100 100 94 100 84 30 64 36 14 5 5 5 5 5 5 4 0 5 3 4 1 5 6 6 5 5 10
88 49 100 2 7 0 0 0 0 0 0 0 0 0 0 5 86 100 96 100 100 95 88 79 30 32 5 5 6 23 73 59 15 32 26 5 3 5 5 41 10 14 14
8 73 100 80 1 0 0 0 0 0 0 0 0 0 0 0 4 69 100 100 93 100 100 100 100 100 100 82 98 89 83 100 18 21 70 65 41 10 5 46 76 27 8
5 5 100 100 90 81 0 0 0 0 0 0 0 0 0 0 0 0 1 8 63 94 100 100 100 100 100 100 100 100 100 100 99 94 58 40 90 100 73 44 97 100 100
5 5 58 7 91 100 94 36 0 0 0 0 0 0 0 0 0 0 0 2 1 4 5 5 32 67 99 100 53 60 100 100 100 100 100 89 79 64 63 29 5 21 76
1 0 0 4 31 9 71 35 28 4 0 0 0 0 0 0 0 0 2 5 5 5 1 0 0 0 1 3 1 5 18 36 73 96 100 100 99 99 100 100 56 18 5
2 2 3 3 0 0 0 20 26 18 83 71 14 0 0 0 0 0 3 5 4 3 5 5 30 4 5 1 16 4 7 5 5 5 5 15 32 100 100 100 97 89 75
96 83 66 6 1 0 0 0 2 12 13 7 98 7 0 0 0 0 0 4 2 3 10 5 13 5 5 2 17 31 13 5 5 5 5 0 0 0 4 51 79 100 99
82 41 4 3 0 2 0 0 0 4 6 9 64 62 21 13 30 8 0 0 5 6 39 100 92 29 5 60 39 2 12 8 70 5 5 5 2 1 5 0 0 0 1
67 40 4 2 4 5 5 5 5 0 0 0 0 2 38 40 31 99 95 3 4 7 64 26 26 28 52 6 5 93 100 22 81 85 16 5 5 5 5 5 0 30 2
1 0 0 0 5 5 5 5 4 0 0 0 0 0 0 2 1 12 52 10 0 4 12 8 25 46 72 78 26 24 47 86 100 100 89 6 5 5 5 5 9 30 7
0 0 0 0 0 0 0 3 5 1 5 5 0 0 0 2 6 2 1 5 14 5 8 36 69 30 34 55 47 58 88 94 97 100 100 98 48 40 89 5 5 5 5
0 0 0 0 0 0 0 0 0 0 0 2 5 4 3 1 0 10 3 5 29 11 6 23 34 69 69 100 100 100 100 77 95 99 100 100 100 82 100 68 44 54 5
0 0 0 0 0 0 0 0 0 0 0 0 0 0 0 2 5 2 1 1 38 71 60 14 26 13 74 99 100 100 100 100 100 100 100 100 100 100 99 100 97 86 58
0 0 0 0 0 0 0 0 0 0 0 0 0 0 0 0 1 25 4 7 11 7 24 14 3 23 43 98 100 100 100 100 100 100 100 100 100 100 100 64 100 100 86
0 0 0 0 0 3 15 0 0 0 0 0 0 0 0 0 3 14 36 19 8 6 3 17 50 74 74 44 100 100 100 100 100 100 100 100 100 100 100 100 64 56 100
0 0 0 14 24 71 77 42 0 0 0 0 0 0 0 0 0 8 7 7 62 98 59 72 96 88 71 92 98 100 100 100 100 100 100 98 82 80 100 100 68 100 32
0 3 16 44 50 60 78 40 0 0 0 0 0 0 0 0 0 0 0 3 8 21 6 75 99 98 100 100 100 100 100 100 99 100 100 100 93 100 99 96 89 97 96
0 0 0 6 84 98 86 95 10 0 0 0 6 56 55 42 28 41 13 49 100 100 82 84 34 40 24 83 99 100 100 100 100 100 100 100 100 100 89 84 60 50 99
0 5 0 1 100 100 82 100 100 100 53 41 70 49 92 47 77 100 50 77 100 98 100 100 100 100 66 38 44 56 36 96 100 100 100 100 100 100 100 100 86 100 83
46 56 0 2 59 56 100 99 100 100 96 100 78 100 100 99 100 80 91 100 100 100 100 100 100 100 100 100 100 100 100 86 100 100 100 100 100 100 99 99 100 99 100

GFSSE_prec_cloud_123.txt.gz
Cloud_Cover
22 53 86 64 5 32 5 5 4 5 16 5 5 26 100 100 84 6 5 5 5 1 2 16 3 5 5 4 6 15 5 0 0 0 0 0 2 60 4 0 0 30 34
27 100 100 30 5 5 5 5 4 4 5 4 64 7 27 25 9 8 8 5 4 5 4 5 17 4 4 9 13 4 1 0 0 0 0 0 25 90 18 0 0 5 8
47 95 100 0 0 0 0 0 0 0 0 2 5 4 3 29 20 7 98 66 14 40 15 5 37 20 5 10 3 12 8 11 0 0 0 70 100 81 0 0 1 0 2
72 27 99 7 0 0 0 0 0 0 0 0 0 0 0 4 1 0 6 69 98 100 99 83 61 9 5 8 5 14 13 6 5 5 5 4 5 4 5 0 0 0 0
86 88 100 25 0 0 1 0 0 0 0 0 0 0 0 0 0 0 0 5 4 12 100 100 56 100 22 5 5 5 5 5 5 5 5 5 5 5 5 5 5 3 0
16 74 89 87 0 1 5 1 0 0 0 0 0 5 5 1 0 5 0 0 5 5 5 6 84 98 80 61 5 5 5 5 5 5 5 15 45 40 62 63 6 5 5
26 92 89 97 10 0 0 2 0 0 0 0 0 0 0 0 0 0 0 0 2 3 3 4 5 10 77 100 100 37 5 5 5 64 38 77 94 41 63 64 31 6 13
16 0 64 100 93 44 0 3 0 0 0 0 0 0 0 0 0 0 0 0 0 0 0 0 0 7 12 49 78 100 100 100 100 100 100 100 98 73 81 94 77 32 37
0 0 0 0 7 98 100 100 91 5 1 0 0 0 0 0 0 0 0 0 0 0 0 0 0 0 10 76 23 40 68 100 100 100 100 100 100 100 100 100 100 100 100
4 0 0 0 0 0 4 3 98 78 0 0 0 0 0 0 0 0 0 0 0 0 0 0 0 0 0 9 33 5 5 5 15 64 94 98 100 100 100 100 100 100 100
5 5 4 5 5 5 5 5 4 14 4 0 0 0 0 0 0 0 0 0 0 0 0 0 0 0 0 1 12 2 1 4 1 5 0 0 5 3 8 97 100 100 100
5 5 5 5 6 5 5 5 7 5 5 13 5 10 3 13 11 1 0 0 0 0 0 0 0 0 0 8 20 78 30 16 15 5 5 1 5 5 3 12 8 47 98
8 5 7 71 100 95 18 40 50 100 40 9 23 88 58 22 88 90 30 10 2 0 0 0 2 8 10 24 23 18 74 58 46 43 6 5 3 5 5 5 3 0 0
5 48 5 3 3 5 63 18 5 37 57 70 40 4 2 1 15 2 32 4 29 3 0 8 5 12 30 23 17 21 18 22 18 5 5 5 23 5 5 5 10 5 4
5 4 44 11 5 5 3 4 2 2 4 5 5 3 3 3 4 38 31 0 76 100 50 3 26 35 46 43 49 25 16 10 17 5 4 5 5 5 13 100 41 9 5
0 0 3 2 0 0 0 0 0 0 0 0 1 1 0 1 2 10 12 36 9 35 100 100 74 32 46 53 68 60 22 5 9 5 5 5 5 50 88 74 100 100 32
0 0 0 0 0 0 0 0 0 0 0 0 0 0 0 0 0 0 0 34 9 1 19 94 64 88 90 99 97 100 58 13 5 14 46 84 11 6 60 41 35 81 100
0 0 0 0 0 0 0 0 0 0 0 0 0 0 0 0 0 0 0 15 10 32 53 82 94 100 100 100 100 100 100 100 100 56 90 28 95 66 98 99 78 100 99
0 0 0 0 0 4 35 55 1 0 0 0 0 0 0 0 0 3 32 38 27 45 80 93 58 100 53 87 86 100 100 100 100 100 100 100 100 100 100 100 99 100 100
0 0 0 0 4 36 99 100 22 3 2 0 0 0 0 0 0 0 0 0 10 66 93 100 99 15 51 17 100 100 100 100 100 100 100 100 99 87 100 100 100 100 100
0 0 0 0 82 100 100 100 100 100 63 0 0 2 85 100 100 100 100 92 13 3 2 100 100 98 78 91 93 100 100 100 100 100 100 100 100 100 100 100 100 100 100
0 0 0 0 40 75 78 100 100 100 41 88 92 100 100 100 82 49 62 100 100 56 4 2 85 100 71 63 49 76 83 100 100 100 100 100 100 100 98 100 100 100 100
0 0 0 0 1 38 42 92 100 100 90 86 77 99 100 91 71 22 68 100 100 100 100 100 100 100 100 73 17 95 100 99 100 100 100 100 100 100 100 100 100 100 100
0 0 0 0 0 0 21 58 95 97 78 79 23 25 65 3 12 1 29 100 100 100 100 97 100 100 100 100 100 43 100 100 100 100 100 100 96 100 100 100 100 100 100
0 0 0 0 0 0 0 0 14 63 29 0 0 0 83 16 5 75 23 100 100 100 100 100 78 100 100 80 62 100 84 71 100 87 100 95 100 100 100 100 100 100 100
0 0 0 0 0 0 0 0 0 0 0 3 0 5 56 86 42 44 99 62 100 100 100 100 84 50 86 46 100 100 70 100 100 100 100 100 54 53 47 78 99 100 100

GFSSE_prec_cloud_126.txt.gz
Cloud_Cover
26 99 89 60 5 5 5 4 1 0 4 12 15 55 8 5 5 97 100 84 57 9 0 9 2 0 4 0 0 8 0 0 0 0 0 0 0 23 0 0 3 65 22
38 98 100 30 0 0 27 32 6 4 2 0 62 2 5 5 5 5 5 5 5 56 40 41 26 3 4 5 3 1 0 2 1 0 0 0 0 91 0 0 0 2 10
80 58 90 3 0 0 0 0 0 0 4 3 0 0 3 4 14 3 5 5 2 26 78 16 31 70 7 10 13 14 15 12 5 0 5 9 11 39 0 0 0 5 13
46 12 100 0 0 0 0 0 0 0 0 0 0 0 0 0 0 0 0 0 0 2 28 100 96 100 84 28 5 12 10 8 5 5 30 48 60 11 3 5 5 5 4
56 27 100 34 0 2 42 0 1 0 0 0 0 0 0 0 0 13 7 0 0 0 0 4 43 82 57 40 99 82 12 7 5 5 5 5 5 5 5 5 5 5 9
14 46 62 7 0 0 2 18 3 3 2 0 0 4 5 4 1 0 3 0 0 0 0 0 0 5 25 13 5 6 19 8 5 5 5 5 5 12 24 6 58 6 5
0 0 75 57 53 8 9 0 4 3 0 0 0 5 7 5 0 0 0 0 0 0 0 0 0 0 2 5 6 5 72 97 100 54 5 13 42 99 100 100 100 31 48
0 0 0 0 36 84 52 1 3 0 0 0 0 0 1 6 5 5 4 0 0 0 0 0 8 0 1 0 0 4 5 5 67 100 99 100 100 100 100 100 100 92 100
0 0 0 0 0 0 0 18 61 83 33 2 7 0 0 0 0 0 1 2 2 0 0 0 0 0 0 1 0 10 5 6 21 84 100 100 100 100 100 66 99 100 100
5 0 0 0 0 0 0 0 0 0 5 0 0 6 0 0 0 0 0 0 0 0 0 0 0 0 0 0 0 30 85 0 15 15 6 22 59 100 100 100 100 100 100
4 2 1 3 5 1 0 0 0 0 4 5 3 1 20 13 0 0 0 1 0 0 0 0 0 0 0 0 0 1 43 26 9 9 6 5 5 4 5 5 4 58 94
8 34 5 5 5 2 2 5 5 5 5 23 38 16 11 31 17 6 17 1 2 5 2 0 0 0 0 7 12 0 1 20 13 5 6 5 5 3 5 11 6 0 0
5 5 6 5 12 5 5 5 4 0 0 5 4 7 11 6 8 73 94 33 22 44 54 2 4 6 12 27 27 19 40 39 100 15 5 5 5 5 5 5 5 10 2
12 18 21 38 43 54 50 14 4 43 94 55 24 5 5 5 5 3 26 11 32 21 20 60 89 3 17 30 26 34 39 42 19 59 12 5 5 19 37 42 6 5 5
7 5 4 6 5 10 3 0 0 0 0 0 3 1 0 0 0 2 0 2 12 11 12 22 67 68 25 50 55 66 62 56 23 13 2 5 5 6 80 100 64 7 16
5 5 5 8 7 5 5 4 1 0 0 0 0 0 0 0 0 0 6 1 2 9 7 14 13 48 54 35 26 64 100 84 48 34 5 5 41 5 11 50 40 9 52
5 5 5 31 34 5 5 5 0 0 0 0 0 0 0 0 0 0 0 0 1 2 28 52 42 42 99 99 96 74 100 100 100 96 52 16 65 54 26 18 34 73 38
1 2 0 4 0 0 0 0 2 0 9 0 0 0 0 0 0 1 13 24 16 23 24 85 100 97 94 100 100 95 99 100 100 100 100 99 100 93 82 85 100 99 99
3 0 0 0 0 0 0 0 0 0 16 4 3 20 63 69 71 92 73 38 2 15 11 0 38 58 27 59 100 94 82 93 100 100 100 100 100 100 100 100 79 100 92
0 0 0 0 0 0 0 1 0 4 11 38 83 100 100 100 100 95 94 41 57 99 52 7 0 2 99 94 97 49 14 42 75 100 100 100 100 100 100 100 100 100 100
0 0 0 0 0 1 23 87 87 96 78 95 100 100 100 100 84 0 18 97 99 46 100 86 30 4 0 28 100 100 78 99 100 89 100 100 100 100 100 100 100 100 100
0 0 0 0 0 0 59 72 97 100 26 25 12 64 35 3 0 0 40 99 100 100 94 100 84 47 31 0 100 97 99 65 77 100 100 100 100 100 100 100 100 100 100
0 0 0 0 0 0 0 82 84 50 22 67 0 8 14 0 0 0 0 52 99 100 100 100 100 100 100 92 48 100 68 100 21 60 99 100 100 100 100 100 100 100 100
0 0 0 0 0 0 0 19 62 100 100 18 2 0 0 0 0 20 0 0 45 61 100 100 100 100 100 100 100 98 48 53 100 18 61 100 100 100 100 100 100 100 100
0 0 0 0 0 0 0 0 7 0 1 0 0 0 0 14 89 100 56 68 8 28 100 100 100 100 100 100 100 94 99 100 100 100 59 100 64 98 100 100 100 100 100
0 0 0 0 0 0 0 0 0 0 0 0 0 0 0 0 28 7 5 5 12 87 100 100 100 100 100 100 100 100 100 9 10 43 99 100 100 98 89 100 100 100 100

GFSSE_prec_cloud_129.txt.gz
Cloud_Cover
59 100 96 41 0 5 5 5 46 8 4 1 3 18 79 97 44 98 87 84 100 100 40 62 21 5 0 0 0 0 0 0 0 19 0 37 0 0 4 0 0 13 0
89 97 99 9 0 1 0 0 0 6 28 5 72 5 5 3 6 38 5 7 9 6 5 53 32 42 13 5 4 0 0 0 0 0 0 0 0 0 0 0 0 14 11
78 67 83 0 0 0 0 0 0 0 0 0 0 0 3 0 0 0 4 5 5 3 5 5 19 100 11 18 5 5 7 1 0 0 0 24 36 20 0 0 0 8 22
10 82 100 11 1 1 3 0 0 0 0 0 0 0 0 0 0 0 0 0 0 1 2 2 0 9 80 100 100 97 49 29 15 5 39 60 91 67 32 0 0 7 10
3 27 51 35 45 12 1 3 0 0 0 2 5 5 2 2 5 24 6 1 4 4 0 0 0 0 1 34 77 98 80 97 100 49 5 5 2 0 0 1 3 20 3
20 11 29 7 0 14 0 11 1 2 5 2 0 0 0 5 5 63 90 5 0 0 2 2 0 0 0 0 1 4 5 5 5 5 34 27 10 7 5 5 5 5 72
0 0 0 2 41 6 22 0 0 0 0 8 0 0 0 0 5 5 2 63 85 8 3 0 0 6 0 1 0 0 0 5 7 14 22 82 98 45 18 5 5 7 5
0 0 0 0 0 0 4 3 0 5 3 0 22 6 5 0 0 0 2 0 0 4 4 10 3 3 0 0 0 1 0 14 38 4 4 5 71 99 99 92 100 100 100
0 0 0 0 0 0 0 0 0 0 0 0 0 0 0 0 0 0 0 0 0 0 0 1 8 16 5 4 0 0 4 33 100 44 5 3 5 10 71 100 100 93 97
0 0 0 0 0 0 1 0 0 0 0 0 0 0 0 0 0 0 0 0 0 0 0 0 0 0 0 5 5 5 7 5 55 100 100 9 1 3 5 6 24 32 100
5 5 5 5 1 2 0 1 1 0 0 0 0 0 0 0 3 2 3 4 2 1 4 5 0 0 0 0 2 3 8 62 12 43 65 99 21 5 5 1 1 4 5
5 5 5 5 5 5 5 5 5 5 5 4 5 5 5 5 5 5 9 5 5 5 5 5 40 55 9 0 0 2 4 72 75 24 5 0 52 16 5 5 7 3 2
5 5 5 5 3 5 5 5 6 5 5 10 6 35 5 5 1 0 0 1 5 5 1 1 0 26 27 15 5 15 10 49 74 39 5 6 5 47 13 5 5 5 5
5 5 5 16 33 9 23 40 66 37 25 14 5 5 3 0 0 0 0 0 0 0 0 0 0 0 6 45 53 42 2 22 66 48 26 0 24 14 69 20 38 70 19
2 0 1 2 4 3 0 2 2 2 1 3 3 2 3 0 0 0 0 0 0 0 0 0 0 0 2 7 39 69 22 4 28 69 48 2 5 76 70 32 25 6 81
1 2 0 3 1 0 2 1 0 0 8 0 0 0 0 0 0 0 0 0 0 0 0 0 0 0 0 14 34 87 55 24 15 42 23 20 17 20 100 58 5 25 23
3 5 5 0 0 0 0 0 0 0 31 23 0 0 0 0 0 1 0 0 0 0 0 0 0 0 9 3 17 65 74 66 61 93 73 58 94 100 97 100 77 13 16
5 5 5 5 0 0 0 0 0 0 44 50 70 75 87 62 97 100 97 68 22 16 9 0 0 0 0 0 0 0 51 100 100 100 98 100 100 100 100 100 100 86 84
5 4 0 0 0 0 0 0 0 0 57 100 100 100 100 87 56 8 45 16 14 16 0 5 24 15 6 0 0 0 0 42 100 100 100 100 100 100 100 100 100 100 98
0 0 0 0 0 0 0 0 0 0 4 81 100 100 100 57 25 24 6 73 100 100 96 27 8 30 36 13 0 0 61 61 49 37 67 100 100 100 100 100 100 100 100
0 0 0 0 0 0 9 9 0 24 46 68 10 78 51 0 0 0 22 100 100 100 100 100 51 90 33 22 1 0 0 53 100 29 53 100 97 51 100 100 100 100 100
0 0 0 0 0 0 4 25 90 93 24 65 0 0 0 0 0 0 1 30 46 100 100 100 100 100 53 15 31 26 14 2 0 0 26 91 98 99 94 100 100 100 100
0 0 0 0 0 0 0 8 23 15 0 0 0 0 0 0 0 0 0 4 21 81 92 82 99 100 100 80 23 93 80 14 3 20 61 92 100 100 100 100 100 100 100
0 0 0 0 0 0 0 0 12 6 0 0 0 0 0 0 0 0 0 0 0 22 42 50 54 93 100 100 98 41 48 82 78 3 18 44 61 100 100 100 100 100 100
0 0 0 0 0 0 0 0 0 0 0 0 0 0 0 0 0 0 0 0 0 5 0 29 21 35 100 100 100 100 77 99 100 100 100 96 30 30 81 100 100 100 100
0 0 0 0 0 0 0 0 0 0 0 0 0 0 0 0 0 0 0 0 0 0 0 0 15 99 100 100 100 100 100 100 100 100 100 100 52 18 84 100 100 100 100